<?xml version="1.0" encoding="UTF-8" standalone="no" ?>
<gpx xmlns="http://www.topografix.com/GPX/1/1" xmlns:xsi="http://www.w3.org/2001/XMLSchema-instance" xsi:schemaLocation="http://www.topografix.com/GPX/1/1 http://www.topografix.com/GPX/1/1/gpx.xsd" version="1.1" creator="VisuGPX - https://www.visugpx.com">
  <metadata>
    <name>circulaire au départ de Morsbach</name>
    <desc><![CDATA[à effectuer de préférence par temps sec]]></desc>
  </metadata>
  <trk>
    <name><![CDATA[Morsbach Folkling Gaubiving]]></name>
    <trkseg>
      <trkpt lat="49.16671" lon="6.87003">
        <ele>214.3</ele>
        <time>2013-05-29T06:30:27Z</time>
      </trkpt>
      <trkpt lat="49.16671" lon="6.87003">
        <ele>214.6</ele>
        <time>2013-05-29T06:30:28Z</time>
      </trkpt>
      <trkpt lat="49.16672" lon="6.87004">
        <ele>213.5</ele>
        <time>2013-05-29T06:30:37Z</time>
      </trkpt>
      <trkpt lat="49.16673" lon="6.87004">
        <ele>213.8</ele>
        <time>2013-05-29T06:30:42Z</time>
      </trkpt>
      <trkpt lat="49.16673" lon="6.87002">
        <ele>213.2</ele>
        <time>2013-05-29T06:30:47Z</time>
      </trkpt>
      <trkpt lat="49.16674" lon="6.86999">
        <ele>213.1</ele>
        <time>2013-05-29T06:30:52Z</time>
      </trkpt>
      <trkpt lat="49.16675" lon="6.86994">
        <ele>213.7</ele>
        <time>2013-05-29T06:30:57Z</time>
      </trkpt>
      <trkpt lat="49.16676" lon="6.86988">
        <ele>213.8</ele>
        <time>2013-05-29T06:31:02Z</time>
      </trkpt>
      <trkpt lat="49.16676" lon="6.86981">
        <ele>214.3</ele>
        <time>2013-05-29T06:31:07Z</time>
      </trkpt>
      <trkpt lat="49.16675" lon="6.86974">
        <ele>214.6</ele>
        <time>2013-05-29T06:31:12Z</time>
      </trkpt>
      <trkpt lat="49.16671" lon="6.86969">
        <ele>215</ele>
        <time>2013-05-29T06:31:17Z</time>
      </trkpt>
      <trkpt lat="49.16666" lon="6.86968">
        <ele>214.7</ele>
        <time>2013-05-29T06:31:22Z</time>
      </trkpt>
      <trkpt lat="49.16661" lon="6.86966">
        <ele>215.4</ele>
        <time>2013-05-29T06:31:27Z</time>
      </trkpt>
      <trkpt lat="49.16656" lon="6.86963">
        <ele>215.5</ele>
        <time>2013-05-29T06:31:32Z</time>
      </trkpt>
      <trkpt lat="49.16655" lon="6.86962">
        <ele>215.5</ele>
        <time>2013-05-29T06:31:33Z</time>
      </trkpt>
      <trkpt lat="49.16643" lon="6.86957">
        <ele>215.3</ele>
        <time>2013-05-29T06:31:42Z</time>
      </trkpt>
      <trkpt lat="49.16637" lon="6.86955">
        <ele>216.1</ele>
        <time>2013-05-29T06:31:47Z</time>
      </trkpt>
      <trkpt lat="49.1663" lon="6.86953">
        <ele>216.2</ele>
        <time>2013-05-29T06:31:52Z</time>
      </trkpt>
      <trkpt lat="49.16624" lon="6.86951">
        <ele>216.5</ele>
        <time>2013-05-29T06:31:57Z</time>
      </trkpt>
      <trkpt lat="49.16618" lon="6.86949">
        <ele>217.6</ele>
        <time>2013-05-29T06:32:02Z</time>
      </trkpt>
      <trkpt lat="49.16613" lon="6.86947">
        <ele>217.7</ele>
        <time>2013-05-29T06:32:07Z</time>
      </trkpt>
      <trkpt lat="49.16607" lon="6.86945">
        <ele>218</ele>
        <time>2013-05-29T06:32:12Z</time>
      </trkpt>
      <trkpt lat="49.16602" lon="6.86942">
        <ele>218.5</ele>
        <time>2013-05-29T06:32:17Z</time>
      </trkpt>
      <trkpt lat="49.16596" lon="6.8694">
        <ele>219.3</ele>
        <time>2013-05-29T06:32:22Z</time>
      </trkpt>
      <trkpt lat="49.16591" lon="6.86938">
        <ele>219.3</ele>
        <time>2013-05-29T06:32:27Z</time>
      </trkpt>
      <trkpt lat="49.16585" lon="6.86936">
        <ele>219.7</ele>
        <time>2013-05-29T06:32:32Z</time>
      </trkpt>
      <trkpt lat="49.1658" lon="6.86933">
        <ele>220.6</ele>
        <time>2013-05-29T06:32:37Z</time>
      </trkpt>
      <trkpt lat="49.1658" lon="6.86932">
        <ele>220.9</ele>
        <time>2013-05-29T06:32:38Z</time>
      </trkpt>
      <trkpt lat="49.16571" lon="6.86927">
        <ele>221.5</ele>
        <time>2013-05-29T06:32:47Z</time>
      </trkpt>
      <trkpt lat="49.16567" lon="6.86925">
        <ele>223.1</ele>
        <time>2013-05-29T06:32:52Z</time>
      </trkpt>
      <trkpt lat="49.16562" lon="6.86921">
        <ele>223.1</ele>
        <time>2013-05-29T06:32:57Z</time>
      </trkpt>
      <trkpt lat="49.16558" lon="6.86917">
        <ele>223.7</ele>
        <time>2013-05-29T06:33:02Z</time>
      </trkpt>
      <trkpt lat="49.16553" lon="6.86914">
        <ele>224.3</ele>
        <time>2013-05-29T06:33:07Z</time>
      </trkpt>
      <trkpt lat="49.16549" lon="6.86909">
        <ele>224.7</ele>
        <time>2013-05-29T06:33:12Z</time>
      </trkpt>
      <trkpt lat="49.16544" lon="6.86904">
        <ele>225.3</ele>
        <time>2013-05-29T06:33:17Z</time>
      </trkpt>
      <trkpt lat="49.1654" lon="6.86898">
        <ele>225.7</ele>
        <time>2013-05-29T06:33:22Z</time>
      </trkpt>
      <trkpt lat="49.16535" lon="6.86892">
        <ele>225.7</ele>
        <time>2013-05-29T06:33:27Z</time>
      </trkpt>
      <trkpt lat="49.16531" lon="6.86886">
        <ele>225.9</ele>
        <time>2013-05-29T06:33:32Z</time>
      </trkpt>
      <trkpt lat="49.16528" lon="6.8688">
        <ele>227.2</ele>
        <time>2013-05-29T06:33:37Z</time>
      </trkpt>
      <trkpt lat="49.16524" lon="6.86874">
        <ele>226.7</ele>
        <time>2013-05-29T06:33:42Z</time>
      </trkpt>
      <trkpt lat="49.16524" lon="6.86873">
        <ele>227.2</ele>
        <time>2013-05-29T06:33:43Z</time>
      </trkpt>
      <trkpt lat="49.16517" lon="6.86863">
        <ele>227.6</ele>
        <time>2013-05-29T06:33:52Z</time>
      </trkpt>
      <trkpt lat="49.16513" lon="6.86858">
        <ele>227.7</ele>
        <time>2013-05-29T06:33:57Z</time>
      </trkpt>
      <trkpt lat="49.16507" lon="6.86854">
        <ele>228.5</ele>
        <time>2013-05-29T06:34:02Z</time>
      </trkpt>
      <trkpt lat="49.16501" lon="6.86851">
        <ele>228.2</ele>
        <time>2013-05-29T06:34:07Z</time>
      </trkpt>
      <trkpt lat="49.16495" lon="6.8685">
        <ele>229.2</ele>
        <time>2013-05-29T06:34:12Z</time>
      </trkpt>
      <trkpt lat="49.16489" lon="6.86849">
        <ele>229.3</ele>
        <time>2013-05-29T06:34:17Z</time>
      </trkpt>
      <trkpt lat="49.16483" lon="6.86849">
        <ele>229.2</ele>
        <time>2013-05-29T06:34:22Z</time>
      </trkpt>
      <trkpt lat="49.16477" lon="6.8685">
        <ele>228.4</ele>
        <time>2013-05-29T06:34:27Z</time>
      </trkpt>
      <trkpt lat="49.16471" lon="6.8685">
        <ele>229.3</ele>
        <time>2013-05-29T06:34:32Z</time>
      </trkpt>
      <trkpt lat="49.16465" lon="6.86851">
        <ele>229.5</ele>
        <time>2013-05-29T06:34:37Z</time>
      </trkpt>
      <trkpt lat="49.16458" lon="6.86851">
        <ele>230</ele>
        <time>2013-05-29T06:34:42Z</time>
      </trkpt>
      <trkpt lat="49.16453" lon="6.86851">
        <ele>229</ele>
        <time>2013-05-29T06:34:47Z</time>
      </trkpt>
      <trkpt lat="49.16452" lon="6.86852">
        <ele>228.9</ele>
        <time>2013-05-29T06:34:48Z</time>
      </trkpt>
      <trkpt lat="49.16441" lon="6.86853">
        <ele>229.7</ele>
        <time>2013-05-29T06:34:57Z</time>
      </trkpt>
      <trkpt lat="49.16435" lon="6.86854">
        <ele>230.1</ele>
        <time>2013-05-29T06:35:02Z</time>
      </trkpt>
      <trkpt lat="49.16428" lon="6.86854">
        <ele>230.6</ele>
        <time>2013-05-29T06:35:07Z</time>
      </trkpt>
      <trkpt lat="49.16422" lon="6.86855">
        <ele>230.1</ele>
        <time>2013-05-29T06:35:12Z</time>
      </trkpt>
      <trkpt lat="49.16416" lon="6.86856">
        <ele>231</ele>
        <time>2013-05-29T06:35:17Z</time>
      </trkpt>
      <trkpt lat="49.1641" lon="6.86855">
        <ele>231.4</ele>
        <time>2013-05-29T06:35:22Z</time>
      </trkpt>
      <trkpt lat="49.16403" lon="6.86852">
        <ele>231.3</ele>
        <time>2013-05-29T06:35:27Z</time>
      </trkpt>
      <trkpt lat="49.16397" lon="6.86849">
        <ele>232.3</ele>
        <time>2013-05-29T06:35:32Z</time>
      </trkpt>
      <trkpt lat="49.1639" lon="6.86844">
        <ele>231.9</ele>
        <time>2013-05-29T06:35:37Z</time>
      </trkpt>
      <trkpt lat="49.16384" lon="6.86839">
        <ele>232.4</ele>
        <time>2013-05-29T06:35:42Z</time>
      </trkpt>
      <trkpt lat="49.16378" lon="6.86834">
        <ele>232.3</ele>
        <time>2013-05-29T06:35:47Z</time>
      </trkpt>
      <trkpt lat="49.16374" lon="6.86827">
        <ele>232.5</ele>
        <time>2013-05-29T06:35:52Z</time>
      </trkpt>
      <trkpt lat="49.16373" lon="6.86826">
        <ele>232.3</ele>
        <time>2013-05-29T06:35:53Z</time>
      </trkpt>
      <trkpt lat="49.16367" lon="6.86814">
        <ele>232</ele>
        <time>2013-05-29T06:36:02Z</time>
      </trkpt>
      <trkpt lat="49.16363" lon="6.86807">
        <ele>232.5</ele>
        <time>2013-05-29T06:36:07Z</time>
      </trkpt>
      <trkpt lat="49.16361" lon="6.86799">
        <ele>233.2</ele>
        <time>2013-05-29T06:36:12Z</time>
      </trkpt>
      <trkpt lat="49.16361" lon="6.86792">
        <ele>233.3</ele>
        <time>2013-05-29T06:36:17Z</time>
      </trkpt>
      <trkpt lat="49.16361" lon="6.86784">
        <ele>233</ele>
        <time>2013-05-29T06:36:22Z</time>
      </trkpt>
      <trkpt lat="49.16362" lon="6.86776">
        <ele>232.3</ele>
        <time>2013-05-29T06:36:27Z</time>
      </trkpt>
      <trkpt lat="49.16363" lon="6.86767">
        <ele>232.8</ele>
        <time>2013-05-29T06:36:32Z</time>
      </trkpt>
      <trkpt lat="49.16364" lon="6.86758">
        <ele>233.3</ele>
        <time>2013-05-29T06:36:37Z</time>
      </trkpt>
      <trkpt lat="49.16366" lon="6.8675">
        <ele>232.9</ele>
        <time>2013-05-29T06:36:42Z</time>
      </trkpt>
      <trkpt lat="49.16367" lon="6.86742">
        <ele>232.5</ele>
        <time>2013-05-29T06:36:47Z</time>
      </trkpt>
      <trkpt lat="49.16369" lon="6.86733">
        <ele>232</ele>
        <time>2013-05-29T06:36:52Z</time>
      </trkpt>
      <trkpt lat="49.1637" lon="6.86724">
        <ele>232.2</ele>
        <time>2013-05-29T06:36:57Z</time>
      </trkpt>
      <trkpt lat="49.16371" lon="6.86722">
        <ele>232.2</ele>
        <time>2013-05-29T06:36:58Z</time>
      </trkpt>
      <trkpt lat="49.16373" lon="6.86706">
        <ele>231.9</ele>
        <time>2013-05-29T06:37:07Z</time>
      </trkpt>
      <trkpt lat="49.16375" lon="6.86698">
        <ele>231.7</ele>
        <time>2013-05-29T06:37:12Z</time>
      </trkpt>
      <trkpt lat="49.16376" lon="6.86689">
        <ele>231.9</ele>
        <time>2013-05-29T06:37:17Z</time>
      </trkpt>
      <trkpt lat="49.16377" lon="6.8668">
        <ele>232.1</ele>
        <time>2013-05-29T06:37:22Z</time>
      </trkpt>
      <trkpt lat="49.16379" lon="6.86672">
        <ele>231.3</ele>
        <time>2013-05-29T06:37:27Z</time>
      </trkpt>
      <trkpt lat="49.1638" lon="6.86662">
        <ele>231.2</ele>
        <time>2013-05-29T06:37:32Z</time>
      </trkpt>
      <trkpt lat="49.16381" lon="6.86653">
        <ele>231.1</ele>
        <time>2013-05-29T06:37:37Z</time>
      </trkpt>
      <trkpt lat="49.16378" lon="6.86645">
        <ele>231.2</ele>
        <time>2013-05-29T06:37:42Z</time>
      </trkpt>
      <trkpt lat="49.16372" lon="6.86642">
        <ele>231.5</ele>
        <time>2013-05-29T06:37:47Z</time>
      </trkpt>
      <trkpt lat="49.16366" lon="6.86639">
        <ele>232.4</ele>
        <time>2013-05-29T06:37:52Z</time>
      </trkpt>
      <trkpt lat="49.1636" lon="6.86637">
        <ele>232.3</ele>
        <time>2013-05-29T06:37:57Z</time>
      </trkpt>
      <trkpt lat="49.16353" lon="6.86634">
        <ele>233</ele>
        <time>2013-05-29T06:38:02Z</time>
      </trkpt>
      <trkpt lat="49.16352" lon="6.86634">
        <ele>233.1</ele>
        <time>2013-05-29T06:38:03Z</time>
      </trkpt>
      <trkpt lat="49.16342" lon="6.86632">
        <ele>234</ele>
        <time>2013-05-29T06:38:12Z</time>
      </trkpt>
      <trkpt lat="49.16336" lon="6.86632">
        <ele>235</ele>
        <time>2013-05-29T06:38:17Z</time>
      </trkpt>
      <trkpt lat="49.1633" lon="6.86631">
        <ele>235</ele>
        <time>2013-05-29T06:38:22Z</time>
      </trkpt>
      <trkpt lat="49.16324" lon="6.86629">
        <ele>236.4</ele>
        <time>2013-05-29T06:38:27Z</time>
      </trkpt>
      <trkpt lat="49.16318" lon="6.86626">
        <ele>237.1</ele>
        <time>2013-05-29T06:38:32Z</time>
      </trkpt>
      <trkpt lat="49.16313" lon="6.86623">
        <ele>238.1</ele>
        <time>2013-05-29T06:38:37Z</time>
      </trkpt>
      <trkpt lat="49.16307" lon="6.86621">
        <ele>238.2</ele>
        <time>2013-05-29T06:38:42Z</time>
      </trkpt>
      <trkpt lat="49.16303" lon="6.86617">
        <ele>239.9</ele>
        <time>2013-05-29T06:38:47Z</time>
      </trkpt>
      <trkpt lat="49.16298" lon="6.86613">
        <ele>239.8</ele>
        <time>2013-05-29T06:38:52Z</time>
      </trkpt>
      <trkpt lat="49.16294" lon="6.86609">
        <ele>240.1</ele>
        <time>2013-05-29T06:38:57Z</time>
      </trkpt>
      <trkpt lat="49.1629" lon="6.86604">
        <ele>240.4</ele>
        <time>2013-05-29T06:39:02Z</time>
      </trkpt>
      <trkpt lat="49.16286" lon="6.86598">
        <ele>242.3</ele>
        <time>2013-05-29T06:39:07Z</time>
      </trkpt>
      <trkpt lat="49.16285" lon="6.86597">
        <ele>242.5</ele>
        <time>2013-05-29T06:39:08Z</time>
      </trkpt>
      <trkpt lat="49.16279" lon="6.86586">
        <ele>244.6</ele>
        <time>2013-05-29T06:39:17Z</time>
      </trkpt>
      <trkpt lat="49.16275" lon="6.86579">
        <ele>244.5</ele>
        <time>2013-05-29T06:39:22Z</time>
      </trkpt>
      <trkpt lat="49.16272" lon="6.86572">
        <ele>245.4</ele>
        <time>2013-05-29T06:39:27Z</time>
      </trkpt>
      <trkpt lat="49.16269" lon="6.86565">
        <ele>245.6</ele>
        <time>2013-05-29T06:39:32Z</time>
      </trkpt>
      <trkpt lat="49.16266" lon="6.86558">
        <ele>245.9</ele>
        <time>2013-05-29T06:39:37Z</time>
      </trkpt>
      <trkpt lat="49.16264" lon="6.8655">
        <ele>246.7</ele>
        <time>2013-05-29T06:39:42Z</time>
      </trkpt>
      <trkpt lat="49.1626" lon="6.86542">
        <ele>247.1</ele>
        <time>2013-05-29T06:39:47Z</time>
      </trkpt>
      <trkpt lat="49.16258" lon="6.86535">
        <ele>247.7</ele>
        <time>2013-05-29T06:39:52Z</time>
      </trkpt>
      <trkpt lat="49.16254" lon="6.86526">
        <ele>249</ele>
        <time>2013-05-29T06:39:57Z</time>
      </trkpt>
      <trkpt lat="49.16251" lon="6.86519">
        <ele>248.7</ele>
        <time>2013-05-29T06:40:02Z</time>
      </trkpt>
      <trkpt lat="49.16247" lon="6.86512">
        <ele>248.9</ele>
        <time>2013-05-29T06:40:07Z</time>
      </trkpt>
      <trkpt lat="49.16244" lon="6.86505">
        <ele>249.2</ele>
        <time>2013-05-29T06:40:12Z</time>
      </trkpt>
      <trkpt lat="49.16243" lon="6.86504">
        <ele>249.3</ele>
        <time>2013-05-29T06:40:13Z</time>
      </trkpt>
      <trkpt lat="49.16237" lon="6.86492">
        <ele>250.3</ele>
        <time>2013-05-29T06:40:22Z</time>
      </trkpt>
      <trkpt lat="49.16233" lon="6.86486">
        <ele>250.8</ele>
        <time>2013-05-29T06:40:27Z</time>
      </trkpt>
      <trkpt lat="49.16229" lon="6.86481">
        <ele>252.6</ele>
        <time>2013-05-29T06:40:32Z</time>
      </trkpt>
      <trkpt lat="49.16224" lon="6.86477">
        <ele>252.4</ele>
        <time>2013-05-29T06:40:37Z</time>
      </trkpt>
      <trkpt lat="49.16219" lon="6.86474">
        <ele>253.7</ele>
        <time>2013-05-29T06:40:42Z</time>
      </trkpt>
      <trkpt lat="49.16214" lon="6.86473">
        <ele>254.1</ele>
        <time>2013-05-29T06:40:47Z</time>
      </trkpt>
      <trkpt lat="49.1621" lon="6.86471">
        <ele>254.2</ele>
        <time>2013-05-29T06:40:52Z</time>
      </trkpt>
      <trkpt lat="49.16206" lon="6.86471">
        <ele>255</ele>
        <time>2013-05-29T06:40:57Z</time>
      </trkpt>
      <trkpt lat="49.16201" lon="6.8647">
        <ele>256.1</ele>
        <time>2013-05-29T06:41:02Z</time>
      </trkpt>
      <trkpt lat="49.16194" lon="6.86468">
        <ele>257</ele>
        <time>2013-05-29T06:41:07Z</time>
      </trkpt>
      <trkpt lat="49.16188" lon="6.86468">
        <ele>257.3</ele>
        <time>2013-05-29T06:41:12Z</time>
      </trkpt>
      <trkpt lat="49.16181" lon="6.86469">
        <ele>258.1</ele>
        <time>2013-05-29T06:41:17Z</time>
      </trkpt>
      <trkpt lat="49.1618" lon="6.8647">
        <ele>258.1</ele>
        <time>2013-05-29T06:41:18Z</time>
      </trkpt>
      <trkpt lat="49.16171" lon="6.86472">
        <ele>258.9</ele>
        <time>2013-05-29T06:41:27Z</time>
      </trkpt>
      <trkpt lat="49.16165" lon="6.86474">
        <ele>259.1</ele>
        <time>2013-05-29T06:41:32Z</time>
      </trkpt>
      <trkpt lat="49.16159" lon="6.86475">
        <ele>259.4</ele>
        <time>2013-05-29T06:41:37Z</time>
      </trkpt>
      <trkpt lat="49.16153" lon="6.86477">
        <ele>260.1</ele>
        <time>2013-05-29T06:41:42Z</time>
      </trkpt>
      <trkpt lat="49.16146" lon="6.86479">
        <ele>260.4</ele>
        <time>2013-05-29T06:41:47Z</time>
      </trkpt>
      <trkpt lat="49.1614" lon="6.86481">
        <ele>260.1</ele>
        <time>2013-05-29T06:41:52Z</time>
      </trkpt>
      <trkpt lat="49.16134" lon="6.86483">
        <ele>260.8</ele>
        <time>2013-05-29T06:41:57Z</time>
      </trkpt>
      <trkpt lat="49.16127" lon="6.86485">
        <ele>262.7</ele>
        <time>2013-05-29T06:42:02Z</time>
      </trkpt>
      <trkpt lat="49.16121" lon="6.86487">
        <ele>263.2</ele>
        <time>2013-05-29T06:42:07Z</time>
      </trkpt>
      <trkpt lat="49.16115" lon="6.86488">
        <ele>264</ele>
        <time>2013-05-29T06:42:12Z</time>
      </trkpt>
      <trkpt lat="49.16109" lon="6.86492">
        <ele>264.9</ele>
        <time>2013-05-29T06:42:17Z</time>
      </trkpt>
      <trkpt lat="49.16103" lon="6.86494">
        <ele>265.6</ele>
        <time>2013-05-29T06:42:22Z</time>
      </trkpt>
      <trkpt lat="49.16102" lon="6.86495">
        <ele>266.1</ele>
        <time>2013-05-29T06:42:23Z</time>
      </trkpt>
      <trkpt lat="49.1609" lon="6.86498">
        <ele>267</ele>
        <time>2013-05-29T06:42:32Z</time>
      </trkpt>
      <trkpt lat="49.16084" lon="6.86499">
        <ele>266.7</ele>
        <time>2013-05-29T06:42:37Z</time>
      </trkpt>
      <trkpt lat="49.16078" lon="6.86501">
        <ele>267.9</ele>
        <time>2013-05-29T06:42:42Z</time>
      </trkpt>
      <trkpt lat="49.16071" lon="6.86501">
        <ele>268.3</ele>
        <time>2013-05-29T06:42:47Z</time>
      </trkpt>
      <trkpt lat="49.16065" lon="6.86502">
        <ele>268</ele>
        <time>2013-05-29T06:42:52Z</time>
      </trkpt>
      <trkpt lat="49.16059" lon="6.86503">
        <ele>268.7</ele>
        <time>2013-05-29T06:42:57Z</time>
      </trkpt>
      <trkpt lat="49.16052" lon="6.86504">
        <ele>268.5</ele>
        <time>2013-05-29T06:43:02Z</time>
      </trkpt>
      <trkpt lat="49.16046" lon="6.86505">
        <ele>268.6</ele>
        <time>2013-05-29T06:43:07Z</time>
      </trkpt>
      <trkpt lat="49.1604" lon="6.86505">
        <ele>268.8</ele>
        <time>2013-05-29T06:43:12Z</time>
      </trkpt>
      <trkpt lat="49.16035" lon="6.86504">
        <ele>269.3</ele>
        <time>2013-05-29T06:43:17Z</time>
      </trkpt>
      <trkpt lat="49.16029" lon="6.86501">
        <ele>269.9</ele>
        <time>2013-05-29T06:43:22Z</time>
      </trkpt>
      <trkpt lat="49.16023" lon="6.86498">
        <ele>270.9</ele>
        <time>2013-05-29T06:43:27Z</time>
      </trkpt>
      <trkpt lat="49.16021" lon="6.86497">
        <ele>271.1</ele>
        <time>2013-05-29T06:43:28Z</time>
      </trkpt>
      <trkpt lat="49.16011" lon="6.86491">
        <ele>271.3</ele>
        <time>2013-05-29T06:43:37Z</time>
      </trkpt>
      <trkpt lat="49.16005" lon="6.86489">
        <ele>271.4</ele>
        <time>2013-05-29T06:43:42Z</time>
      </trkpt>
      <trkpt lat="49.15999" lon="6.86488">
        <ele>271.7</ele>
        <time>2013-05-29T06:43:47Z</time>
      </trkpt>
      <trkpt lat="49.15993" lon="6.86488">
        <ele>271.6</ele>
        <time>2013-05-29T06:43:52Z</time>
      </trkpt>
      <trkpt lat="49.15987" lon="6.86488">
        <ele>272</ele>
        <time>2013-05-29T06:43:57Z</time>
      </trkpt>
      <trkpt lat="49.15982" lon="6.86488">
        <ele>272</ele>
        <time>2013-05-29T06:44:02Z</time>
      </trkpt>
      <trkpt lat="49.15977" lon="6.86489">
        <ele>271.7</ele>
        <time>2013-05-29T06:44:07Z</time>
      </trkpt>
      <trkpt lat="49.15972" lon="6.8649">
        <ele>272.5</ele>
        <time>2013-05-29T06:44:12Z</time>
      </trkpt>
      <trkpt lat="49.15966" lon="6.86492">
        <ele>271.6</ele>
        <time>2013-05-29T06:44:17Z</time>
      </trkpt>
      <trkpt lat="49.15961" lon="6.86493">
        <ele>272.4</ele>
        <time>2013-05-29T06:44:22Z</time>
      </trkpt>
      <trkpt lat="49.15955" lon="6.86495">
        <ele>272.8</ele>
        <time>2013-05-29T06:44:27Z</time>
      </trkpt>
      <trkpt lat="49.15949" lon="6.86499">
        <ele>272.8</ele>
        <time>2013-05-29T06:44:32Z</time>
      </trkpt>
      <trkpt lat="49.15948" lon="6.865">
        <ele>272.7</ele>
        <time>2013-05-29T06:44:33Z</time>
      </trkpt>
      <trkpt lat="49.15937" lon="6.86505">
        <ele>273.4</ele>
        <time>2013-05-29T06:44:42Z</time>
      </trkpt>
      <trkpt lat="49.15931" lon="6.8651">
        <ele>274</ele>
        <time>2013-05-29T06:44:47Z</time>
      </trkpt>
      <trkpt lat="49.15925" lon="6.86513">
        <ele>274.1</ele>
        <time>2013-05-29T06:44:52Z</time>
      </trkpt>
      <trkpt lat="49.15919" lon="6.86516">
        <ele>274.8</ele>
        <time>2013-05-29T06:44:57Z</time>
      </trkpt>
      <trkpt lat="49.15912" lon="6.86519">
        <ele>275.1</ele>
        <time>2013-05-29T06:45:02Z</time>
      </trkpt>
      <trkpt lat="49.15905" lon="6.86522">
        <ele>276.3</ele>
        <time>2013-05-29T06:45:07Z</time>
      </trkpt>
      <trkpt lat="49.15899" lon="6.86524">
        <ele>275.6</ele>
        <time>2013-05-29T06:45:12Z</time>
      </trkpt>
      <trkpt lat="49.15893" lon="6.86527">
        <ele>275.9</ele>
        <time>2013-05-29T06:45:17Z</time>
      </trkpt>
      <trkpt lat="49.15886" lon="6.8653">
        <ele>275.8</ele>
        <time>2013-05-29T06:45:22Z</time>
      </trkpt>
      <trkpt lat="49.1588" lon="6.86534">
        <ele>276.5</ele>
        <time>2013-05-29T06:45:27Z</time>
      </trkpt>
      <trkpt lat="49.15874" lon="6.86538">
        <ele>276.7</ele>
        <time>2013-05-29T06:45:32Z</time>
      </trkpt>
      <trkpt lat="49.15867" lon="6.8654">
        <ele>276.3</ele>
        <time>2013-05-29T06:45:37Z</time>
      </trkpt>
      <trkpt lat="49.15866" lon="6.86541">
        <ele>276.4</ele>
        <time>2013-05-29T06:45:38Z</time>
      </trkpt>
      <trkpt lat="49.15855" lon="6.86544">
        <ele>276</ele>
        <time>2013-05-29T06:45:47Z</time>
      </trkpt>
      <trkpt lat="49.15849" lon="6.86545">
        <ele>276.7</ele>
        <time>2013-05-29T06:45:52Z</time>
      </trkpt>
      <trkpt lat="49.15843" lon="6.86546">
        <ele>276.9</ele>
        <time>2013-05-29T06:45:57Z</time>
      </trkpt>
      <trkpt lat="49.15836" lon="6.86547">
        <ele>277.4</ele>
        <time>2013-05-29T06:46:02Z</time>
      </trkpt>
      <trkpt lat="49.1583" lon="6.86547">
        <ele>277.2</ele>
        <time>2013-05-29T06:46:07Z</time>
      </trkpt>
      <trkpt lat="49.15824" lon="6.86547">
        <ele>277.9</ele>
        <time>2013-05-29T06:46:12Z</time>
      </trkpt>
      <trkpt lat="49.15817" lon="6.86548">
        <ele>277.7</ele>
        <time>2013-05-29T06:46:17Z</time>
      </trkpt>
      <trkpt lat="49.15811" lon="6.86549">
        <ele>278</ele>
        <time>2013-05-29T06:46:22Z</time>
      </trkpt>
      <trkpt lat="49.15805" lon="6.86549">
        <ele>277.5</ele>
        <time>2013-05-29T06:46:27Z</time>
      </trkpt>
      <trkpt lat="49.15798" lon="6.8655">
        <ele>277.6</ele>
        <time>2013-05-29T06:46:32Z</time>
      </trkpt>
      <trkpt lat="49.15792" lon="6.86551">
        <ele>278</ele>
        <time>2013-05-29T06:46:37Z</time>
      </trkpt>
      <trkpt lat="49.15786" lon="6.86553">
        <ele>278.2</ele>
        <time>2013-05-29T06:46:42Z</time>
      </trkpt>
      <trkpt lat="49.15785" lon="6.86553">
        <ele>278.2</ele>
        <time>2013-05-29T06:46:43Z</time>
      </trkpt>
      <trkpt lat="49.15774" lon="6.86557">
        <ele>278.4</ele>
        <time>2013-05-29T06:46:52Z</time>
      </trkpt>
      <trkpt lat="49.15768" lon="6.86558">
        <ele>278.5</ele>
        <time>2013-05-29T06:46:57Z</time>
      </trkpt>
      <trkpt lat="49.15762" lon="6.8656">
        <ele>279.1</ele>
        <time>2013-05-29T06:47:02Z</time>
      </trkpt>
      <trkpt lat="49.15755" lon="6.86562">
        <ele>279.2</ele>
        <time>2013-05-29T06:47:07Z</time>
      </trkpt>
      <trkpt lat="49.15749" lon="6.86564">
        <ele>279.6</ele>
        <time>2013-05-29T06:47:12Z</time>
      </trkpt>
      <trkpt lat="49.15742" lon="6.86565">
        <ele>279.3</ele>
        <time>2013-05-29T06:47:17Z</time>
      </trkpt>
      <trkpt lat="49.15736" lon="6.86567">
        <ele>279.9</ele>
        <time>2013-05-29T06:47:22Z</time>
      </trkpt>
      <trkpt lat="49.1573" lon="6.86569">
        <ele>280.3</ele>
        <time>2013-05-29T06:47:27Z</time>
      </trkpt>
      <trkpt lat="49.15723" lon="6.86571">
        <ele>280.7</ele>
        <time>2013-05-29T06:47:32Z</time>
      </trkpt>
      <trkpt lat="49.15717" lon="6.86572">
        <ele>281.7</ele>
        <time>2013-05-29T06:47:37Z</time>
      </trkpt>
      <trkpt lat="49.15711" lon="6.86574">
        <ele>280.9</ele>
        <time>2013-05-29T06:47:42Z</time>
      </trkpt>
      <trkpt lat="49.15705" lon="6.86576">
        <ele>281.2</ele>
        <time>2013-05-29T06:47:47Z</time>
      </trkpt>
      <trkpt lat="49.15704" lon="6.86576">
        <ele>281.2</ele>
        <time>2013-05-29T06:47:48Z</time>
      </trkpt>
      <trkpt lat="49.15693" lon="6.8658">
        <ele>282</ele>
        <time>2013-05-29T06:47:57Z</time>
      </trkpt>
      <trkpt lat="49.15687" lon="6.86581">
        <ele>282.4</ele>
        <time>2013-05-29T06:48:02Z</time>
      </trkpt>
      <trkpt lat="49.15681" lon="6.86583">
        <ele>283.1</ele>
        <time>2013-05-29T06:48:07Z</time>
      </trkpt>
      <trkpt lat="49.15675" lon="6.86585">
        <ele>284</ele>
        <time>2013-05-29T06:48:12Z</time>
      </trkpt>
      <trkpt lat="49.15669" lon="6.86587">
        <ele>283.9</ele>
        <time>2013-05-29T06:48:17Z</time>
      </trkpt>
      <trkpt lat="49.15663" lon="6.86589">
        <ele>284</ele>
        <time>2013-05-29T06:48:22Z</time>
      </trkpt>
      <trkpt lat="49.15657" lon="6.86591">
        <ele>284.4</ele>
        <time>2013-05-29T06:48:27Z</time>
      </trkpt>
      <trkpt lat="49.15652" lon="6.86594">
        <ele>285</ele>
        <time>2013-05-29T06:48:32Z</time>
      </trkpt>
      <trkpt lat="49.15646" lon="6.86597">
        <ele>285.7</ele>
        <time>2013-05-29T06:48:37Z</time>
      </trkpt>
      <trkpt lat="49.1564" lon="6.86599">
        <ele>286</ele>
        <time>2013-05-29T06:48:42Z</time>
      </trkpt>
      <trkpt lat="49.15634" lon="6.866">
        <ele>287</ele>
        <time>2013-05-29T06:48:47Z</time>
      </trkpt>
      <trkpt lat="49.15627" lon="6.86601">
        <ele>287.4</ele>
        <time>2013-05-29T06:48:52Z</time>
      </trkpt>
      <trkpt lat="49.15626" lon="6.86601">
        <ele>287.4</ele>
        <time>2013-05-29T06:48:53Z</time>
      </trkpt>
      <trkpt lat="49.15615" lon="6.86601">
        <ele>289.2</ele>
        <time>2013-05-29T06:49:02Z</time>
      </trkpt>
      <trkpt lat="49.15609" lon="6.86601">
        <ele>289.5</ele>
        <time>2013-05-29T06:49:07Z</time>
      </trkpt>
      <trkpt lat="49.15603" lon="6.866">
        <ele>290.4</ele>
        <time>2013-05-29T06:49:12Z</time>
      </trkpt>
      <trkpt lat="49.15597" lon="6.866">
        <ele>290.6</ele>
        <time>2013-05-29T06:49:17Z</time>
      </trkpt>
      <trkpt lat="49.15591" lon="6.86599">
        <ele>290.8</ele>
        <time>2013-05-29T06:49:22Z</time>
      </trkpt>
      <trkpt lat="49.15586" lon="6.86598">
        <ele>291.7</ele>
        <time>2013-05-29T06:49:27Z</time>
      </trkpt>
      <trkpt lat="49.1558" lon="6.86596">
        <ele>292.7</ele>
        <time>2013-05-29T06:49:32Z</time>
      </trkpt>
      <trkpt lat="49.15574" lon="6.86595">
        <ele>293.1</ele>
        <time>2013-05-29T06:49:37Z</time>
      </trkpt>
      <trkpt lat="49.15569" lon="6.86594">
        <ele>294.2</ele>
        <time>2013-05-29T06:49:42Z</time>
      </trkpt>
      <trkpt lat="49.15563" lon="6.86593">
        <ele>295.2</ele>
        <time>2013-05-29T06:49:47Z</time>
      </trkpt>
      <trkpt lat="49.15558" lon="6.86591">
        <ele>295</ele>
        <time>2013-05-29T06:49:52Z</time>
      </trkpt>
      <trkpt lat="49.15552" lon="6.86588">
        <ele>296</ele>
        <time>2013-05-29T06:49:57Z</time>
      </trkpt>
      <trkpt lat="49.15551" lon="6.86588">
        <ele>295.7</ele>
        <time>2013-05-29T06:49:58Z</time>
      </trkpt>
      <trkpt lat="49.15541" lon="6.86583">
        <ele>296.1</ele>
        <time>2013-05-29T06:50:07Z</time>
      </trkpt>
      <trkpt lat="49.15535" lon="6.8658">
        <ele>296.4</ele>
        <time>2013-05-29T06:50:12Z</time>
      </trkpt>
      <trkpt lat="49.1553" lon="6.86577">
        <ele>297.7</ele>
        <time>2013-05-29T06:50:17Z</time>
      </trkpt>
      <trkpt lat="49.15524" lon="6.86573">
        <ele>298.6</ele>
        <time>2013-05-29T06:50:22Z</time>
      </trkpt>
      <trkpt lat="49.1552" lon="6.8657">
        <ele>300.1</ele>
        <time>2013-05-29T06:50:27Z</time>
      </trkpt>
      <trkpt lat="49.15515" lon="6.86566">
        <ele>299.9</ele>
        <time>2013-05-29T06:50:32Z</time>
      </trkpt>
      <trkpt lat="49.1551" lon="6.86562">
        <ele>299.9</ele>
        <time>2013-05-29T06:50:37Z</time>
      </trkpt>
      <trkpt lat="49.15506" lon="6.86558">
        <ele>300.6</ele>
        <time>2013-05-29T06:50:42Z</time>
      </trkpt>
      <trkpt lat="49.15501" lon="6.86555">
        <ele>301</ele>
        <time>2013-05-29T06:50:47Z</time>
      </trkpt>
      <trkpt lat="49.15497" lon="6.86551">
        <ele>301.9</ele>
        <time>2013-05-29T06:50:52Z</time>
      </trkpt>
      <trkpt lat="49.15491" lon="6.86546">
        <ele>302.8</ele>
        <time>2013-05-29T06:50:57Z</time>
      </trkpt>
      <trkpt lat="49.15485" lon="6.86541">
        <ele>303.3</ele>
        <time>2013-05-29T06:51:02Z</time>
      </trkpt>
      <trkpt lat="49.15484" lon="6.86541">
        <ele>303.3</ele>
        <time>2013-05-29T06:51:03Z</time>
      </trkpt>
      <trkpt lat="49.15474" lon="6.86533">
        <ele>306.1</ele>
        <time>2013-05-29T06:51:12Z</time>
      </trkpt>
      <trkpt lat="49.15469" lon="6.8653">
        <ele>306.9</ele>
        <time>2013-05-29T06:51:17Z</time>
      </trkpt>
      <trkpt lat="49.15464" lon="6.86526">
        <ele>308</ele>
        <time>2013-05-29T06:51:22Z</time>
      </trkpt>
      <trkpt lat="49.15458" lon="6.86523">
        <ele>309.2</ele>
        <time>2013-05-29T06:51:27Z</time>
      </trkpt>
      <trkpt lat="49.15454" lon="6.8652">
        <ele>310.2</ele>
        <time>2013-05-29T06:51:32Z</time>
      </trkpt>
      <trkpt lat="49.15448" lon="6.86518">
        <ele>310.1</ele>
        <time>2013-05-29T06:51:37Z</time>
      </trkpt>
      <trkpt lat="49.15442" lon="6.86518">
        <ele>311.6</ele>
        <time>2013-05-29T06:51:42Z</time>
      </trkpt>
      <trkpt lat="49.15436" lon="6.86518">
        <ele>312.6</ele>
        <time>2013-05-29T06:51:47Z</time>
      </trkpt>
      <trkpt lat="49.15431" lon="6.86518">
        <ele>313.8</ele>
        <time>2013-05-29T06:51:52Z</time>
      </trkpt>
      <trkpt lat="49.15425" lon="6.86518">
        <ele>314.2</ele>
        <time>2013-05-29T06:51:57Z</time>
      </trkpt>
      <trkpt lat="49.15419" lon="6.86519">
        <ele>315.1</ele>
        <time>2013-05-29T06:52:02Z</time>
      </trkpt>
      <trkpt lat="49.15414" lon="6.86519">
        <ele>315.7</ele>
        <time>2013-05-29T06:52:07Z</time>
      </trkpt>
      <trkpt lat="49.15413" lon="6.86519">
        <ele>315.6</ele>
        <time>2013-05-29T06:52:08Z</time>
      </trkpt>
      <trkpt lat="49.15406" lon="6.86523">
        <ele>316.7</ele>
        <time>2013-05-29T06:52:17Z</time>
      </trkpt>
      <trkpt lat="49.15401" lon="6.86524">
        <ele>317</ele>
        <time>2013-05-29T06:52:22Z</time>
      </trkpt>
      <trkpt lat="49.15396" lon="6.86525">
        <ele>318</ele>
        <time>2013-05-29T06:52:27Z</time>
      </trkpt>
      <trkpt lat="49.15393" lon="6.86527">
        <ele>318.7</ele>
        <time>2013-05-29T06:52:32Z</time>
      </trkpt>
      <trkpt lat="49.15392" lon="6.86527">
        <ele>319</ele>
        <time>2013-05-29T06:52:37Z</time>
      </trkpt>
      <trkpt lat="49.15391" lon="6.86527">
        <ele>318.4</ele>
        <time>2013-05-29T06:52:42Z</time>
      </trkpt>
      <trkpt lat="49.15391" lon="6.86529">
        <ele>318.8</ele>
        <time>2013-05-29T06:52:47Z</time>
      </trkpt>
      <trkpt lat="49.15388" lon="6.86534">
        <ele>318.4</ele>
        <time>2013-05-29T06:52:52Z</time>
      </trkpt>
      <trkpt lat="49.15387" lon="6.86537">
        <ele>318.5</ele>
        <time>2013-05-29T06:52:57Z</time>
      </trkpt>
      <trkpt lat="49.15386" lon="6.86541">
        <ele>318.1</ele>
        <time>2013-05-29T06:53:02Z</time>
      </trkpt>
      <trkpt lat="49.15383" lon="6.86548">
        <ele>319.2</ele>
        <time>2013-05-29T06:53:07Z</time>
      </trkpt>
      <trkpt lat="49.1538" lon="6.86555">
        <ele>319.1</ele>
        <time>2013-05-29T06:53:12Z</time>
      </trkpt>
      <trkpt lat="49.1538" lon="6.86557">
        <ele>319.1</ele>
        <time>2013-05-29T06:53:13Z</time>
      </trkpt>
      <trkpt lat="49.15373" lon="6.86571">
        <ele>319.6</ele>
        <time>2013-05-29T06:53:22Z</time>
      </trkpt>
      <trkpt lat="49.1537" lon="6.86578">
        <ele>319.7</ele>
        <time>2013-05-29T06:53:27Z</time>
      </trkpt>
      <trkpt lat="49.15367" lon="6.86585">
        <ele>319.5</ele>
        <time>2013-05-29T06:53:32Z</time>
      </trkpt>
      <trkpt lat="49.15364" lon="6.86592">
        <ele>320.3</ele>
        <time>2013-05-29T06:53:37Z</time>
      </trkpt>
      <trkpt lat="49.1536" lon="6.86599">
        <ele>320.8</ele>
        <time>2013-05-29T06:53:42Z</time>
      </trkpt>
      <trkpt lat="49.15357" lon="6.86605">
        <ele>320.2</ele>
        <time>2013-05-29T06:53:47Z</time>
      </trkpt>
      <trkpt lat="49.15353" lon="6.86613">
        <ele>319.7</ele>
        <time>2013-05-29T06:53:52Z</time>
      </trkpt>
      <trkpt lat="49.15349" lon="6.8662">
        <ele>320.5</ele>
        <time>2013-05-29T06:53:57Z</time>
      </trkpt>
      <trkpt lat="49.15345" lon="6.86628">
        <ele>319.8</ele>
        <time>2013-05-29T06:54:02Z</time>
      </trkpt>
      <trkpt lat="49.15341" lon="6.86635">
        <ele>319.8</ele>
        <time>2013-05-29T06:54:07Z</time>
      </trkpt>
      <trkpt lat="49.15337" lon="6.86642">
        <ele>320.3</ele>
        <time>2013-05-29T06:54:12Z</time>
      </trkpt>
      <trkpt lat="49.15333" lon="6.86649">
        <ele>320.1</ele>
        <time>2013-05-29T06:54:17Z</time>
      </trkpt>
      <trkpt lat="49.15332" lon="6.86651">
        <ele>320</ele>
        <time>2013-05-29T06:54:18Z</time>
      </trkpt>
      <trkpt lat="49.15324" lon="6.86663">
        <ele>321</ele>
        <time>2013-05-29T06:54:27Z</time>
      </trkpt>
      <trkpt lat="49.1532" lon="6.86669">
        <ele>320.8</ele>
        <time>2013-05-29T06:54:32Z</time>
      </trkpt>
      <trkpt lat="49.15316" lon="6.86675">
        <ele>322.2</ele>
        <time>2013-05-29T06:54:37Z</time>
      </trkpt>
      <trkpt lat="49.15313" lon="6.86681">
        <ele>322.8</ele>
        <time>2013-05-29T06:54:42Z</time>
      </trkpt>
      <trkpt lat="49.15312" lon="6.86681">
        <ele>322.5</ele>
        <time>2013-05-29T06:54:47Z</time>
      </trkpt>
      <trkpt lat="49.15312" lon="6.86682">
        <ele>322.8</ele>
        <time>2013-05-29T06:54:52Z</time>
      </trkpt>
      <trkpt lat="49.15312" lon="6.86683">
        <ele>323</ele>
        <time>2013-05-29T06:54:57Z</time>
      </trkpt>
      <trkpt lat="49.15312" lon="6.86684">
        <ele>322.5</ele>
        <time>2013-05-29T06:55:02Z</time>
      </trkpt>
      <trkpt lat="49.15313" lon="6.86684">
        <ele>321.9</ele>
        <time>2013-05-29T06:55:07Z</time>
      </trkpt>
      <trkpt lat="49.15312" lon="6.86686">
        <ele>323.7</ele>
        <time>2013-05-29T06:55:12Z</time>
      </trkpt>
      <trkpt lat="49.15309" lon="6.86691">
        <ele>322.5</ele>
        <time>2013-05-29T06:55:17Z</time>
      </trkpt>
      <trkpt lat="49.15306" lon="6.86697">
        <ele>323.9</ele>
        <time>2013-05-29T06:55:22Z</time>
      </trkpt>
      <trkpt lat="49.15305" lon="6.86698">
        <ele>324.2</ele>
        <time>2013-05-29T06:55:23Z</time>
      </trkpt>
      <trkpt lat="49.15299" lon="6.8671">
        <ele>324.8</ele>
        <time>2013-05-29T06:55:32Z</time>
      </trkpt>
      <trkpt lat="49.15296" lon="6.86716">
        <ele>325.3</ele>
        <time>2013-05-29T06:55:37Z</time>
      </trkpt>
      <trkpt lat="49.15294" lon="6.86723">
        <ele>326.4</ele>
        <time>2013-05-29T06:55:42Z</time>
      </trkpt>
      <trkpt lat="49.15293" lon="6.8673">
        <ele>326.5</ele>
        <time>2013-05-29T06:55:47Z</time>
      </trkpt>
      <trkpt lat="49.15291" lon="6.86737">
        <ele>327.5</ele>
        <time>2013-05-29T06:55:52Z</time>
      </trkpt>
      <trkpt lat="49.15289" lon="6.86745">
        <ele>328.6</ele>
        <time>2013-05-29T06:55:57Z</time>
      </trkpt>
      <trkpt lat="49.15286" lon="6.86754">
        <ele>328.8</ele>
        <time>2013-05-29T06:56:02Z</time>
      </trkpt>
      <trkpt lat="49.15283" lon="6.86763">
        <ele>329.8</ele>
        <time>2013-05-29T06:56:07Z</time>
      </trkpt>
      <trkpt lat="49.15279" lon="6.86772">
        <ele>330.2</ele>
        <time>2013-05-29T06:56:12Z</time>
      </trkpt>
      <trkpt lat="49.15275" lon="6.86781">
        <ele>331.5</ele>
        <time>2013-05-29T06:56:17Z</time>
      </trkpt>
      <trkpt lat="49.15271" lon="6.86789">
        <ele>331.3</ele>
        <time>2013-05-29T06:56:22Z</time>
      </trkpt>
      <trkpt lat="49.15266" lon="6.86797">
        <ele>332.1</ele>
        <time>2013-05-29T06:56:27Z</time>
      </trkpt>
      <trkpt lat="49.15265" lon="6.86799">
        <ele>332.4</ele>
        <time>2013-05-29T06:56:28Z</time>
      </trkpt>
      <trkpt lat="49.15258" lon="6.86812">
        <ele>332.8</ele>
        <time>2013-05-29T06:56:37Z</time>
      </trkpt>
      <trkpt lat="49.15254" lon="6.8682">
        <ele>333</ele>
        <time>2013-05-29T06:56:42Z</time>
      </trkpt>
      <trkpt lat="49.15248" lon="6.86828">
        <ele>333.5</ele>
        <time>2013-05-29T06:56:47Z</time>
      </trkpt>
      <trkpt lat="49.15243" lon="6.86836">
        <ele>333.6</ele>
        <time>2013-05-29T06:56:52Z</time>
      </trkpt>
      <trkpt lat="49.15237" lon="6.86845">
        <ele>333.7</ele>
        <time>2013-05-29T06:56:57Z</time>
      </trkpt>
      <trkpt lat="49.15232" lon="6.86854">
        <ele>335</ele>
        <time>2013-05-29T06:57:02Z</time>
      </trkpt>
      <trkpt lat="49.15227" lon="6.86862">
        <ele>334.5</ele>
        <time>2013-05-29T06:57:07Z</time>
      </trkpt>
      <trkpt lat="49.15223" lon="6.86868">
        <ele>335.7</ele>
        <time>2013-05-29T06:57:12Z</time>
      </trkpt>
      <trkpt lat="49.15219" lon="6.86874">
        <ele>335.4</ele>
        <time>2013-05-29T06:57:17Z</time>
      </trkpt>
      <trkpt lat="49.15214" lon="6.86882">
        <ele>336.5</ele>
        <time>2013-05-29T06:57:22Z</time>
      </trkpt>
      <trkpt lat="49.15209" lon="6.86889">
        <ele>336</ele>
        <time>2013-05-29T06:57:27Z</time>
      </trkpt>
      <trkpt lat="49.15203" lon="6.86896">
        <ele>336.6</ele>
        <time>2013-05-29T06:57:32Z</time>
      </trkpt>
      <trkpt lat="49.15202" lon="6.86898">
        <ele>336.8</ele>
        <time>2013-05-29T06:57:33Z</time>
      </trkpt>
      <trkpt lat="49.15193" lon="6.86911">
        <ele>336.9</ele>
        <time>2013-05-29T06:57:42Z</time>
      </trkpt>
      <trkpt lat="49.15188" lon="6.86918">
        <ele>337.5</ele>
        <time>2013-05-29T06:57:47Z</time>
      </trkpt>
      <trkpt lat="49.15183" lon="6.86925">
        <ele>337.5</ele>
        <time>2013-05-29T06:57:52Z</time>
      </trkpt>
      <trkpt lat="49.15179" lon="6.86932">
        <ele>337.9</ele>
        <time>2013-05-29T06:57:57Z</time>
      </trkpt>
      <trkpt lat="49.15174" lon="6.8694">
        <ele>337.9</ele>
        <time>2013-05-29T06:58:02Z</time>
      </trkpt>
      <trkpt lat="49.15171" lon="6.86947">
        <ele>338.1</ele>
        <time>2013-05-29T06:58:07Z</time>
      </trkpt>
      <trkpt lat="49.15167" lon="6.86953">
        <ele>338.2</ele>
        <time>2013-05-29T06:58:12Z</time>
      </trkpt>
      <trkpt lat="49.15165" lon="6.86958">
        <ele>338.7</ele>
        <time>2013-05-29T06:58:17Z</time>
      </trkpt>
      <trkpt lat="49.15165" lon="6.86959">
        <ele>339</ele>
        <time>2013-05-29T06:58:22Z</time>
      </trkpt>
      <trkpt lat="49.15164" lon="6.86958">
        <ele>338.9</ele>
        <time>2013-05-29T06:58:27Z</time>
      </trkpt>
      <trkpt lat="49.15162" lon="6.86957">
        <ele>338.2</ele>
        <time>2013-05-29T06:58:32Z</time>
      </trkpt>
      <trkpt lat="49.15161" lon="6.86955">
        <ele>338.9</ele>
        <time>2013-05-29T06:58:37Z</time>
      </trkpt>
      <trkpt lat="49.15161" lon="6.86955">
        <ele>339</ele>
        <time>2013-05-29T06:58:38Z</time>
      </trkpt>
      <trkpt lat="49.15158" lon="6.8696">
        <ele>339.1</ele>
        <time>2013-05-29T06:58:47Z</time>
      </trkpt>
      <trkpt lat="49.15158" lon="6.86961">
        <ele>339.2</ele>
        <time>2013-05-29T06:58:52Z</time>
      </trkpt>
      <trkpt lat="49.15158" lon="6.86961">
        <ele>339</ele>
        <time>2013-05-29T06:58:57Z</time>
      </trkpt>
      <trkpt lat="49.15157" lon="6.8696">
        <ele>338.6</ele>
        <time>2013-05-29T06:59:02Z</time>
      </trkpt>
      <trkpt lat="49.15158" lon="6.86961">
        <ele>339</ele>
        <time>2013-05-29T06:59:07Z</time>
      </trkpt>
      <trkpt lat="49.15157" lon="6.86959">
        <ele>338.7</ele>
        <time>2013-05-29T06:59:12Z</time>
      </trkpt>
      <trkpt lat="49.15153" lon="6.86954">
        <ele>338.9</ele>
        <time>2013-05-29T06:59:17Z</time>
      </trkpt>
      <trkpt lat="49.15147" lon="6.86953">
        <ele>339.6</ele>
        <time>2013-05-29T06:59:22Z</time>
      </trkpt>
      <trkpt lat="49.15143" lon="6.86957">
        <ele>340.6</ele>
        <time>2013-05-29T06:59:27Z</time>
      </trkpt>
      <trkpt lat="49.15138" lon="6.86962">
        <ele>341</ele>
        <time>2013-05-29T06:59:32Z</time>
      </trkpt>
      <trkpt lat="49.15135" lon="6.86968">
        <ele>341.5</ele>
        <time>2013-05-29T06:59:37Z</time>
      </trkpt>
      <trkpt lat="49.15131" lon="6.86972">
        <ele>342</ele>
        <time>2013-05-29T06:59:42Z</time>
      </trkpt>
      <trkpt lat="49.15131" lon="6.86973">
        <ele>341.9</ele>
        <time>2013-05-29T06:59:43Z</time>
      </trkpt>
      <trkpt lat="49.15124" lon="6.86981">
        <ele>342.3</ele>
        <time>2013-05-29T06:59:52Z</time>
      </trkpt>
      <trkpt lat="49.15121" lon="6.86985">
        <ele>342.8</ele>
        <time>2013-05-29T06:59:57Z</time>
      </trkpt>
      <trkpt lat="49.15116" lon="6.86989">
        <ele>341.9</ele>
        <time>2013-05-29T07:00:02Z</time>
      </trkpt>
      <trkpt lat="49.15111" lon="6.86994">
        <ele>342.3</ele>
        <time>2013-05-29T07:00:07Z</time>
      </trkpt>
      <trkpt lat="49.15105" lon="6.87">
        <ele>342.2</ele>
        <time>2013-05-29T07:00:12Z</time>
      </trkpt>
      <trkpt lat="49.15099" lon="6.87005">
        <ele>342.2</ele>
        <time>2013-05-29T07:00:17Z</time>
      </trkpt>
      <trkpt lat="49.15093" lon="6.87011">
        <ele>342.1</ele>
        <time>2013-05-29T07:00:22Z</time>
      </trkpt>
      <trkpt lat="49.15088" lon="6.8702">
        <ele>341.8</ele>
        <time>2013-05-29T07:00:27Z</time>
      </trkpt>
      <trkpt lat="49.15084" lon="6.87025">
        <ele>341.4</ele>
        <time>2013-05-29T07:00:32Z</time>
      </trkpt>
      <trkpt lat="49.15079" lon="6.87031">
        <ele>341.3</ele>
        <time>2013-05-29T07:00:37Z</time>
      </trkpt>
      <trkpt lat="49.15074" lon="6.87036">
        <ele>341.5</ele>
        <time>2013-05-29T07:00:42Z</time>
      </trkpt>
      <trkpt lat="49.15069" lon="6.87041">
        <ele>342</ele>
        <time>2013-05-29T07:00:47Z</time>
      </trkpt>
      <trkpt lat="49.15067" lon="6.87042">
        <ele>342</ele>
        <time>2013-05-29T07:00:48Z</time>
      </trkpt>
      <trkpt lat="49.15058" lon="6.87052">
        <ele>340.9</ele>
        <time>2013-05-29T07:00:57Z</time>
      </trkpt>
      <trkpt lat="49.15053" lon="6.87058">
        <ele>341.4</ele>
        <time>2013-05-29T07:01:02Z</time>
      </trkpt>
      <trkpt lat="49.15049" lon="6.87063">
        <ele>341.4</ele>
        <time>2013-05-29T07:01:07Z</time>
      </trkpt>
      <trkpt lat="49.15044" lon="6.87068">
        <ele>341.1</ele>
        <time>2013-05-29T07:01:12Z</time>
      </trkpt>
      <trkpt lat="49.15039" lon="6.87073">
        <ele>341.1</ele>
        <time>2013-05-29T07:01:17Z</time>
      </trkpt>
      <trkpt lat="49.15033" lon="6.87077">
        <ele>340.1</ele>
        <time>2013-05-29T07:01:22Z</time>
      </trkpt>
      <trkpt lat="49.15028" lon="6.87083">
        <ele>340.2</ele>
        <time>2013-05-29T07:01:27Z</time>
      </trkpt>
      <trkpt lat="49.15022" lon="6.87088">
        <ele>339.4</ele>
        <time>2013-05-29T07:01:32Z</time>
      </trkpt>
      <trkpt lat="49.15017" lon="6.87094">
        <ele>338.9</ele>
        <time>2013-05-29T07:01:37Z</time>
      </trkpt>
      <trkpt lat="49.15012" lon="6.871">
        <ele>338.2</ele>
        <time>2013-05-29T07:01:42Z</time>
      </trkpt>
      <trkpt lat="49.15007" lon="6.87103">
        <ele>338.4</ele>
        <time>2013-05-29T07:01:47Z</time>
      </trkpt>
      <trkpt lat="49.15003" lon="6.8711">
        <ele>338.5</ele>
        <time>2013-05-29T07:01:52Z</time>
      </trkpt>
      <trkpt lat="49.15002" lon="6.87112">
        <ele>338.4</ele>
        <time>2013-05-29T07:01:53Z</time>
      </trkpt>
      <trkpt lat="49.14994" lon="6.87123">
        <ele>337.7</ele>
        <time>2013-05-29T07:02:02Z</time>
      </trkpt>
      <trkpt lat="49.1499" lon="6.87127">
        <ele>337.9</ele>
        <time>2013-05-29T07:02:07Z</time>
      </trkpt>
      <trkpt lat="49.14985" lon="6.87132">
        <ele>337.5</ele>
        <time>2013-05-29T07:02:12Z</time>
      </trkpt>
      <trkpt lat="49.14981" lon="6.87137">
        <ele>337.7</ele>
        <time>2013-05-29T07:02:17Z</time>
      </trkpt>
      <trkpt lat="49.14976" lon="6.87142">
        <ele>337.1</ele>
        <time>2013-05-29T07:02:22Z</time>
      </trkpt>
      <trkpt lat="49.14972" lon="6.87146">
        <ele>336.7</ele>
        <time>2013-05-29T07:02:27Z</time>
      </trkpt>
      <trkpt lat="49.14966" lon="6.87151">
        <ele>335.7</ele>
        <time>2013-05-29T07:02:32Z</time>
      </trkpt>
      <trkpt lat="49.14961" lon="6.87156">
        <ele>335.5</ele>
        <time>2013-05-29T07:02:37Z</time>
      </trkpt>
      <trkpt lat="49.14957" lon="6.87161">
        <ele>335.4</ele>
        <time>2013-05-29T07:02:42Z</time>
      </trkpt>
      <trkpt lat="49.14952" lon="6.87167">
        <ele>334.6</ele>
        <time>2013-05-29T07:02:47Z</time>
      </trkpt>
      <trkpt lat="49.14946" lon="6.87172">
        <ele>333.9</ele>
        <time>2013-05-29T07:02:52Z</time>
      </trkpt>
      <trkpt lat="49.14942" lon="6.87177">
        <ele>333.2</ele>
        <time>2013-05-29T07:02:57Z</time>
      </trkpt>
      <trkpt lat="49.1494" lon="6.87179">
        <ele>333.1</ele>
        <time>2013-05-29T07:02:58Z</time>
      </trkpt>
      <trkpt lat="49.14932" lon="6.87188">
        <ele>332.7</ele>
        <time>2013-05-29T07:03:07Z</time>
      </trkpt>
      <trkpt lat="49.14927" lon="6.87194">
        <ele>332.2</ele>
        <time>2013-05-29T07:03:12Z</time>
      </trkpt>
      <trkpt lat="49.14923" lon="6.872">
        <ele>332.1</ele>
        <time>2013-05-29T07:03:17Z</time>
      </trkpt>
      <trkpt lat="49.14919" lon="6.87206">
        <ele>331.9</ele>
        <time>2013-05-29T07:03:22Z</time>
      </trkpt>
      <trkpt lat="49.14917" lon="6.87211">
        <ele>331.3</ele>
        <time>2013-05-29T07:03:27Z</time>
      </trkpt>
      <trkpt lat="49.14916" lon="6.87212">
        <ele>331.3</ele>
        <time>2013-05-29T07:03:32Z</time>
      </trkpt>
      <trkpt lat="49.14915" lon="6.87213">
        <ele>331.7</ele>
        <time>2013-05-29T07:03:37Z</time>
      </trkpt>
      <trkpt lat="49.14914" lon="6.87214">
        <ele>331.4</ele>
        <time>2013-05-29T07:03:42Z</time>
      </trkpt>
      <trkpt lat="49.14913" lon="6.87216">
        <ele>331.8</ele>
        <time>2013-05-29T07:03:47Z</time>
      </trkpt>
      <trkpt lat="49.14913" lon="6.87223">
        <ele>331.9</ele>
        <time>2013-05-29T07:03:52Z</time>
      </trkpt>
      <trkpt lat="49.14914" lon="6.87228">
        <ele>331.3</ele>
        <time>2013-05-29T07:03:57Z</time>
      </trkpt>
      <trkpt lat="49.14913" lon="6.87234">
        <ele>331.4</ele>
        <time>2013-05-29T07:04:02Z</time>
      </trkpt>
      <trkpt lat="49.14913" lon="6.87236">
        <ele>331.3</ele>
        <time>2013-05-29T07:04:03Z</time>
      </trkpt>
      <trkpt lat="49.14913" lon="6.87249">
        <ele>331.8</ele>
        <time>2013-05-29T07:04:12Z</time>
      </trkpt>
      <trkpt lat="49.14916" lon="6.87254">
        <ele>331.6</ele>
        <time>2013-05-29T07:04:17Z</time>
      </trkpt>
      <trkpt lat="49.14919" lon="6.8726">
        <ele>332.1</ele>
        <time>2013-05-29T07:04:22Z</time>
      </trkpt>
      <trkpt lat="49.14922" lon="6.87266">
        <ele>332.3</ele>
        <time>2013-05-29T07:04:27Z</time>
      </trkpt>
      <trkpt lat="49.14925" lon="6.87272">
        <ele>332.3</ele>
        <time>2013-05-29T07:04:32Z</time>
      </trkpt>
      <trkpt lat="49.1493" lon="6.87278">
        <ele>332</ele>
        <time>2013-05-29T07:04:37Z</time>
      </trkpt>
      <trkpt lat="49.14933" lon="6.87284">
        <ele>331.8</ele>
        <time>2013-05-29T07:04:42Z</time>
      </trkpt>
      <trkpt lat="49.14937" lon="6.87291">
        <ele>332.1</ele>
        <time>2013-05-29T07:04:47Z</time>
      </trkpt>
      <trkpt lat="49.1494" lon="6.87299">
        <ele>332.4</ele>
        <time>2013-05-29T07:04:52Z</time>
      </trkpt>
      <trkpt lat="49.14943" lon="6.87307">
        <ele>333.3</ele>
        <time>2013-05-29T07:04:57Z</time>
      </trkpt>
      <trkpt lat="49.14947" lon="6.87313">
        <ele>333.4</ele>
        <time>2013-05-29T07:05:02Z</time>
      </trkpt>
      <trkpt lat="49.14951" lon="6.8732">
        <ele>333.1</ele>
        <time>2013-05-29T07:05:07Z</time>
      </trkpt>
      <trkpt lat="49.14952" lon="6.87322">
        <ele>333.1</ele>
        <time>2013-05-29T07:05:08Z</time>
      </trkpt>
      <trkpt lat="49.14958" lon="6.87336">
        <ele>333.2</ele>
        <time>2013-05-29T07:05:17Z</time>
      </trkpt>
      <trkpt lat="49.1496" lon="6.87342">
        <ele>333.5</ele>
        <time>2013-05-29T07:05:22Z</time>
      </trkpt>
      <trkpt lat="49.14964" lon="6.87351">
        <ele>333.8</ele>
        <time>2013-05-29T07:05:27Z</time>
      </trkpt>
      <trkpt lat="49.14968" lon="6.8736">
        <ele>333.5</ele>
        <time>2013-05-29T07:05:32Z</time>
      </trkpt>
      <trkpt lat="49.14972" lon="6.87367">
        <ele>334.1</ele>
        <time>2013-05-29T07:05:37Z</time>
      </trkpt>
      <trkpt lat="49.14975" lon="6.87373">
        <ele>334.4</ele>
        <time>2013-05-29T07:05:42Z</time>
      </trkpt>
      <trkpt lat="49.14978" lon="6.87381">
        <ele>334.4</ele>
        <time>2013-05-29T07:05:47Z</time>
      </trkpt>
      <trkpt lat="49.14982" lon="6.8739">
        <ele>333.8</ele>
        <time>2013-05-29T07:05:52Z</time>
      </trkpt>
      <trkpt lat="49.14984" lon="6.87399">
        <ele>334.3</ele>
        <time>2013-05-29T07:05:57Z</time>
      </trkpt>
      <trkpt lat="49.14988" lon="6.87407">
        <ele>335</ele>
        <time>2013-05-29T07:06:02Z</time>
      </trkpt>
      <trkpt lat="49.1499" lon="6.87416">
        <ele>334.6</ele>
        <time>2013-05-29T07:06:07Z</time>
      </trkpt>
      <trkpt lat="49.14994" lon="6.87425">
        <ele>334.1</ele>
        <time>2013-05-29T07:06:12Z</time>
      </trkpt>
      <trkpt lat="49.14995" lon="6.87427">
        <ele>333.8</ele>
        <time>2013-05-29T07:06:13Z</time>
      </trkpt>
      <trkpt lat="49.15004" lon="6.87441">
        <ele>333.7</ele>
        <time>2013-05-29T07:06:22Z</time>
      </trkpt>
      <trkpt lat="49.15008" lon="6.87449">
        <ele>334.5</ele>
        <time>2013-05-29T07:06:27Z</time>
      </trkpt>
      <trkpt lat="49.15012" lon="6.87458">
        <ele>333.4</ele>
        <time>2013-05-29T07:06:32Z</time>
      </trkpt>
      <trkpt lat="49.15015" lon="6.87466">
        <ele>332.6</ele>
        <time>2013-05-29T07:06:37Z</time>
      </trkpt>
      <trkpt lat="49.15019" lon="6.87472">
        <ele>333.1</ele>
        <time>2013-05-29T07:06:42Z</time>
      </trkpt>
      <trkpt lat="49.15022" lon="6.87478">
        <ele>333.4</ele>
        <time>2013-05-29T07:06:47Z</time>
      </trkpt>
      <trkpt lat="49.15024" lon="6.87484">
        <ele>333.1</ele>
        <time>2013-05-29T07:06:52Z</time>
      </trkpt>
      <trkpt lat="49.15024" lon="6.87489">
        <ele>333.5</ele>
        <time>2013-05-29T07:06:57Z</time>
      </trkpt>
      <trkpt lat="49.15025" lon="6.87498">
        <ele>333.3</ele>
        <time>2013-05-29T07:07:02Z</time>
      </trkpt>
      <trkpt lat="49.15025" lon="6.87505">
        <ele>333</ele>
        <time>2013-05-29T07:07:07Z</time>
      </trkpt>
      <trkpt lat="49.15025" lon="6.87511">
        <ele>332.7</ele>
        <time>2013-05-29T07:07:12Z</time>
      </trkpt>
      <trkpt lat="49.15025" lon="6.87518">
        <ele>332.6</ele>
        <time>2013-05-29T07:07:17Z</time>
      </trkpt>
      <trkpt lat="49.15025" lon="6.8752">
        <ele>332.6</ele>
        <time>2013-05-29T07:07:18Z</time>
      </trkpt>
      <trkpt lat="49.15023" lon="6.87533">
        <ele>332.3</ele>
        <time>2013-05-29T07:07:27Z</time>
      </trkpt>
      <trkpt lat="49.1502" lon="6.8754">
        <ele>332.5</ele>
        <time>2013-05-29T07:07:32Z</time>
      </trkpt>
      <trkpt lat="49.15018" lon="6.87548">
        <ele>332.6</ele>
        <time>2013-05-29T07:07:37Z</time>
      </trkpt>
      <trkpt lat="49.15015" lon="6.87557">
        <ele>332.5</ele>
        <time>2013-05-29T07:07:42Z</time>
      </trkpt>
      <trkpt lat="49.15011" lon="6.87567">
        <ele>332.4</ele>
        <time>2013-05-29T07:07:47Z</time>
      </trkpt>
      <trkpt lat="49.1501" lon="6.87577">
        <ele>332.2</ele>
        <time>2013-05-29T07:07:52Z</time>
      </trkpt>
      <trkpt lat="49.15009" lon="6.87583">
        <ele>331.9</ele>
        <time>2013-05-29T07:07:57Z</time>
      </trkpt>
      <trkpt lat="49.15007" lon="6.87592">
        <ele>331.7</ele>
        <time>2013-05-29T07:08:02Z</time>
      </trkpt>
      <trkpt lat="49.15005" lon="6.87599">
        <ele>332.3</ele>
        <time>2013-05-29T07:08:07Z</time>
      </trkpt>
      <trkpt lat="49.15002" lon="6.87608">
        <ele>332.1</ele>
        <time>2013-05-29T07:08:12Z</time>
      </trkpt>
      <trkpt lat="49.15001" lon="6.87616">
        <ele>331.7</ele>
        <time>2013-05-29T07:08:17Z</time>
      </trkpt>
      <trkpt lat="49.14999" lon="6.87626">
        <ele>331.4</ele>
        <time>2013-05-29T07:08:22Z</time>
      </trkpt>
      <trkpt lat="49.14998" lon="6.87628">
        <ele>331.1</ele>
        <time>2013-05-29T07:08:23Z</time>
      </trkpt>
      <trkpt lat="49.14994" lon="6.87645">
        <ele>330.7</ele>
        <time>2013-05-29T07:08:32Z</time>
      </trkpt>
      <trkpt lat="49.14992" lon="6.87655">
        <ele>330.8</ele>
        <time>2013-05-29T07:08:37Z</time>
      </trkpt>
      <trkpt lat="49.14991" lon="6.87664">
        <ele>330.7</ele>
        <time>2013-05-29T07:08:42Z</time>
      </trkpt>
      <trkpt lat="49.14988" lon="6.87674">
        <ele>330.8</ele>
        <time>2013-05-29T07:08:47Z</time>
      </trkpt>
      <trkpt lat="49.14986" lon="6.87683">
        <ele>330.8</ele>
        <time>2013-05-29T07:08:52Z</time>
      </trkpt>
      <trkpt lat="49.14984" lon="6.87691">
        <ele>330.5</ele>
        <time>2013-05-29T07:08:57Z</time>
      </trkpt>
      <trkpt lat="49.14981" lon="6.87701">
        <ele>330.4</ele>
        <time>2013-05-29T07:09:02Z</time>
      </trkpt>
      <trkpt lat="49.14978" lon="6.8771">
        <ele>329.8</ele>
        <time>2013-05-29T07:09:07Z</time>
      </trkpt>
      <trkpt lat="49.14977" lon="6.87717">
        <ele>329.4</ele>
        <time>2013-05-29T07:09:12Z</time>
      </trkpt>
      <trkpt lat="49.14975" lon="6.87725">
        <ele>329</ele>
        <time>2013-05-29T07:09:17Z</time>
      </trkpt>
      <trkpt lat="49.14973" lon="6.87732">
        <ele>329.3</ele>
        <time>2013-05-29T07:09:22Z</time>
      </trkpt>
      <trkpt lat="49.14971" lon="6.87741">
        <ele>329</ele>
        <time>2013-05-29T07:09:27Z</time>
      </trkpt>
      <trkpt lat="49.1497" lon="6.87743">
        <ele>328.8</ele>
        <time>2013-05-29T07:09:28Z</time>
      </trkpt>
      <trkpt lat="49.14967" lon="6.8776">
        <ele>328.9</ele>
        <time>2013-05-29T07:09:37Z</time>
      </trkpt>
      <trkpt lat="49.14963" lon="6.87769">
        <ele>328.7</ele>
        <time>2013-05-29T07:09:42Z</time>
      </trkpt>
      <trkpt lat="49.14962" lon="6.87775">
        <ele>329</ele>
        <time>2013-05-29T07:09:47Z</time>
      </trkpt>
      <trkpt lat="49.14962" lon="6.87779">
        <ele>329.1</ele>
        <time>2013-05-29T07:09:52Z</time>
      </trkpt>
      <trkpt lat="49.14963" lon="6.87781">
        <ele>329.5</ele>
        <time>2013-05-29T07:09:57Z</time>
      </trkpt>
      <trkpt lat="49.14963" lon="6.87784">
        <ele>329</ele>
        <time>2013-05-29T07:10:02Z</time>
      </trkpt>
      <trkpt lat="49.14963" lon="6.87787">
        <ele>329</ele>
        <time>2013-05-29T07:10:07Z</time>
      </trkpt>
      <trkpt lat="49.14964" lon="6.87789">
        <ele>329</ele>
        <time>2013-05-29T07:10:12Z</time>
      </trkpt>
      <trkpt lat="49.14963" lon="6.87792">
        <ele>329.5</ele>
        <time>2013-05-29T07:10:17Z</time>
      </trkpt>
      <trkpt lat="49.14961" lon="6.87794">
        <ele>329.3</ele>
        <time>2013-05-29T07:10:22Z</time>
      </trkpt>
      <trkpt lat="49.14958" lon="6.87798">
        <ele>329.4</ele>
        <time>2013-05-29T07:10:27Z</time>
      </trkpt>
      <trkpt lat="49.14955" lon="6.87803">
        <ele>328.9</ele>
        <time>2013-05-29T07:10:32Z</time>
      </trkpt>
      <trkpt lat="49.14955" lon="6.87803">
        <ele>328.8</ele>
        <time>2013-05-29T07:10:33Z</time>
      </trkpt>
      <trkpt lat="49.14953" lon="6.87813">
        <ele>328.5</ele>
        <time>2013-05-29T07:10:42Z</time>
      </trkpt>
      <trkpt lat="49.14951" lon="6.87818">
        <ele>328.2</ele>
        <time>2013-05-29T07:10:47Z</time>
      </trkpt>
      <trkpt lat="49.14951" lon="6.87823">
        <ele>327.8</ele>
        <time>2013-05-29T07:10:52Z</time>
      </trkpt>
      <trkpt lat="49.14949" lon="6.87831">
        <ele>326.9</ele>
        <time>2013-05-29T07:10:57Z</time>
      </trkpt>
      <trkpt lat="49.14946" lon="6.8784">
        <ele>327.8</ele>
        <time>2013-05-29T07:11:02Z</time>
      </trkpt>
      <trkpt lat="49.14942" lon="6.87849">
        <ele>326.9</ele>
        <time>2013-05-29T07:11:07Z</time>
      </trkpt>
      <trkpt lat="49.14937" lon="6.87857">
        <ele>327.1</ele>
        <time>2013-05-29T07:11:12Z</time>
      </trkpt>
      <trkpt lat="49.14934" lon="6.87866">
        <ele>326.8</ele>
        <time>2013-05-29T07:11:17Z</time>
      </trkpt>
      <trkpt lat="49.14932" lon="6.87872">
        <ele>326.5</ele>
        <time>2013-05-29T07:11:22Z</time>
      </trkpt>
      <trkpt lat="49.14929" lon="6.87877">
        <ele>326</ele>
        <time>2013-05-29T07:11:27Z</time>
      </trkpt>
      <trkpt lat="49.14924" lon="6.87883">
        <ele>325.4</ele>
        <time>2013-05-29T07:11:32Z</time>
      </trkpt>
      <trkpt lat="49.1492" lon="6.87889">
        <ele>324.8</ele>
        <time>2013-05-29T07:11:37Z</time>
      </trkpt>
      <trkpt lat="49.1492" lon="6.8789">
        <ele>324.6</ele>
        <time>2013-05-29T07:11:38Z</time>
      </trkpt>
      <trkpt lat="49.14911" lon="6.879">
        <ele>323.8</ele>
        <time>2013-05-29T07:11:47Z</time>
      </trkpt>
      <trkpt lat="49.14906" lon="6.87905">
        <ele>323.4</ele>
        <time>2013-05-29T07:11:52Z</time>
      </trkpt>
      <trkpt lat="49.149" lon="6.87912">
        <ele>322.8</ele>
        <time>2013-05-29T07:11:57Z</time>
      </trkpt>
      <trkpt lat="49.14896" lon="6.87917">
        <ele>322.2</ele>
        <time>2013-05-29T07:12:02Z</time>
      </trkpt>
      <trkpt lat="49.14891" lon="6.87923">
        <ele>322.1</ele>
        <time>2013-05-29T07:12:07Z</time>
      </trkpt>
      <trkpt lat="49.14886" lon="6.87928">
        <ele>321.9</ele>
        <time>2013-05-29T07:12:12Z</time>
      </trkpt>
      <trkpt lat="49.14882" lon="6.87933">
        <ele>321.8</ele>
        <time>2013-05-29T07:12:17Z</time>
      </trkpt>
      <trkpt lat="49.14877" lon="6.87937">
        <ele>321.2</ele>
        <time>2013-05-29T07:12:22Z</time>
      </trkpt>
      <trkpt lat="49.14872" lon="6.87943">
        <ele>320.8</ele>
        <time>2013-05-29T07:12:27Z</time>
      </trkpt>
      <trkpt lat="49.14866" lon="6.8795">
        <ele>319.6</ele>
        <time>2013-05-29T07:12:32Z</time>
      </trkpt>
      <trkpt lat="49.14863" lon="6.87955">
        <ele>319.5</ele>
        <time>2013-05-29T07:12:37Z</time>
      </trkpt>
      <trkpt lat="49.14859" lon="6.8796">
        <ele>319.9</ele>
        <time>2013-05-29T07:12:42Z</time>
      </trkpt>
      <trkpt lat="49.14858" lon="6.87961">
        <ele>319.2</ele>
        <time>2013-05-29T07:12:43Z</time>
      </trkpt>
      <trkpt lat="49.14853" lon="6.87969">
        <ele>318.1</ele>
        <time>2013-05-29T07:12:52Z</time>
      </trkpt>
      <trkpt lat="49.14851" lon="6.87972">
        <ele>317.7</ele>
        <time>2013-05-29T07:12:57Z</time>
      </trkpt>
      <trkpt lat="49.14849" lon="6.87976">
        <ele>318.1</ele>
        <time>2013-05-29T07:13:02Z</time>
      </trkpt>
      <trkpt lat="49.14844" lon="6.87983">
        <ele>318.2</ele>
        <time>2013-05-29T07:13:07Z</time>
      </trkpt>
      <trkpt lat="49.14841" lon="6.8799">
        <ele>317.6</ele>
        <time>2013-05-29T07:13:12Z</time>
      </trkpt>
      <trkpt lat="49.14838" lon="6.87997">
        <ele>317.4</ele>
        <time>2013-05-29T07:13:17Z</time>
      </trkpt>
      <trkpt lat="49.14836" lon="6.88006">
        <ele>317.6</ele>
        <time>2013-05-29T07:13:22Z</time>
      </trkpt>
      <trkpt lat="49.14833" lon="6.88011">
        <ele>316</ele>
        <time>2013-05-29T07:13:27Z</time>
      </trkpt>
      <trkpt lat="49.1483" lon="6.88018">
        <ele>316.9</ele>
        <time>2013-05-29T07:13:32Z</time>
      </trkpt>
      <trkpt lat="49.14827" lon="6.88025">
        <ele>316.8</ele>
        <time>2013-05-29T07:13:37Z</time>
      </trkpt>
      <trkpt lat="49.14824" lon="6.88033">
        <ele>317</ele>
        <time>2013-05-29T07:13:42Z</time>
      </trkpt>
      <trkpt lat="49.14821" lon="6.88041">
        <ele>316.2</ele>
        <time>2013-05-29T07:13:47Z</time>
      </trkpt>
      <trkpt lat="49.1482" lon="6.88043">
        <ele>316.1</ele>
        <time>2013-05-29T07:13:48Z</time>
      </trkpt>
      <trkpt lat="49.14815" lon="6.88055">
        <ele>316</ele>
        <time>2013-05-29T07:13:57Z</time>
      </trkpt>
      <trkpt lat="49.14812" lon="6.88063">
        <ele>315.3</ele>
        <time>2013-05-29T07:14:02Z</time>
      </trkpt>
      <trkpt lat="49.1481" lon="6.88072">
        <ele>315.4</ele>
        <time>2013-05-29T07:14:07Z</time>
      </trkpt>
      <trkpt lat="49.14807" lon="6.88081">
        <ele>315.5</ele>
        <time>2013-05-29T07:14:12Z</time>
      </trkpt>
      <trkpt lat="49.14804" lon="6.88089">
        <ele>316</ele>
        <time>2013-05-29T07:14:17Z</time>
      </trkpt>
      <trkpt lat="49.14802" lon="6.88097">
        <ele>315.3</ele>
        <time>2013-05-29T07:14:22Z</time>
      </trkpt>
      <trkpt lat="49.14799" lon="6.88106">
        <ele>314.8</ele>
        <time>2013-05-29T07:14:27Z</time>
      </trkpt>
      <trkpt lat="49.14796" lon="6.88114">
        <ele>314.3</ele>
        <time>2013-05-29T07:14:32Z</time>
      </trkpt>
      <trkpt lat="49.14794" lon="6.88123">
        <ele>313.9</ele>
        <time>2013-05-29T07:14:37Z</time>
      </trkpt>
      <trkpt lat="49.14791" lon="6.88132">
        <ele>314.1</ele>
        <time>2013-05-29T07:14:42Z</time>
      </trkpt>
      <trkpt lat="49.14788" lon="6.8814">
        <ele>314.2</ele>
        <time>2013-05-29T07:14:47Z</time>
      </trkpt>
      <trkpt lat="49.14786" lon="6.88147">
        <ele>314.2</ele>
        <time>2013-05-29T07:14:52Z</time>
      </trkpt>
      <trkpt lat="49.14785" lon="6.88149">
        <ele>314.4</ele>
        <time>2013-05-29T07:14:53Z</time>
      </trkpt>
      <trkpt lat="49.14782" lon="6.88164">
        <ele>313.8</ele>
        <time>2013-05-29T07:15:02Z</time>
      </trkpt>
      <trkpt lat="49.14779" lon="6.88173">
        <ele>314.2</ele>
        <time>2013-05-29T07:15:07Z</time>
      </trkpt>
      <trkpt lat="49.14777" lon="6.88182">
        <ele>314.2</ele>
        <time>2013-05-29T07:15:12Z</time>
      </trkpt>
      <trkpt lat="49.14775" lon="6.88191">
        <ele>314.3</ele>
        <time>2013-05-29T07:15:17Z</time>
      </trkpt>
      <trkpt lat="49.14773" lon="6.882">
        <ele>314</ele>
        <time>2013-05-29T07:15:22Z</time>
      </trkpt>
      <trkpt lat="49.14771" lon="6.8821">
        <ele>313.6</ele>
        <time>2013-05-29T07:15:27Z</time>
      </trkpt>
      <trkpt lat="49.1477" lon="6.88219">
        <ele>313.6</ele>
        <time>2013-05-29T07:15:32Z</time>
      </trkpt>
      <trkpt lat="49.14768" lon="6.88227">
        <ele>314.5</ele>
        <time>2013-05-29T07:15:37Z</time>
      </trkpt>
      <trkpt lat="49.14767" lon="6.88234">
        <ele>314.8</ele>
        <time>2013-05-29T07:15:42Z</time>
      </trkpt>
      <trkpt lat="49.14766" lon="6.88243">
        <ele>314.1</ele>
        <time>2013-05-29T07:15:47Z</time>
      </trkpt>
      <trkpt lat="49.14765" lon="6.88252">
        <ele>314</ele>
        <time>2013-05-29T07:15:52Z</time>
      </trkpt>
      <trkpt lat="49.14763" lon="6.8826">
        <ele>313.9</ele>
        <time>2013-05-29T07:15:57Z</time>
      </trkpt>
      <trkpt lat="49.14763" lon="6.88262">
        <ele>314</ele>
        <time>2013-05-29T07:15:58Z</time>
      </trkpt>
      <trkpt lat="49.1476" lon="6.88278">
        <ele>314.2</ele>
        <time>2013-05-29T07:16:07Z</time>
      </trkpt>
      <trkpt lat="49.14759" lon="6.88288">
        <ele>314.8</ele>
        <time>2013-05-29T07:16:12Z</time>
      </trkpt>
      <trkpt lat="49.14757" lon="6.88298">
        <ele>314.9</ele>
        <time>2013-05-29T07:16:17Z</time>
      </trkpt>
      <trkpt lat="49.14755" lon="6.88307">
        <ele>314.6</ele>
        <time>2013-05-29T07:16:22Z</time>
      </trkpt>
      <trkpt lat="49.14753" lon="6.88316">
        <ele>314.2</ele>
        <time>2013-05-29T07:16:27Z</time>
      </trkpt>
      <trkpt lat="49.14751" lon="6.88326">
        <ele>314.7</ele>
        <time>2013-05-29T07:16:32Z</time>
      </trkpt>
      <trkpt lat="49.14749" lon="6.88336">
        <ele>314.9</ele>
        <time>2013-05-29T07:16:37Z</time>
      </trkpt>
      <trkpt lat="49.14747" lon="6.88345">
        <ele>314.2</ele>
        <time>2013-05-29T07:16:42Z</time>
      </trkpt>
      <trkpt lat="49.14744" lon="6.88354">
        <ele>314.5</ele>
        <time>2013-05-29T07:16:47Z</time>
      </trkpt>
      <trkpt lat="49.14742" lon="6.88363">
        <ele>314.6</ele>
        <time>2013-05-29T07:16:52Z</time>
      </trkpt>
      <trkpt lat="49.1474" lon="6.88372">
        <ele>314.9</ele>
        <time>2013-05-29T07:16:57Z</time>
      </trkpt>
      <trkpt lat="49.14737" lon="6.88382">
        <ele>314.9</ele>
        <time>2013-05-29T07:17:02Z</time>
      </trkpt>
      <trkpt lat="49.14737" lon="6.88384">
        <ele>314.9</ele>
        <time>2013-05-29T07:17:03Z</time>
      </trkpt>
      <trkpt lat="49.14732" lon="6.88401">
        <ele>314.7</ele>
        <time>2013-05-29T07:17:12Z</time>
      </trkpt>
      <trkpt lat="49.1473" lon="6.8841">
        <ele>315.5</ele>
        <time>2013-05-29T07:17:17Z</time>
      </trkpt>
      <trkpt lat="49.14727" lon="6.88419">
        <ele>315.5</ele>
        <time>2013-05-29T07:17:22Z</time>
      </trkpt>
      <trkpt lat="49.14725" lon="6.88428">
        <ele>315.9</ele>
        <time>2013-05-29T07:17:27Z</time>
      </trkpt>
      <trkpt lat="49.14722" lon="6.88437">
        <ele>315.7</ele>
        <time>2013-05-29T07:17:32Z</time>
      </trkpt>
      <trkpt lat="49.1472" lon="6.88446">
        <ele>316.2</ele>
        <time>2013-05-29T07:17:37Z</time>
      </trkpt>
      <trkpt lat="49.14717" lon="6.88455">
        <ele>315.8</ele>
        <time>2013-05-29T07:17:42Z</time>
      </trkpt>
      <trkpt lat="49.14714" lon="6.88463">
        <ele>316.7</ele>
        <time>2013-05-29T07:17:47Z</time>
      </trkpt>
      <trkpt lat="49.14712" lon="6.88471">
        <ele>316.9</ele>
        <time>2013-05-29T07:17:52Z</time>
      </trkpt>
      <trkpt lat="49.14709" lon="6.88481">
        <ele>317</ele>
        <time>2013-05-29T07:17:57Z</time>
      </trkpt>
      <trkpt lat="49.14706" lon="6.8849">
        <ele>317.3</ele>
        <time>2013-05-29T07:18:02Z</time>
      </trkpt>
      <trkpt lat="49.14704" lon="6.88498">
        <ele>317.3</ele>
        <time>2013-05-29T07:18:07Z</time>
      </trkpt>
      <trkpt lat="49.14703" lon="6.885">
        <ele>317</ele>
        <time>2013-05-29T07:18:08Z</time>
      </trkpt>
      <trkpt lat="49.14698" lon="6.88516">
        <ele>316.9</ele>
        <time>2013-05-29T07:18:17Z</time>
      </trkpt>
      <trkpt lat="49.14696" lon="6.88525">
        <ele>318</ele>
        <time>2013-05-29T07:18:22Z</time>
      </trkpt>
      <trkpt lat="49.14693" lon="6.88534">
        <ele>317.9</ele>
        <time>2013-05-29T07:18:27Z</time>
      </trkpt>
      <trkpt lat="49.1469" lon="6.88543">
        <ele>318.6</ele>
        <time>2013-05-29T07:18:32Z</time>
      </trkpt>
      <trkpt lat="49.14687" lon="6.88552">
        <ele>319</ele>
        <time>2013-05-29T07:18:37Z</time>
      </trkpt>
      <trkpt lat="49.14684" lon="6.88561">
        <ele>319.2</ele>
        <time>2013-05-29T07:18:42Z</time>
      </trkpt>
      <trkpt lat="49.14681" lon="6.88571">
        <ele>320</ele>
        <time>2013-05-29T07:18:47Z</time>
      </trkpt>
      <trkpt lat="49.14678" lon="6.8858">
        <ele>319.8</ele>
        <time>2013-05-29T07:18:52Z</time>
      </trkpt>
      <trkpt lat="49.14675" lon="6.88589">
        <ele>319.5</ele>
        <time>2013-05-29T07:18:57Z</time>
      </trkpt>
      <trkpt lat="49.14672" lon="6.88597">
        <ele>319.3</ele>
        <time>2013-05-29T07:19:02Z</time>
      </trkpt>
      <trkpt lat="49.14669" lon="6.88606">
        <ele>319.3</ele>
        <time>2013-05-29T07:19:07Z</time>
      </trkpt>
      <trkpt lat="49.14667" lon="6.88615">
        <ele>319.1</ele>
        <time>2013-05-29T07:19:12Z</time>
      </trkpt>
      <trkpt lat="49.14666" lon="6.88617">
        <ele>319</ele>
        <time>2013-05-29T07:19:13Z</time>
      </trkpt>
      <trkpt lat="49.14661" lon="6.88633">
        <ele>320.2</ele>
        <time>2013-05-29T07:19:22Z</time>
      </trkpt>
      <trkpt lat="49.14659" lon="6.88642">
        <ele>319.5</ele>
        <time>2013-05-29T07:19:27Z</time>
      </trkpt>
      <trkpt lat="49.14656" lon="6.8865">
        <ele>319.4</ele>
        <time>2013-05-29T07:19:32Z</time>
      </trkpt>
      <trkpt lat="49.14654" lon="6.88658">
        <ele>319.4</ele>
        <time>2013-05-29T07:19:37Z</time>
      </trkpt>
      <trkpt lat="49.14651" lon="6.88666">
        <ele>319.3</ele>
        <time>2013-05-29T07:19:42Z</time>
      </trkpt>
      <trkpt lat="49.14647" lon="6.88675">
        <ele>319.7</ele>
        <time>2013-05-29T07:19:47Z</time>
      </trkpt>
      <trkpt lat="49.14644" lon="6.88684">
        <ele>319.1</ele>
        <time>2013-05-29T07:19:52Z</time>
      </trkpt>
      <trkpt lat="49.14641" lon="6.88692">
        <ele>319.2</ele>
        <time>2013-05-29T07:19:57Z</time>
      </trkpt>
      <trkpt lat="49.14638" lon="6.88701">
        <ele>319.5</ele>
        <time>2013-05-29T07:20:02Z</time>
      </trkpt>
      <trkpt lat="49.14635" lon="6.88709">
        <ele>319.5</ele>
        <time>2013-05-29T07:20:07Z</time>
      </trkpt>
      <trkpt lat="49.14632" lon="6.88718">
        <ele>319.1</ele>
        <time>2013-05-29T07:20:12Z</time>
      </trkpt>
      <trkpt lat="49.14629" lon="6.88727">
        <ele>319.4</ele>
        <time>2013-05-29T07:20:17Z</time>
      </trkpt>
      <trkpt lat="49.14628" lon="6.88729">
        <ele>319.3</ele>
        <time>2013-05-29T07:20:18Z</time>
      </trkpt>
      <trkpt lat="49.14622" lon="6.88744">
        <ele>319.2</ele>
        <time>2013-05-29T07:20:27Z</time>
      </trkpt>
      <trkpt lat="49.14619" lon="6.88753">
        <ele>318.9</ele>
        <time>2013-05-29T07:20:32Z</time>
      </trkpt>
      <trkpt lat="49.14617" lon="6.88762">
        <ele>318.4</ele>
        <time>2013-05-29T07:20:37Z</time>
      </trkpt>
      <trkpt lat="49.14614" lon="6.88771">
        <ele>319.1</ele>
        <time>2013-05-29T07:20:42Z</time>
      </trkpt>
      <trkpt lat="49.14612" lon="6.8878">
        <ele>319</ele>
        <time>2013-05-29T07:20:47Z</time>
      </trkpt>
      <trkpt lat="49.14608" lon="6.88788">
        <ele>319</ele>
        <time>2013-05-29T07:20:52Z</time>
      </trkpt>
      <trkpt lat="49.14605" lon="6.88797">
        <ele>319.7</ele>
        <time>2013-05-29T07:20:57Z</time>
      </trkpt>
      <trkpt lat="49.14602" lon="6.88805">
        <ele>319.4</ele>
        <time>2013-05-29T07:21:02Z</time>
      </trkpt>
      <trkpt lat="49.14599" lon="6.88813">
        <ele>319.7</ele>
        <time>2013-05-29T07:21:07Z</time>
      </trkpt>
      <trkpt lat="49.14596" lon="6.88822">
        <ele>319.7</ele>
        <time>2013-05-29T07:21:12Z</time>
      </trkpt>
      <trkpt lat="49.14594" lon="6.88832">
        <ele>319.9</ele>
        <time>2013-05-29T07:21:17Z</time>
      </trkpt>
      <trkpt lat="49.14591" lon="6.88841">
        <ele>319.6</ele>
        <time>2013-05-29T07:21:22Z</time>
      </trkpt>
      <trkpt lat="49.14591" lon="6.88842">
        <ele>319.5</ele>
        <time>2013-05-29T07:21:23Z</time>
      </trkpt>
      <trkpt lat="49.14587" lon="6.88858">
        <ele>319.1</ele>
        <time>2013-05-29T07:21:32Z</time>
      </trkpt>
      <trkpt lat="49.14584" lon="6.88867">
        <ele>319.1</ele>
        <time>2013-05-29T07:21:37Z</time>
      </trkpt>
      <trkpt lat="49.14583" lon="6.88874">
        <ele>319</ele>
        <time>2013-05-29T07:21:42Z</time>
      </trkpt>
      <trkpt lat="49.14581" lon="6.88883">
        <ele>318.4</ele>
        <time>2013-05-29T07:21:47Z</time>
      </trkpt>
      <trkpt lat="49.1458" lon="6.88891">
        <ele>317.9</ele>
        <time>2013-05-29T07:21:52Z</time>
      </trkpt>
      <trkpt lat="49.14578" lon="6.88901">
        <ele>318.1</ele>
        <time>2013-05-29T07:21:57Z</time>
      </trkpt>
      <trkpt lat="49.14578" lon="6.88909">
        <ele>317.1</ele>
        <time>2013-05-29T07:22:02Z</time>
      </trkpt>
      <trkpt lat="49.14576" lon="6.88915">
        <ele>317.7</ele>
        <time>2013-05-29T07:22:07Z</time>
      </trkpt>
      <trkpt lat="49.14577" lon="6.88922">
        <ele>317</ele>
        <time>2013-05-29T07:22:12Z</time>
      </trkpt>
      <trkpt lat="49.14579" lon="6.8893">
        <ele>316.9</ele>
        <time>2013-05-29T07:22:17Z</time>
      </trkpt>
      <trkpt lat="49.14581" lon="6.88938">
        <ele>316.1</ele>
        <time>2013-05-29T07:22:22Z</time>
      </trkpt>
      <trkpt lat="49.14583" lon="6.88946">
        <ele>316.4</ele>
        <time>2013-05-29T07:22:27Z</time>
      </trkpt>
      <trkpt lat="49.14583" lon="6.88948">
        <ele>316.5</ele>
        <time>2013-05-29T07:22:28Z</time>
      </trkpt>
      <trkpt lat="49.14587" lon="6.88963">
        <ele>316</ele>
        <time>2013-05-29T07:22:37Z</time>
      </trkpt>
      <trkpt lat="49.1459" lon="6.88971">
        <ele>314.7</ele>
        <time>2013-05-29T07:22:42Z</time>
      </trkpt>
      <trkpt lat="49.14592" lon="6.88979">
        <ele>314.2</ele>
        <time>2013-05-29T07:22:47Z</time>
      </trkpt>
      <trkpt lat="49.14594" lon="6.88985">
        <ele>313.5</ele>
        <time>2013-05-29T07:22:52Z</time>
      </trkpt>
      <trkpt lat="49.14596" lon="6.88989">
        <ele>313.3</ele>
        <time>2013-05-29T07:22:57Z</time>
      </trkpt>
      <trkpt lat="49.14598" lon="6.88995">
        <ele>312.9</ele>
        <time>2013-05-29T07:23:02Z</time>
      </trkpt>
      <trkpt lat="49.146" lon="6.89001">
        <ele>313.2</ele>
        <time>2013-05-29T07:23:07Z</time>
      </trkpt>
      <trkpt lat="49.14603" lon="6.89007">
        <ele>311.8</ele>
        <time>2013-05-29T07:23:12Z</time>
      </trkpt>
      <trkpt lat="49.14605" lon="6.89014">
        <ele>311.3</ele>
        <time>2013-05-29T07:23:17Z</time>
      </trkpt>
      <trkpt lat="49.14607" lon="6.89021">
        <ele>310.5</ele>
        <time>2013-05-29T07:23:22Z</time>
      </trkpt>
      <trkpt lat="49.14611" lon="6.89027">
        <ele>310.1</ele>
        <time>2013-05-29T07:23:27Z</time>
      </trkpt>
      <trkpt lat="49.14615" lon="6.89034">
        <ele>309.7</ele>
        <time>2013-05-29T07:23:32Z</time>
      </trkpt>
      <trkpt lat="49.14615" lon="6.89036">
        <ele>309.6</ele>
        <time>2013-05-29T07:23:33Z</time>
      </trkpt>
      <trkpt lat="49.14622" lon="6.89047">
        <ele>308.5</ele>
        <time>2013-05-29T07:23:42Z</time>
      </trkpt>
      <trkpt lat="49.14625" lon="6.89051">
        <ele>308.1</ele>
        <time>2013-05-29T07:23:47Z</time>
      </trkpt>
      <trkpt lat="49.14629" lon="6.89057">
        <ele>307.4</ele>
        <time>2013-05-29T07:23:52Z</time>
      </trkpt>
      <trkpt lat="49.14633" lon="6.89063">
        <ele>307.6</ele>
        <time>2013-05-29T07:23:57Z</time>
      </trkpt>
      <trkpt lat="49.14638" lon="6.89068">
        <ele>306.9</ele>
        <time>2013-05-29T07:24:02Z</time>
      </trkpt>
      <trkpt lat="49.14642" lon="6.89075">
        <ele>306.1</ele>
        <time>2013-05-29T07:24:07Z</time>
      </trkpt>
      <trkpt lat="49.14647" lon="6.8908">
        <ele>306</ele>
        <time>2013-05-29T07:24:12Z</time>
      </trkpt>
      <trkpt lat="49.14652" lon="6.89087">
        <ele>305.8</ele>
        <time>2013-05-29T07:24:17Z</time>
      </trkpt>
      <trkpt lat="49.14655" lon="6.89095">
        <ele>304.1</ele>
        <time>2013-05-29T07:24:22Z</time>
      </trkpt>
      <trkpt lat="49.14656" lon="6.89104">
        <ele>304.2</ele>
        <time>2013-05-29T07:24:27Z</time>
      </trkpt>
      <trkpt lat="49.1466" lon="6.89111">
        <ele>304.2</ele>
        <time>2013-05-29T07:24:32Z</time>
      </trkpt>
      <trkpt lat="49.14665" lon="6.89116">
        <ele>303.6</ele>
        <time>2013-05-29T07:24:37Z</time>
      </trkpt>
      <trkpt lat="49.14666" lon="6.89117">
        <ele>303.3</ele>
        <time>2013-05-29T07:24:38Z</time>
      </trkpt>
      <trkpt lat="49.14676" lon="6.89122">
        <ele>303.2</ele>
        <time>2013-05-29T07:24:47Z</time>
      </trkpt>
      <trkpt lat="49.14681" lon="6.89126">
        <ele>303.8</ele>
        <time>2013-05-29T07:24:52Z</time>
      </trkpt>
      <trkpt lat="49.14687" lon="6.8913">
        <ele>303.3</ele>
        <time>2013-05-29T07:24:57Z</time>
      </trkpt>
      <trkpt lat="49.14692" lon="6.89134">
        <ele>303.7</ele>
        <time>2013-05-29T07:25:02Z</time>
      </trkpt>
      <trkpt lat="49.14698" lon="6.8914">
        <ele>302.8</ele>
        <time>2013-05-29T07:25:07Z</time>
      </trkpt>
      <trkpt lat="49.14703" lon="6.89146">
        <ele>302.9</ele>
        <time>2013-05-29T07:25:12Z</time>
      </trkpt>
      <trkpt lat="49.14708" lon="6.89153">
        <ele>302.8</ele>
        <time>2013-05-29T07:25:17Z</time>
      </trkpt>
      <trkpt lat="49.14711" lon="6.89161">
        <ele>302.6</ele>
        <time>2013-05-29T07:25:22Z</time>
      </trkpt>
      <trkpt lat="49.14714" lon="6.89169">
        <ele>302.9</ele>
        <time>2013-05-29T07:25:27Z</time>
      </trkpt>
      <trkpt lat="49.14717" lon="6.89177">
        <ele>302.8</ele>
        <time>2013-05-29T07:25:32Z</time>
      </trkpt>
      <trkpt lat="49.14721" lon="6.89183">
        <ele>303.4</ele>
        <time>2013-05-29T07:25:37Z</time>
      </trkpt>
      <trkpt lat="49.14725" lon="6.89191">
        <ele>303.4</ele>
        <time>2013-05-29T07:25:42Z</time>
      </trkpt>
      <trkpt lat="49.14726" lon="6.89193">
        <ele>303.2</ele>
        <time>2013-05-29T07:25:43Z</time>
      </trkpt>
      <trkpt lat="49.14733" lon="6.89207">
        <ele>303</ele>
        <time>2013-05-29T07:25:52Z</time>
      </trkpt>
      <trkpt lat="49.14735" lon="6.89215">
        <ele>302.9</ele>
        <time>2013-05-29T07:25:57Z</time>
      </trkpt>
      <trkpt lat="49.14739" lon="6.89223">
        <ele>302.5</ele>
        <time>2013-05-29T07:26:02Z</time>
      </trkpt>
      <trkpt lat="49.14742" lon="6.89231">
        <ele>302.9</ele>
        <time>2013-05-29T07:26:07Z</time>
      </trkpt>
      <trkpt lat="49.14745" lon="6.89238">
        <ele>302.9</ele>
        <time>2013-05-29T07:26:12Z</time>
      </trkpt>
      <trkpt lat="49.14748" lon="6.89246">
        <ele>302.9</ele>
        <time>2013-05-29T07:26:17Z</time>
      </trkpt>
      <trkpt lat="49.1475" lon="6.89254">
        <ele>302.9</ele>
        <time>2013-05-29T07:26:22Z</time>
      </trkpt>
      <trkpt lat="49.14754" lon="6.89261">
        <ele>302.7</ele>
        <time>2013-05-29T07:26:27Z</time>
      </trkpt>
      <trkpt lat="49.14757" lon="6.89269">
        <ele>302.4</ele>
        <time>2013-05-29T07:26:32Z</time>
      </trkpt>
      <trkpt lat="49.1476" lon="6.89276">
        <ele>302.6</ele>
        <time>2013-05-29T07:26:37Z</time>
      </trkpt>
      <trkpt lat="49.14762" lon="6.89283">
        <ele>302.3</ele>
        <time>2013-05-29T07:26:42Z</time>
      </trkpt>
      <trkpt lat="49.14765" lon="6.8929">
        <ele>303</ele>
        <time>2013-05-29T07:26:47Z</time>
      </trkpt>
      <trkpt lat="49.14766" lon="6.89292">
        <ele>303.2</ele>
        <time>2013-05-29T07:26:48Z</time>
      </trkpt>
      <trkpt lat="49.14771" lon="6.89307">
        <ele>303</ele>
        <time>2013-05-29T07:26:57Z</time>
      </trkpt>
      <trkpt lat="49.14774" lon="6.89315">
        <ele>303</ele>
        <time>2013-05-29T07:27:02Z</time>
      </trkpt>
      <trkpt lat="49.14777" lon="6.89323">
        <ele>302.9</ele>
        <time>2013-05-29T07:27:07Z</time>
      </trkpt>
      <trkpt lat="49.14779" lon="6.89331">
        <ele>302.7</ele>
        <time>2013-05-29T07:27:12Z</time>
      </trkpt>
      <trkpt lat="49.1478" lon="6.89338">
        <ele>301.5</ele>
        <time>2013-05-29T07:27:17Z</time>
      </trkpt>
      <trkpt lat="49.14779" lon="6.89345">
        <ele>301.1</ele>
        <time>2013-05-29T07:27:22Z</time>
      </trkpt>
      <trkpt lat="49.14778" lon="6.89353">
        <ele>300.2</ele>
        <time>2013-05-29T07:27:27Z</time>
      </trkpt>
      <trkpt lat="49.14778" lon="6.89361">
        <ele>300.6</ele>
        <time>2013-05-29T07:27:32Z</time>
      </trkpt>
      <trkpt lat="49.14777" lon="6.89371">
        <ele>300.1</ele>
        <time>2013-05-29T07:27:37Z</time>
      </trkpt>
      <trkpt lat="49.14776" lon="6.8938">
        <ele>299.6</ele>
        <time>2013-05-29T07:27:42Z</time>
      </trkpt>
      <trkpt lat="49.14774" lon="6.8939">
        <ele>299.1</ele>
        <time>2013-05-29T07:27:47Z</time>
      </trkpt>
      <trkpt lat="49.14773" lon="6.89399">
        <ele>298.1</ele>
        <time>2013-05-29T07:27:52Z</time>
      </trkpt>
      <trkpt lat="49.14773" lon="6.89401">
        <ele>297.7</ele>
        <time>2013-05-29T07:27:53Z</time>
      </trkpt>
      <trkpt lat="49.14774" lon="6.89417">
        <ele>297.2</ele>
        <time>2013-05-29T07:28:02Z</time>
      </trkpt>
      <trkpt lat="49.14776" lon="6.89425">
        <ele>296.3</ele>
        <time>2013-05-29T07:28:07Z</time>
      </trkpt>
      <trkpt lat="49.14778" lon="6.89433">
        <ele>296.4</ele>
        <time>2013-05-29T07:28:12Z</time>
      </trkpt>
      <trkpt lat="49.1478" lon="6.89441">
        <ele>295.3</ele>
        <time>2013-05-29T07:28:17Z</time>
      </trkpt>
      <trkpt lat="49.14783" lon="6.89449">
        <ele>295.2</ele>
        <time>2013-05-29T07:28:22Z</time>
      </trkpt>
      <trkpt lat="49.14782" lon="6.89457">
        <ele>295.2</ele>
        <time>2013-05-29T07:28:27Z</time>
      </trkpt>
      <trkpt lat="49.14781" lon="6.89463">
        <ele>294.7</ele>
        <time>2013-05-29T07:28:32Z</time>
      </trkpt>
      <trkpt lat="49.14777" lon="6.8947">
        <ele>293.7</ele>
        <time>2013-05-29T07:28:37Z</time>
      </trkpt>
      <trkpt lat="49.14773" lon="6.89477">
        <ele>293.9</ele>
        <time>2013-05-29T07:28:42Z</time>
      </trkpt>
      <trkpt lat="49.14767" lon="6.89483">
        <ele>294.1</ele>
        <time>2013-05-29T07:28:47Z</time>
      </trkpt>
      <trkpt lat="49.14761" lon="6.89489">
        <ele>293.1</ele>
        <time>2013-05-29T07:28:52Z</time>
      </trkpt>
      <trkpt lat="49.14756" lon="6.89494">
        <ele>292.5</ele>
        <time>2013-05-29T07:28:57Z</time>
      </trkpt>
      <trkpt lat="49.14754" lon="6.89495">
        <ele>292.7</ele>
        <time>2013-05-29T07:28:58Z</time>
      </trkpt>
      <trkpt lat="49.14746" lon="6.89505">
        <ele>291.6</ele>
        <time>2013-05-29T07:29:07Z</time>
      </trkpt>
      <trkpt lat="49.14741" lon="6.89509">
        <ele>290.9</ele>
        <time>2013-05-29T07:29:12Z</time>
      </trkpt>
      <trkpt lat="49.14737" lon="6.89513">
        <ele>290</ele>
        <time>2013-05-29T07:29:17Z</time>
      </trkpt>
      <trkpt lat="49.14732" lon="6.89518">
        <ele>290</ele>
        <time>2013-05-29T07:29:22Z</time>
      </trkpt>
      <trkpt lat="49.14729" lon="6.89522">
        <ele>290</ele>
        <time>2013-05-29T07:29:27Z</time>
      </trkpt>
      <trkpt lat="49.14724" lon="6.89526">
        <ele>289.4</ele>
        <time>2013-05-29T07:29:32Z</time>
      </trkpt>
      <trkpt lat="49.14721" lon="6.89533">
        <ele>289.3</ele>
        <time>2013-05-29T07:29:37Z</time>
      </trkpt>
      <trkpt lat="49.14719" lon="6.89538">
        <ele>289.3</ele>
        <time>2013-05-29T07:29:42Z</time>
      </trkpt>
      <trkpt lat="49.14717" lon="6.89545">
        <ele>289.2</ele>
        <time>2013-05-29T07:29:47Z</time>
      </trkpt>
      <trkpt lat="49.14714" lon="6.89555">
        <ele>288.9</ele>
        <time>2013-05-29T07:29:52Z</time>
      </trkpt>
      <trkpt lat="49.14714" lon="6.89564">
        <ele>288.6</ele>
        <time>2013-05-29T07:29:57Z</time>
      </trkpt>
      <trkpt lat="49.14715" lon="6.89572">
        <ele>287.9</ele>
        <time>2013-05-29T07:30:02Z</time>
      </trkpt>
      <trkpt lat="49.14715" lon="6.89574">
        <ele>288</ele>
        <time>2013-05-29T07:30:03Z</time>
      </trkpt>
      <trkpt lat="49.14717" lon="6.89587">
        <ele>288.1</ele>
        <time>2013-05-29T07:30:12Z</time>
      </trkpt>
      <trkpt lat="49.14719" lon="6.89592">
        <ele>288.1</ele>
        <time>2013-05-29T07:30:17Z</time>
      </trkpt>
      <trkpt lat="49.14722" lon="6.89598">
        <ele>288.8</ele>
        <time>2013-05-29T07:30:22Z</time>
      </trkpt>
      <trkpt lat="49.14726" lon="6.89603">
        <ele>288.6</ele>
        <time>2013-05-29T07:30:27Z</time>
      </trkpt>
      <trkpt lat="49.1473" lon="6.89609">
        <ele>289.3</ele>
        <time>2013-05-29T07:30:32Z</time>
      </trkpt>
      <trkpt lat="49.14733" lon="6.89617">
        <ele>289.8</ele>
        <time>2013-05-29T07:30:37Z</time>
      </trkpt>
      <trkpt lat="49.14733" lon="6.89625">
        <ele>289.6</ele>
        <time>2013-05-29T07:30:42Z</time>
      </trkpt>
      <trkpt lat="49.14733" lon="6.89632">
        <ele>289.6</ele>
        <time>2013-05-29T07:30:47Z</time>
      </trkpt>
      <trkpt lat="49.14734" lon="6.8964">
        <ele>290.5</ele>
        <time>2013-05-29T07:30:52Z</time>
      </trkpt>
      <trkpt lat="49.14733" lon="6.89649">
        <ele>291.3</ele>
        <time>2013-05-29T07:30:57Z</time>
      </trkpt>
      <trkpt lat="49.1473" lon="6.89658">
        <ele>292.1</ele>
        <time>2013-05-29T07:31:02Z</time>
      </trkpt>
      <trkpt lat="49.14729" lon="6.89667">
        <ele>292.9</ele>
        <time>2013-05-29T07:31:07Z</time>
      </trkpt>
      <trkpt lat="49.14728" lon="6.89668">
        <ele>293.1</ele>
        <time>2013-05-29T07:31:08Z</time>
      </trkpt>
      <trkpt lat="49.14724" lon="6.89684">
        <ele>291.3</ele>
        <time>2013-05-29T07:31:17Z</time>
      </trkpt>
      <trkpt lat="49.14722" lon="6.89692">
        <ele>291.3</ele>
        <time>2013-05-29T07:31:22Z</time>
      </trkpt>
      <trkpt lat="49.14721" lon="6.89701">
        <ele>291.1</ele>
        <time>2013-05-29T07:31:27Z</time>
      </trkpt>
      <trkpt lat="49.1472" lon="6.89709">
        <ele>291.8</ele>
        <time>2013-05-29T07:31:32Z</time>
      </trkpt>
      <trkpt lat="49.14718" lon="6.89719">
        <ele>292.1</ele>
        <time>2013-05-29T07:31:37Z</time>
      </trkpt>
      <trkpt lat="49.14717" lon="6.89729">
        <ele>292.1</ele>
        <time>2013-05-29T07:31:42Z</time>
      </trkpt>
      <trkpt lat="49.14716" lon="6.89739">
        <ele>291.7</ele>
        <time>2013-05-29T07:31:47Z</time>
      </trkpt>
      <trkpt lat="49.14714" lon="6.89748">
        <ele>292.4</ele>
        <time>2013-05-29T07:31:52Z</time>
      </trkpt>
      <trkpt lat="49.14711" lon="6.89757">
        <ele>292.7</ele>
        <time>2013-05-29T07:31:57Z</time>
      </trkpt>
      <trkpt lat="49.14709" lon="6.89765">
        <ele>293.1</ele>
        <time>2013-05-29T07:32:02Z</time>
      </trkpt>
      <trkpt lat="49.14706" lon="6.89772">
        <ele>292.5</ele>
        <time>2013-05-29T07:32:07Z</time>
      </trkpt>
      <trkpt lat="49.14702" lon="6.8978">
        <ele>293</ele>
        <time>2013-05-29T07:32:12Z</time>
      </trkpt>
      <trkpt lat="49.14702" lon="6.89782">
        <ele>292.9</ele>
        <time>2013-05-29T07:32:13Z</time>
      </trkpt>
      <trkpt lat="49.14696" lon="6.89796">
        <ele>292.8</ele>
        <time>2013-05-29T07:32:22Z</time>
      </trkpt>
      <trkpt lat="49.14692" lon="6.89804">
        <ele>292.9</ele>
        <time>2013-05-29T07:32:27Z</time>
      </trkpt>
      <trkpt lat="49.14689" lon="6.89811">
        <ele>292.9</ele>
        <time>2013-05-29T07:32:32Z</time>
      </trkpt>
      <trkpt lat="49.14686" lon="6.89819">
        <ele>293.2</ele>
        <time>2013-05-29T07:32:37Z</time>
      </trkpt>
      <trkpt lat="49.14682" lon="6.89828">
        <ele>293.7</ele>
        <time>2013-05-29T07:32:42Z</time>
      </trkpt>
      <trkpt lat="49.14678" lon="6.89836">
        <ele>293.1</ele>
        <time>2013-05-29T07:32:47Z</time>
      </trkpt>
      <trkpt lat="49.14674" lon="6.89844">
        <ele>293.5</ele>
        <time>2013-05-29T07:32:52Z</time>
      </trkpt>
      <trkpt lat="49.14671" lon="6.89851">
        <ele>293.5</ele>
        <time>2013-05-29T07:32:57Z</time>
      </trkpt>
      <trkpt lat="49.14667" lon="6.89858">
        <ele>293.9</ele>
        <time>2013-05-29T07:33:02Z</time>
      </trkpt>
      <trkpt lat="49.14663" lon="6.89865">
        <ele>293.4</ele>
        <time>2013-05-29T07:33:07Z</time>
      </trkpt>
      <trkpt lat="49.14657" lon="6.89873">
        <ele>293.9</ele>
        <time>2013-05-29T07:33:12Z</time>
      </trkpt>
      <trkpt lat="49.14652" lon="6.89879">
        <ele>293.8</ele>
        <time>2013-05-29T07:33:17Z</time>
      </trkpt>
      <trkpt lat="49.14651" lon="6.8988">
        <ele>293.9</ele>
        <time>2013-05-29T07:33:18Z</time>
      </trkpt>
      <trkpt lat="49.14643" lon="6.8989">
        <ele>294.8</ele>
        <time>2013-05-29T07:33:27Z</time>
      </trkpt>
      <trkpt lat="49.14637" lon="6.89896">
        <ele>294.5</ele>
        <time>2013-05-29T07:33:32Z</time>
      </trkpt>
      <trkpt lat="49.14631" lon="6.89901">
        <ele>294.5</ele>
        <time>2013-05-29T07:33:37Z</time>
      </trkpt>
      <trkpt lat="49.14624" lon="6.89905">
        <ele>294.8</ele>
        <time>2013-05-29T07:33:42Z</time>
      </trkpt>
      <trkpt lat="49.14618" lon="6.89908">
        <ele>294.8</ele>
        <time>2013-05-29T07:33:47Z</time>
      </trkpt>
      <trkpt lat="49.14611" lon="6.89911">
        <ele>295.8</ele>
        <time>2013-05-29T07:33:52Z</time>
      </trkpt>
      <trkpt lat="49.14602" lon="6.89913">
        <ele>296.1</ele>
        <time>2013-05-29T07:33:57Z</time>
      </trkpt>
      <trkpt lat="49.14594" lon="6.89915">
        <ele>296.2</ele>
        <time>2013-05-29T07:34:02Z</time>
      </trkpt>
      <trkpt lat="49.14586" lon="6.89918">
        <ele>296.7</ele>
        <time>2013-05-29T07:34:07Z</time>
      </trkpt>
      <trkpt lat="49.14579" lon="6.8992">
        <ele>296.4</ele>
        <time>2013-05-29T07:34:12Z</time>
      </trkpt>
      <trkpt lat="49.14572" lon="6.89922">
        <ele>296.2</ele>
        <time>2013-05-29T07:34:17Z</time>
      </trkpt>
      <trkpt lat="49.14566" lon="6.89924">
        <ele>296.8</ele>
        <time>2013-05-29T07:34:22Z</time>
      </trkpt>
      <trkpt lat="49.14565" lon="6.89924">
        <ele>296.6</ele>
        <time>2013-05-29T07:34:23Z</time>
      </trkpt>
      <trkpt lat="49.14554" lon="6.89928">
        <ele>297.6</ele>
        <time>2013-05-29T07:34:32Z</time>
      </trkpt>
      <trkpt lat="49.14548" lon="6.8993">
        <ele>298</ele>
        <time>2013-05-29T07:34:37Z</time>
      </trkpt>
      <trkpt lat="49.14542" lon="6.89931">
        <ele>298.2</ele>
        <time>2013-05-29T07:34:42Z</time>
      </trkpt>
      <trkpt lat="49.14537" lon="6.89933">
        <ele>298</ele>
        <time>2013-05-29T07:34:47Z</time>
      </trkpt>
      <trkpt lat="49.14531" lon="6.89936">
        <ele>298.7</ele>
        <time>2013-05-29T07:34:52Z</time>
      </trkpt>
      <trkpt lat="49.14526" lon="6.89937">
        <ele>299</ele>
        <time>2013-05-29T07:34:57Z</time>
      </trkpt>
      <trkpt lat="49.14522" lon="6.89939">
        <ele>299.3</ele>
        <time>2013-05-29T07:35:02Z</time>
      </trkpt>
      <trkpt lat="49.14515" lon="6.89942">
        <ele>299.7</ele>
        <time>2013-05-29T07:35:07Z</time>
      </trkpt>
      <trkpt lat="49.1451" lon="6.89946">
        <ele>299.6</ele>
        <time>2013-05-29T07:35:12Z</time>
      </trkpt>
      <trkpt lat="49.14504" lon="6.8995">
        <ele>300.2</ele>
        <time>2013-05-29T07:35:17Z</time>
      </trkpt>
      <trkpt lat="49.145" lon="6.89955">
        <ele>300.6</ele>
        <time>2013-05-29T07:35:22Z</time>
      </trkpt>
      <trkpt lat="49.14495" lon="6.89961">
        <ele>301.3</ele>
        <time>2013-05-29T07:35:27Z</time>
      </trkpt>
      <trkpt lat="49.14494" lon="6.89963">
        <ele>301.6</ele>
        <time>2013-05-29T07:35:28Z</time>
      </trkpt>
      <trkpt lat="49.14488" lon="6.89976">
        <ele>302.1</ele>
        <time>2013-05-29T07:35:37Z</time>
      </trkpt>
      <trkpt lat="49.14483" lon="6.89983">
        <ele>302.4</ele>
        <time>2013-05-29T07:35:42Z</time>
      </trkpt>
      <trkpt lat="49.14479" lon="6.89991">
        <ele>302.6</ele>
        <time>2013-05-29T07:35:47Z</time>
      </trkpt>
      <trkpt lat="49.14475" lon="6.89998">
        <ele>303</ele>
        <time>2013-05-29T07:35:52Z</time>
      </trkpt>
      <trkpt lat="49.14472" lon="6.90006">
        <ele>303</ele>
        <time>2013-05-29T07:35:57Z</time>
      </trkpt>
      <trkpt lat="49.1447" lon="6.90012">
        <ele>304.6</ele>
        <time>2013-05-29T07:36:02Z</time>
      </trkpt>
      <trkpt lat="49.14469" lon="6.9002">
        <ele>304.1</ele>
        <time>2013-05-29T07:36:07Z</time>
      </trkpt>
      <trkpt lat="49.14466" lon="6.90029">
        <ele>304.2</ele>
        <time>2013-05-29T07:36:12Z</time>
      </trkpt>
      <trkpt lat="49.14465" lon="6.90039">
        <ele>304.3</ele>
        <time>2013-05-29T07:36:17Z</time>
      </trkpt>
      <trkpt lat="49.14463" lon="6.90049">
        <ele>304.2</ele>
        <time>2013-05-29T07:36:22Z</time>
      </trkpt>
      <trkpt lat="49.14461" lon="6.90059">
        <ele>303.8</ele>
        <time>2013-05-29T07:36:27Z</time>
      </trkpt>
      <trkpt lat="49.1446" lon="6.90068">
        <ele>304.6</ele>
        <time>2013-05-29T07:36:32Z</time>
      </trkpt>
      <trkpt lat="49.1446" lon="6.9007">
        <ele>304.8</ele>
        <time>2013-05-29T07:36:33Z</time>
      </trkpt>
      <trkpt lat="49.14456" lon="6.90085">
        <ele>304.4</ele>
        <time>2013-05-29T07:36:42Z</time>
      </trkpt>
      <trkpt lat="49.14454" lon="6.90093">
        <ele>304.7</ele>
        <time>2013-05-29T07:36:47Z</time>
      </trkpt>
      <trkpt lat="49.14451" lon="6.90102">
        <ele>304.6</ele>
        <time>2013-05-29T07:36:52Z</time>
      </trkpt>
      <trkpt lat="49.14448" lon="6.9011">
        <ele>304.9</ele>
        <time>2013-05-29T07:36:57Z</time>
      </trkpt>
      <trkpt lat="49.14445" lon="6.90118">
        <ele>304.4</ele>
        <time>2013-05-29T07:37:02Z</time>
      </trkpt>
      <trkpt lat="49.14442" lon="6.90127">
        <ele>304.9</ele>
        <time>2013-05-29T07:37:07Z</time>
      </trkpt>
      <trkpt lat="49.1444" lon="6.90137">
        <ele>304.3</ele>
        <time>2013-05-29T07:37:12Z</time>
      </trkpt>
      <trkpt lat="49.14438" lon="6.90146">
        <ele>303.5</ele>
        <time>2013-05-29T07:37:17Z</time>
      </trkpt>
      <trkpt lat="49.14438" lon="6.90156">
        <ele>303.2</ele>
        <time>2013-05-29T07:37:22Z</time>
      </trkpt>
      <trkpt lat="49.14436" lon="6.90165">
        <ele>303.8</ele>
        <time>2013-05-29T07:37:27Z</time>
      </trkpt>
      <trkpt lat="49.14436" lon="6.90174">
        <ele>303.1</ele>
        <time>2013-05-29T07:37:32Z</time>
      </trkpt>
      <trkpt lat="49.14435" lon="6.90184">
        <ele>303.5</ele>
        <time>2013-05-29T07:37:37Z</time>
      </trkpt>
      <trkpt lat="49.14434" lon="6.90186">
        <ele>303.5</ele>
        <time>2013-05-29T07:37:38Z</time>
      </trkpt>
      <trkpt lat="49.14435" lon="6.90202">
        <ele>303.3</ele>
        <time>2013-05-29T07:37:47Z</time>
      </trkpt>
      <trkpt lat="49.14434" lon="6.90212">
        <ele>303.2</ele>
        <time>2013-05-29T07:37:52Z</time>
      </trkpt>
      <trkpt lat="49.14433" lon="6.9022">
        <ele>303.8</ele>
        <time>2013-05-29T07:37:57Z</time>
      </trkpt>
      <trkpt lat="49.14431" lon="6.90229">
        <ele>303.8</ele>
        <time>2013-05-29T07:38:02Z</time>
      </trkpt>
      <trkpt lat="49.14429" lon="6.90239">
        <ele>303.5</ele>
        <time>2013-05-29T07:38:07Z</time>
      </trkpt>
      <trkpt lat="49.14427" lon="6.90249">
        <ele>303.7</ele>
        <time>2013-05-29T07:38:12Z</time>
      </trkpt>
      <trkpt lat="49.14426" lon="6.90258">
        <ele>303.9</ele>
        <time>2013-05-29T07:38:17Z</time>
      </trkpt>
      <trkpt lat="49.14423" lon="6.90267">
        <ele>303.2</ele>
        <time>2013-05-29T07:38:22Z</time>
      </trkpt>
      <trkpt lat="49.1442" lon="6.90276">
        <ele>302.6</ele>
        <time>2013-05-29T07:38:27Z</time>
      </trkpt>
      <trkpt lat="49.14419" lon="6.90283">
        <ele>303</ele>
        <time>2013-05-29T07:38:32Z</time>
      </trkpt>
      <trkpt lat="49.14416" lon="6.90291">
        <ele>303.2</ele>
        <time>2013-05-29T07:38:37Z</time>
      </trkpt>
      <trkpt lat="49.14415" lon="6.90299">
        <ele>303.3</ele>
        <time>2013-05-29T07:38:42Z</time>
      </trkpt>
      <trkpt lat="49.14415" lon="6.903">
        <ele>303.3</ele>
        <time>2013-05-29T07:38:43Z</time>
      </trkpt>
      <trkpt lat="49.14412" lon="6.90314">
        <ele>302.6</ele>
        <time>2013-05-29T07:38:52Z</time>
      </trkpt>
      <trkpt lat="49.1441" lon="6.90322">
        <ele>303.1</ele>
        <time>2013-05-29T07:38:57Z</time>
      </trkpt>
      <trkpt lat="49.14409" lon="6.90331">
        <ele>303</ele>
        <time>2013-05-29T07:39:02Z</time>
      </trkpt>
      <trkpt lat="49.14407" lon="6.90341">
        <ele>302.8</ele>
        <time>2013-05-29T07:39:07Z</time>
      </trkpt>
      <trkpt lat="49.14405" lon="6.90351">
        <ele>303</ele>
        <time>2013-05-29T07:39:12Z</time>
      </trkpt>
      <trkpt lat="49.14403" lon="6.90359">
        <ele>302.6</ele>
        <time>2013-05-29T07:39:17Z</time>
      </trkpt>
      <trkpt lat="49.14401" lon="6.90365">
        <ele>303.2</ele>
        <time>2013-05-29T07:39:22Z</time>
      </trkpt>
      <trkpt lat="49.14399" lon="6.90373">
        <ele>303.1</ele>
        <time>2013-05-29T07:39:27Z</time>
      </trkpt>
      <trkpt lat="49.14395" lon="6.90381">
        <ele>302.9</ele>
        <time>2013-05-29T07:39:32Z</time>
      </trkpt>
      <trkpt lat="49.14392" lon="6.90389">
        <ele>302.9</ele>
        <time>2013-05-29T07:39:37Z</time>
      </trkpt>
      <trkpt lat="49.14389" lon="6.90396">
        <ele>303.1</ele>
        <time>2013-05-29T07:39:42Z</time>
      </trkpt>
      <trkpt lat="49.14386" lon="6.90404">
        <ele>303.2</ele>
        <time>2013-05-29T07:39:47Z</time>
      </trkpt>
      <trkpt lat="49.14385" lon="6.90405">
        <ele>303</ele>
        <time>2013-05-29T07:39:48Z</time>
      </trkpt>
      <trkpt lat="49.14379" lon="6.90419">
        <ele>302.6</ele>
        <time>2013-05-29T07:39:57Z</time>
      </trkpt>
      <trkpt lat="49.14376" lon="6.90427">
        <ele>302.4</ele>
        <time>2013-05-29T07:40:02Z</time>
      </trkpt>
      <trkpt lat="49.14372" lon="6.90433">
        <ele>302.1</ele>
        <time>2013-05-29T07:40:07Z</time>
      </trkpt>
      <trkpt lat="49.14369" lon="6.90441">
        <ele>302</ele>
        <time>2013-05-29T07:40:12Z</time>
      </trkpt>
      <trkpt lat="49.14366" lon="6.90448">
        <ele>302.2</ele>
        <time>2013-05-29T07:40:17Z</time>
      </trkpt>
      <trkpt lat="49.14363" lon="6.90456">
        <ele>302.6</ele>
        <time>2013-05-29T07:40:22Z</time>
      </trkpt>
      <trkpt lat="49.14359" lon="6.90463">
        <ele>302.7</ele>
        <time>2013-05-29T07:40:27Z</time>
      </trkpt>
      <trkpt lat="49.14357" lon="6.90468">
        <ele>302</ele>
        <time>2013-05-29T07:40:32Z</time>
      </trkpt>
      <trkpt lat="49.14354" lon="6.90474">
        <ele>302.7</ele>
        <time>2013-05-29T07:40:37Z</time>
      </trkpt>
      <trkpt lat="49.1435" lon="6.90479">
        <ele>302.7</ele>
        <time>2013-05-29T07:40:42Z</time>
      </trkpt>
      <trkpt lat="49.14347" lon="6.90485">
        <ele>302.9</ele>
        <time>2013-05-29T07:40:47Z</time>
      </trkpt>
      <trkpt lat="49.14346" lon="6.90491">
        <ele>302.1</ele>
        <time>2013-05-29T07:40:52Z</time>
      </trkpt>
      <trkpt lat="49.14345" lon="6.90492">
        <ele>301.9</ele>
        <time>2013-05-29T07:40:53Z</time>
      </trkpt>
      <trkpt lat="49.1434" lon="6.90505">
        <ele>302.3</ele>
        <time>2013-05-29T07:41:02Z</time>
      </trkpt>
      <trkpt lat="49.14336" lon="6.90514">
        <ele>302.6</ele>
        <time>2013-05-29T07:41:07Z</time>
      </trkpt>
      <trkpt lat="49.14335" lon="6.90522">
        <ele>302.6</ele>
        <time>2013-05-29T07:41:12Z</time>
      </trkpt>
      <trkpt lat="49.14334" lon="6.90529">
        <ele>302.6</ele>
        <time>2013-05-29T07:41:17Z</time>
      </trkpt>
      <trkpt lat="49.14334" lon="6.90537">
        <ele>303.3</ele>
        <time>2013-05-29T07:41:22Z</time>
      </trkpt>
      <trkpt lat="49.14332" lon="6.90546">
        <ele>302.9</ele>
        <time>2013-05-29T07:41:27Z</time>
      </trkpt>
      <trkpt lat="49.14332" lon="6.90555">
        <ele>303.5</ele>
        <time>2013-05-29T07:41:32Z</time>
      </trkpt>
      <trkpt lat="49.14332" lon="6.90564">
        <ele>304.4</ele>
        <time>2013-05-29T07:41:37Z</time>
      </trkpt>
      <trkpt lat="49.14333" lon="6.90574">
        <ele>304.5</ele>
        <time>2013-05-29T07:41:42Z</time>
      </trkpt>
      <trkpt lat="49.14334" lon="6.90583">
        <ele>304.3</ele>
        <time>2013-05-29T07:41:47Z</time>
      </trkpt>
      <trkpt lat="49.14335" lon="6.90593">
        <ele>305.1</ele>
        <time>2013-05-29T07:41:52Z</time>
      </trkpt>
      <trkpt lat="49.14336" lon="6.90602">
        <ele>305.1</ele>
        <time>2013-05-29T07:41:57Z</time>
      </trkpt>
      <trkpt lat="49.14336" lon="6.90603">
        <ele>305</ele>
        <time>2013-05-29T07:41:58Z</time>
      </trkpt>
      <trkpt lat="49.14341" lon="6.90618">
        <ele>305.8</ele>
        <time>2013-05-29T07:42:07Z</time>
      </trkpt>
      <trkpt lat="49.14343" lon="6.90626">
        <ele>306.2</ele>
        <time>2013-05-29T07:42:12Z</time>
      </trkpt>
      <trkpt lat="49.14346" lon="6.90634">
        <ele>306.8</ele>
        <time>2013-05-29T07:42:17Z</time>
      </trkpt>
      <trkpt lat="49.14349" lon="6.90643">
        <ele>307.1</ele>
        <time>2013-05-29T07:42:22Z</time>
      </trkpt>
      <trkpt lat="49.14351" lon="6.90652">
        <ele>307.7</ele>
        <time>2013-05-29T07:42:27Z</time>
      </trkpt>
      <trkpt lat="49.14354" lon="6.90661">
        <ele>307.7</ele>
        <time>2013-05-29T07:42:32Z</time>
      </trkpt>
      <trkpt lat="49.14357" lon="6.9067">
        <ele>308.6</ele>
        <time>2013-05-29T07:42:37Z</time>
      </trkpt>
      <trkpt lat="49.1436" lon="6.90678">
        <ele>308.7</ele>
        <time>2013-05-29T07:42:42Z</time>
      </trkpt>
      <trkpt lat="49.14363" lon="6.90687">
        <ele>309</ele>
        <time>2013-05-29T07:42:47Z</time>
      </trkpt>
      <trkpt lat="49.14365" lon="6.90695">
        <ele>309.1</ele>
        <time>2013-05-29T07:42:52Z</time>
      </trkpt>
      <trkpt lat="49.14369" lon="6.90703">
        <ele>309.1</ele>
        <time>2013-05-29T07:42:57Z</time>
      </trkpt>
      <trkpt lat="49.14372" lon="6.90711">
        <ele>309.2</ele>
        <time>2013-05-29T07:43:02Z</time>
      </trkpt>
      <trkpt lat="49.14372" lon="6.90712">
        <ele>309.6</ele>
        <time>2013-05-29T07:43:03Z</time>
      </trkpt>
      <trkpt lat="49.14378" lon="6.90725">
        <ele>310.1</ele>
        <time>2013-05-29T07:43:12Z</time>
      </trkpt>
      <trkpt lat="49.1438" lon="6.90733">
        <ele>310.8</ele>
        <time>2013-05-29T07:43:17Z</time>
      </trkpt>
      <trkpt lat="49.1438" lon="6.90741">
        <ele>310.9</ele>
        <time>2013-05-29T07:43:22Z</time>
      </trkpt>
      <trkpt lat="49.14379" lon="6.90749">
        <ele>310.5</ele>
        <time>2013-05-29T07:43:27Z</time>
      </trkpt>
      <trkpt lat="49.14377" lon="6.90756">
        <ele>310.7</ele>
        <time>2013-05-29T07:43:32Z</time>
      </trkpt>
      <trkpt lat="49.14376" lon="6.90765">
        <ele>310.6</ele>
        <time>2013-05-29T07:43:37Z</time>
      </trkpt>
      <trkpt lat="49.14375" lon="6.90773">
        <ele>309.6</ele>
        <time>2013-05-29T07:43:42Z</time>
      </trkpt>
      <trkpt lat="49.14373" lon="6.90781">
        <ele>309.8</ele>
        <time>2013-05-29T07:43:47Z</time>
      </trkpt>
      <trkpt lat="49.14371" lon="6.90788">
        <ele>310.2</ele>
        <time>2013-05-29T07:43:52Z</time>
      </trkpt>
      <trkpt lat="49.14369" lon="6.90796">
        <ele>309.6</ele>
        <time>2013-05-29T07:43:57Z</time>
      </trkpt>
      <trkpt lat="49.14366" lon="6.90806">
        <ele>309.2</ele>
        <time>2013-05-29T07:44:02Z</time>
      </trkpt>
      <trkpt lat="49.14364" lon="6.90812">
        <ele>309.2</ele>
        <time>2013-05-29T07:44:07Z</time>
      </trkpt>
      <trkpt lat="49.14364" lon="6.90814">
        <ele>309.1</ele>
        <time>2013-05-29T07:44:08Z</time>
      </trkpt>
      <trkpt lat="49.14357" lon="6.90828">
        <ele>309.8</ele>
        <time>2013-05-29T07:44:17Z</time>
      </trkpt>
      <trkpt lat="49.14355" lon="6.90833">
        <ele>310</ele>
        <time>2013-05-29T07:44:22Z</time>
      </trkpt>
      <trkpt lat="49.14351" lon="6.90839">
        <ele>310.7</ele>
        <time>2013-05-29T07:44:27Z</time>
      </trkpt>
      <trkpt lat="49.14347" lon="6.90843">
        <ele>310.7</ele>
        <time>2013-05-29T07:44:32Z</time>
      </trkpt>
      <trkpt lat="49.14342" lon="6.90848">
        <ele>310.2</ele>
        <time>2013-05-29T07:44:37Z</time>
      </trkpt>
      <trkpt lat="49.14335" lon="6.90851">
        <ele>309.8</ele>
        <time>2013-05-29T07:44:42Z</time>
      </trkpt>
      <trkpt lat="49.14329" lon="6.90855">
        <ele>310</ele>
        <time>2013-05-29T07:44:47Z</time>
      </trkpt>
      <trkpt lat="49.14323" lon="6.90857">
        <ele>309.7</ele>
        <time>2013-05-29T07:44:52Z</time>
      </trkpt>
      <trkpt lat="49.14316" lon="6.90861">
        <ele>309.5</ele>
        <time>2013-05-29T07:44:57Z</time>
      </trkpt>
      <trkpt lat="49.14308" lon="6.90863">
        <ele>309.5</ele>
        <time>2013-05-29T07:45:02Z</time>
      </trkpt>
      <trkpt lat="49.14302" lon="6.90866">
        <ele>309.2</ele>
        <time>2013-05-29T07:45:07Z</time>
      </trkpt>
      <trkpt lat="49.14295" lon="6.90869">
        <ele>308.5</ele>
        <time>2013-05-29T07:45:12Z</time>
      </trkpt>
      <trkpt lat="49.14294" lon="6.90869">
        <ele>308.6</ele>
        <time>2013-05-29T07:45:13Z</time>
      </trkpt>
      <trkpt lat="49.14282" lon="6.90876">
        <ele>308.4</ele>
        <time>2013-05-29T07:45:22Z</time>
      </trkpt>
      <trkpt lat="49.14275" lon="6.90878">
        <ele>307.8</ele>
        <time>2013-05-29T07:45:27Z</time>
      </trkpt>
      <trkpt lat="49.1427" lon="6.9088">
        <ele>307.9</ele>
        <time>2013-05-29T07:45:32Z</time>
      </trkpt>
      <trkpt lat="49.14264" lon="6.90882">
        <ele>307.1</ele>
        <time>2013-05-29T07:45:37Z</time>
      </trkpt>
      <trkpt lat="49.14258" lon="6.90884">
        <ele>307.5</ele>
        <time>2013-05-29T07:45:42Z</time>
      </trkpt>
      <trkpt lat="49.14252" lon="6.90887">
        <ele>306.9</ele>
        <time>2013-05-29T07:45:47Z</time>
      </trkpt>
      <trkpt lat="49.14245" lon="6.90889">
        <ele>306.9</ele>
        <time>2013-05-29T07:45:52Z</time>
      </trkpt>
      <trkpt lat="49.14238" lon="6.90892">
        <ele>306.9</ele>
        <time>2013-05-29T07:45:57Z</time>
      </trkpt>
      <trkpt lat="49.14231" lon="6.90893">
        <ele>306.5</ele>
        <time>2013-05-29T07:46:02Z</time>
      </trkpt>
      <trkpt lat="49.14224" lon="6.90892">
        <ele>306.7</ele>
        <time>2013-05-29T07:46:07Z</time>
      </trkpt>
      <trkpt lat="49.14219" lon="6.90892">
        <ele>306.6</ele>
        <time>2013-05-29T07:46:12Z</time>
      </trkpt>
      <trkpt lat="49.14213" lon="6.9089">
        <ele>306</ele>
        <time>2013-05-29T07:46:17Z</time>
      </trkpt>
      <trkpt lat="49.14211" lon="6.9089">
        <ele>306.1</ele>
        <time>2013-05-29T07:46:18Z</time>
      </trkpt>
      <trkpt lat="49.14201" lon="6.9089">
        <ele>306.5</ele>
        <time>2013-05-29T07:46:27Z</time>
      </trkpt>
      <trkpt lat="49.14194" lon="6.90891">
        <ele>306.9</ele>
        <time>2013-05-29T07:46:32Z</time>
      </trkpt>
      <trkpt lat="49.14187" lon="6.90892">
        <ele>306.9</ele>
        <time>2013-05-29T07:46:37Z</time>
      </trkpt>
      <trkpt lat="49.14181" lon="6.90892">
        <ele>307.1</ele>
        <time>2013-05-29T07:46:42Z</time>
      </trkpt>
      <trkpt lat="49.14175" lon="6.90893">
        <ele>306.9</ele>
        <time>2013-05-29T07:46:47Z</time>
      </trkpt>
      <trkpt lat="49.14169" lon="6.90894">
        <ele>307.9</ele>
        <time>2013-05-29T07:46:52Z</time>
      </trkpt>
      <trkpt lat="49.14163" lon="6.90896">
        <ele>308.5</ele>
        <time>2013-05-29T07:46:57Z</time>
      </trkpt>
      <trkpt lat="49.14156" lon="6.90897">
        <ele>308.7</ele>
        <time>2013-05-29T07:47:02Z</time>
      </trkpt>
      <trkpt lat="49.1415" lon="6.90899">
        <ele>308.8</ele>
        <time>2013-05-29T07:47:07Z</time>
      </trkpt>
      <trkpt lat="49.14145" lon="6.909">
        <ele>308.9</ele>
        <time>2013-05-29T07:47:12Z</time>
      </trkpt>
      <trkpt lat="49.1414" lon="6.90902">
        <ele>309.4</ele>
        <time>2013-05-29T07:47:17Z</time>
      </trkpt>
      <trkpt lat="49.14135" lon="6.90904">
        <ele>309</ele>
        <time>2013-05-29T07:47:22Z</time>
      </trkpt>
      <trkpt lat="49.14133" lon="6.90904">
        <ele>308.9</ele>
        <time>2013-05-29T07:47:23Z</time>
      </trkpt>
      <trkpt lat="49.14122" lon="6.90907">
        <ele>309.2</ele>
        <time>2013-05-29T07:47:32Z</time>
      </trkpt>
      <trkpt lat="49.14116" lon="6.9091">
        <ele>308.9</ele>
        <time>2013-05-29T07:47:37Z</time>
      </trkpt>
      <trkpt lat="49.14109" lon="6.90913">
        <ele>308.4</ele>
        <time>2013-05-29T07:47:42Z</time>
      </trkpt>
      <trkpt lat="49.14104" lon="6.90915">
        <ele>308.7</ele>
        <time>2013-05-29T07:47:47Z</time>
      </trkpt>
      <trkpt lat="49.14099" lon="6.90917">
        <ele>309.5</ele>
        <time>2013-05-29T07:47:52Z</time>
      </trkpt>
      <trkpt lat="49.14094" lon="6.90919">
        <ele>309.3</ele>
        <time>2013-05-29T07:47:57Z</time>
      </trkpt>
      <trkpt lat="49.14087" lon="6.90922">
        <ele>308.8</ele>
        <time>2013-05-29T07:48:02Z</time>
      </trkpt>
      <trkpt lat="49.14081" lon="6.90925">
        <ele>308</ele>
        <time>2013-05-29T07:48:07Z</time>
      </trkpt>
      <trkpt lat="49.14075" lon="6.9093">
        <ele>308.1</ele>
        <time>2013-05-29T07:48:12Z</time>
      </trkpt>
      <trkpt lat="49.14069" lon="6.90934">
        <ele>307.6</ele>
        <time>2013-05-29T07:48:17Z</time>
      </trkpt>
      <trkpt lat="49.14063" lon="6.90939">
        <ele>306.9</ele>
        <time>2013-05-29T07:48:22Z</time>
      </trkpt>
      <trkpt lat="49.14057" lon="6.90943">
        <ele>306.9</ele>
        <time>2013-05-29T07:48:27Z</time>
      </trkpt>
      <trkpt lat="49.14056" lon="6.90944">
        <ele>306.8</ele>
        <time>2013-05-29T07:48:28Z</time>
      </trkpt>
      <trkpt lat="49.14045" lon="6.90952">
        <ele>306.9</ele>
        <time>2013-05-29T07:48:37Z</time>
      </trkpt>
      <trkpt lat="49.14041" lon="6.90957">
        <ele>307</ele>
        <time>2013-05-29T07:48:42Z</time>
      </trkpt>
      <trkpt lat="49.14037" lon="6.90962">
        <ele>306.7</ele>
        <time>2013-05-29T07:48:47Z</time>
      </trkpt>
      <trkpt lat="49.14032" lon="6.90966">
        <ele>305.9</ele>
        <time>2013-05-29T07:48:52Z</time>
      </trkpt>
      <trkpt lat="49.14028" lon="6.90972">
        <ele>305.5</ele>
        <time>2013-05-29T07:48:57Z</time>
      </trkpt>
      <trkpt lat="49.14023" lon="6.90977">
        <ele>305</ele>
        <time>2013-05-29T07:49:02Z</time>
      </trkpt>
      <trkpt lat="49.14019" lon="6.90981">
        <ele>304.3</ele>
        <time>2013-05-29T07:49:07Z</time>
      </trkpt>
      <trkpt lat="49.14014" lon="6.90987">
        <ele>304</ele>
        <time>2013-05-29T07:49:12Z</time>
      </trkpt>
      <trkpt lat="49.14008" lon="6.90993">
        <ele>303.8</ele>
        <time>2013-05-29T07:49:17Z</time>
      </trkpt>
      <trkpt lat="49.14003" lon="6.90998">
        <ele>304.2</ele>
        <time>2013-05-29T07:49:22Z</time>
      </trkpt>
      <trkpt lat="49.13996" lon="6.91004">
        <ele>304</ele>
        <time>2013-05-29T07:49:27Z</time>
      </trkpt>
      <trkpt lat="49.1399" lon="6.9101">
        <ele>303.8</ele>
        <time>2013-05-29T07:49:32Z</time>
      </trkpt>
      <trkpt lat="49.13988" lon="6.91012">
        <ele>303.6</ele>
        <time>2013-05-29T07:49:33Z</time>
      </trkpt>
      <trkpt lat="49.13977" lon="6.91022">
        <ele>303.1</ele>
        <time>2013-05-29T07:49:42Z</time>
      </trkpt>
      <trkpt lat="49.13971" lon="6.91026">
        <ele>302.7</ele>
        <time>2013-05-29T07:49:47Z</time>
      </trkpt>
      <trkpt lat="49.13965" lon="6.9103">
        <ele>303.2</ele>
        <time>2013-05-29T07:49:52Z</time>
      </trkpt>
      <trkpt lat="49.13959" lon="6.91033">
        <ele>302.6</ele>
        <time>2013-05-29T07:49:57Z</time>
      </trkpt>
      <trkpt lat="49.13953" lon="6.91037">
        <ele>303.1</ele>
        <time>2013-05-29T07:50:02Z</time>
      </trkpt>
      <trkpt lat="49.13948" lon="6.9104">
        <ele>303.3</ele>
        <time>2013-05-29T07:50:07Z</time>
      </trkpt>
      <trkpt lat="49.13942" lon="6.91044">
        <ele>302.9</ele>
        <time>2013-05-29T07:50:12Z</time>
      </trkpt>
      <trkpt lat="49.13936" lon="6.91047">
        <ele>303</ele>
        <time>2013-05-29T07:50:17Z</time>
      </trkpt>
      <trkpt lat="49.13929" lon="6.91053">
        <ele>303.6</ele>
        <time>2013-05-29T07:50:22Z</time>
      </trkpt>
      <trkpt lat="49.13924" lon="6.91058">
        <ele>303.6</ele>
        <time>2013-05-29T07:50:27Z</time>
      </trkpt>
      <trkpt lat="49.13918" lon="6.91065">
        <ele>303.7</ele>
        <time>2013-05-29T07:50:32Z</time>
      </trkpt>
      <trkpt lat="49.13915" lon="6.91069">
        <ele>304.2</ele>
        <time>2013-05-29T07:50:37Z</time>
      </trkpt>
      <trkpt lat="49.13914" lon="6.9107">
        <ele>303.9</ele>
        <time>2013-05-29T07:50:38Z</time>
      </trkpt>
      <trkpt lat="49.13907" lon="6.9108">
        <ele>303.2</ele>
        <time>2013-05-29T07:50:47Z</time>
      </trkpt>
      <trkpt lat="49.13902" lon="6.91086">
        <ele>303.5</ele>
        <time>2013-05-29T07:50:52Z</time>
      </trkpt>
      <trkpt lat="49.13897" lon="6.91092">
        <ele>303.3</ele>
        <time>2013-05-29T07:50:57Z</time>
      </trkpt>
      <trkpt lat="49.13893" lon="6.91097">
        <ele>303.3</ele>
        <time>2013-05-29T07:51:02Z</time>
      </trkpt>
      <trkpt lat="49.13888" lon="6.91102">
        <ele>303.6</ele>
        <time>2013-05-29T07:51:07Z</time>
      </trkpt>
      <trkpt lat="49.13885" lon="6.91107">
        <ele>303.4</ele>
        <time>2013-05-29T07:51:12Z</time>
      </trkpt>
      <trkpt lat="49.13881" lon="6.91112">
        <ele>303.3</ele>
        <time>2013-05-29T07:51:17Z</time>
      </trkpt>
      <trkpt lat="49.13876" lon="6.91116">
        <ele>303.3</ele>
        <time>2013-05-29T07:51:22Z</time>
      </trkpt>
      <trkpt lat="49.13873" lon="6.91122">
        <ele>304</ele>
        <time>2013-05-29T07:51:27Z</time>
      </trkpt>
      <trkpt lat="49.13868" lon="6.91127">
        <ele>303.9</ele>
        <time>2013-05-29T07:51:32Z</time>
      </trkpt>
      <trkpt lat="49.13863" lon="6.91133">
        <ele>303.4</ele>
        <time>2013-05-29T07:51:37Z</time>
      </trkpt>
      <trkpt lat="49.13859" lon="6.91138">
        <ele>303.7</ele>
        <time>2013-05-29T07:51:42Z</time>
      </trkpt>
      <trkpt lat="49.13858" lon="6.91139">
        <ele>303.9</ele>
        <time>2013-05-29T07:51:43Z</time>
      </trkpt>
      <trkpt lat="49.1385" lon="6.9115">
        <ele>303.5</ele>
        <time>2013-05-29T07:51:52Z</time>
      </trkpt>
      <trkpt lat="49.13846" lon="6.91155">
        <ele>303.8</ele>
        <time>2013-05-29T07:51:57Z</time>
      </trkpt>
      <trkpt lat="49.13842" lon="6.9116">
        <ele>303.8</ele>
        <time>2013-05-29T07:52:02Z</time>
      </trkpt>
      <trkpt lat="49.13838" lon="6.91165">
        <ele>304.4</ele>
        <time>2013-05-29T07:52:07Z</time>
      </trkpt>
      <trkpt lat="49.13835" lon="6.9117">
        <ele>303.7</ele>
        <time>2013-05-29T07:52:12Z</time>
      </trkpt>
      <trkpt lat="49.13833" lon="6.91174">
        <ele>304.3</ele>
        <time>2013-05-29T07:52:17Z</time>
      </trkpt>
      <trkpt lat="49.13831" lon="6.91179">
        <ele>305</ele>
        <time>2013-05-29T07:52:22Z</time>
      </trkpt>
      <trkpt lat="49.13828" lon="6.91184">
        <ele>305.9</ele>
        <time>2013-05-29T07:52:27Z</time>
      </trkpt>
      <trkpt lat="49.13826" lon="6.91192">
        <ele>305.7</ele>
        <time>2013-05-29T07:52:32Z</time>
      </trkpt>
      <trkpt lat="49.13826" lon="6.912">
        <ele>305.7</ele>
        <time>2013-05-29T07:52:37Z</time>
      </trkpt>
      <trkpt lat="49.13824" lon="6.91205">
        <ele>305.5</ele>
        <time>2013-05-29T07:52:42Z</time>
      </trkpt>
      <trkpt lat="49.13821" lon="6.91211">
        <ele>306.6</ele>
        <time>2013-05-29T07:52:47Z</time>
      </trkpt>
      <trkpt lat="49.13821" lon="6.91212">
        <ele>306.4</ele>
        <time>2013-05-29T07:52:48Z</time>
      </trkpt>
      <trkpt lat="49.13816" lon="6.9122">
        <ele>307.3</ele>
        <time>2013-05-29T07:52:57Z</time>
      </trkpt>
      <trkpt lat="49.13812" lon="6.91223">
        <ele>307.3</ele>
        <time>2013-05-29T07:53:02Z</time>
      </trkpt>
      <trkpt lat="49.13809" lon="6.9123">
        <ele>308.1</ele>
        <time>2013-05-29T07:53:07Z</time>
      </trkpt>
      <trkpt lat="49.13805" lon="6.91234">
        <ele>307.7</ele>
        <time>2013-05-29T07:53:12Z</time>
      </trkpt>
      <trkpt lat="49.13801" lon="6.91237">
        <ele>307.8</ele>
        <time>2013-05-29T07:53:17Z</time>
      </trkpt>
      <trkpt lat="49.13796" lon="6.9124">
        <ele>308.7</ele>
        <time>2013-05-29T07:53:22Z</time>
      </trkpt>
      <trkpt lat="49.13791" lon="6.9124">
        <ele>309.1</ele>
        <time>2013-05-29T07:53:27Z</time>
      </trkpt>
      <trkpt lat="49.13787" lon="6.91244">
        <ele>309.5</ele>
        <time>2013-05-29T07:53:32Z</time>
      </trkpt>
      <trkpt lat="49.13783" lon="6.91247">
        <ele>309.1</ele>
        <time>2013-05-29T07:53:37Z</time>
      </trkpt>
      <trkpt lat="49.13778" lon="6.91249">
        <ele>308.9</ele>
        <time>2013-05-29T07:53:42Z</time>
      </trkpt>
      <trkpt lat="49.13773" lon="6.91248">
        <ele>308.8</ele>
        <time>2013-05-29T07:53:47Z</time>
      </trkpt>
      <trkpt lat="49.13769" lon="6.91248">
        <ele>309.5</ele>
        <time>2013-05-29T07:53:52Z</time>
      </trkpt>
      <trkpt lat="49.13767" lon="6.91249">
        <ele>309.5</ele>
        <time>2013-05-29T07:53:53Z</time>
      </trkpt>
      <trkpt lat="49.13763" lon="6.91251">
        <ele>309.5</ele>
        <time>2013-05-29T07:54:02Z</time>
      </trkpt>
      <trkpt lat="49.1376" lon="6.91253">
        <ele>310.1</ele>
        <time>2013-05-29T07:54:07Z</time>
      </trkpt>
      <trkpt lat="49.13756" lon="6.91256">
        <ele>310.3</ele>
        <time>2013-05-29T07:54:12Z</time>
      </trkpt>
      <trkpt lat="49.13754" lon="6.91261">
        <ele>310.2</ele>
        <time>2013-05-29T07:54:17Z</time>
      </trkpt>
      <trkpt lat="49.13751" lon="6.91264">
        <ele>310.4</ele>
        <time>2013-05-29T07:54:22Z</time>
      </trkpt>
      <trkpt lat="49.13748" lon="6.91269">
        <ele>309.8</ele>
        <time>2013-05-29T07:54:27Z</time>
      </trkpt>
      <trkpt lat="49.13746" lon="6.91273">
        <ele>310</ele>
        <time>2013-05-29T07:54:32Z</time>
      </trkpt>
      <trkpt lat="49.13741" lon="6.91278">
        <ele>311.1</ele>
        <time>2013-05-29T07:54:37Z</time>
      </trkpt>
      <trkpt lat="49.13736" lon="6.91281">
        <ele>310.4</ele>
        <time>2013-05-29T07:54:42Z</time>
      </trkpt>
      <trkpt lat="49.13733" lon="6.91285">
        <ele>309.9</ele>
        <time>2013-05-29T07:54:47Z</time>
      </trkpt>
      <trkpt lat="49.13731" lon="6.9129">
        <ele>311</ele>
        <time>2013-05-29T07:54:52Z</time>
      </trkpt>
      <trkpt lat="49.13728" lon="6.91294">
        <ele>311.1</ele>
        <time>2013-05-29T07:54:57Z</time>
      </trkpt>
      <trkpt lat="49.13728" lon="6.91295">
        <ele>311.2</ele>
        <time>2013-05-29T07:54:58Z</time>
      </trkpt>
      <trkpt lat="49.13723" lon="6.91306">
        <ele>311.1</ele>
        <time>2013-05-29T07:55:07Z</time>
      </trkpt>
      <trkpt lat="49.13721" lon="6.9131">
        <ele>311.3</ele>
        <time>2013-05-29T07:55:12Z</time>
      </trkpt>
      <trkpt lat="49.13717" lon="6.91316">
        <ele>310.6</ele>
        <time>2013-05-29T07:55:17Z</time>
      </trkpt>
      <trkpt lat="49.13713" lon="6.91321">
        <ele>310.5</ele>
        <time>2013-05-29T07:55:22Z</time>
      </trkpt>
      <trkpt lat="49.1371" lon="6.91326">
        <ele>310.8</ele>
        <time>2013-05-29T07:55:27Z</time>
      </trkpt>
      <trkpt lat="49.13707" lon="6.91332">
        <ele>310.6</ele>
        <time>2013-05-29T07:55:32Z</time>
      </trkpt>
      <trkpt lat="49.13706" lon="6.91338">
        <ele>310.9</ele>
        <time>2013-05-29T07:55:37Z</time>
      </trkpt>
      <trkpt lat="49.13707" lon="6.91342">
        <ele>310.8</ele>
        <time>2013-05-29T07:55:42Z</time>
      </trkpt>
      <trkpt lat="49.1371" lon="6.91343">
        <ele>311</ele>
        <time>2013-05-29T07:55:47Z</time>
      </trkpt>
      <trkpt lat="49.13712" lon="6.91343">
        <ele>310.6</ele>
        <time>2013-05-29T07:55:52Z</time>
      </trkpt>
      <trkpt lat="49.13716" lon="6.91344">
        <ele>309.8</ele>
        <time>2013-05-29T07:55:57Z</time>
      </trkpt>
      <trkpt lat="49.13719" lon="6.91346">
        <ele>309.8</ele>
        <time>2013-05-29T07:56:02Z</time>
      </trkpt>
      <trkpt lat="49.1372" lon="6.91346">
        <ele>309.8</ele>
        <time>2013-05-29T07:56:03Z</time>
      </trkpt>
      <trkpt lat="49.13728" lon="6.91349">
        <ele>310.5</ele>
        <time>2013-05-29T07:56:12Z</time>
      </trkpt>
      <trkpt lat="49.13733" lon="6.91352">
        <ele>310.7</ele>
        <time>2013-05-29T07:56:17Z</time>
      </trkpt>
      <trkpt lat="49.13739" lon="6.91352">
        <ele>310.1</ele>
        <time>2013-05-29T07:56:22Z</time>
      </trkpt>
      <trkpt lat="49.13744" lon="6.91354">
        <ele>310</ele>
        <time>2013-05-29T07:56:27Z</time>
      </trkpt>
      <trkpt lat="49.1375" lon="6.91356">
        <ele>310.3</ele>
        <time>2013-05-29T07:56:32Z</time>
      </trkpt>
      <trkpt lat="49.13754" lon="6.91358">
        <ele>309.9</ele>
        <time>2013-05-29T07:56:37Z</time>
      </trkpt>
      <trkpt lat="49.13759" lon="6.91361">
        <ele>310.2</ele>
        <time>2013-05-29T07:56:42Z</time>
      </trkpt>
      <trkpt lat="49.13763" lon="6.91363">
        <ele>310.3</ele>
        <time>2013-05-29T07:56:47Z</time>
      </trkpt>
      <trkpt lat="49.13768" lon="6.91366">
        <ele>310.4</ele>
        <time>2013-05-29T07:56:52Z</time>
      </trkpt>
      <trkpt lat="49.13774" lon="6.91368">
        <ele>310.9</ele>
        <time>2013-05-29T07:56:57Z</time>
      </trkpt>
      <trkpt lat="49.13779" lon="6.9137">
        <ele>311.2</ele>
        <time>2013-05-29T07:57:02Z</time>
      </trkpt>
      <trkpt lat="49.13785" lon="6.91372">
        <ele>311.3</ele>
        <time>2013-05-29T07:57:07Z</time>
      </trkpt>
      <trkpt lat="49.13786" lon="6.91372">
        <ele>311.3</ele>
        <time>2013-05-29T07:57:08Z</time>
      </trkpt>
      <trkpt lat="49.13795" lon="6.91377">
        <ele>310.7</ele>
        <time>2013-05-29T07:57:17Z</time>
      </trkpt>
      <trkpt lat="49.13799" lon="6.9138">
        <ele>310.7</ele>
        <time>2013-05-29T07:57:22Z</time>
      </trkpt>
      <trkpt lat="49.13804" lon="6.91381">
        <ele>310.6</ele>
        <time>2013-05-29T07:57:27Z</time>
      </trkpt>
      <trkpt lat="49.13809" lon="6.91383">
        <ele>311.4</ele>
        <time>2013-05-29T07:57:32Z</time>
      </trkpt>
      <trkpt lat="49.13814" lon="6.91385">
        <ele>311.5</ele>
        <time>2013-05-29T07:57:37Z</time>
      </trkpt>
      <trkpt lat="49.1382" lon="6.91387">
        <ele>310.9</ele>
        <time>2013-05-29T07:57:42Z</time>
      </trkpt>
      <trkpt lat="49.13825" lon="6.91389">
        <ele>311.3</ele>
        <time>2013-05-29T07:57:47Z</time>
      </trkpt>
      <trkpt lat="49.13832" lon="6.91393">
        <ele>310.7</ele>
        <time>2013-05-29T07:57:52Z</time>
      </trkpt>
      <trkpt lat="49.13838" lon="6.91395">
        <ele>310.7</ele>
        <time>2013-05-29T07:57:57Z</time>
      </trkpt>
      <trkpt lat="49.13845" lon="6.91398">
        <ele>310.9</ele>
        <time>2013-05-29T07:58:02Z</time>
      </trkpt>
      <trkpt lat="49.1385" lon="6.91401">
        <ele>310.9</ele>
        <time>2013-05-29T07:58:07Z</time>
      </trkpt>
      <trkpt lat="49.13857" lon="6.91404">
        <ele>310.5</ele>
        <time>2013-05-29T07:58:12Z</time>
      </trkpt>
      <trkpt lat="49.13858" lon="6.91405">
        <ele>310.5</ele>
        <time>2013-05-29T07:58:13Z</time>
      </trkpt>
      <trkpt lat="49.13868" lon="6.91412">
        <ele>309.5</ele>
        <time>2013-05-29T07:58:22Z</time>
      </trkpt>
      <trkpt lat="49.13873" lon="6.91417">
        <ele>310</ele>
        <time>2013-05-29T07:58:27Z</time>
      </trkpt>
      <trkpt lat="49.13879" lon="6.9142">
        <ele>309</ele>
        <time>2013-05-29T07:58:32Z</time>
      </trkpt>
      <trkpt lat="49.13884" lon="6.91423">
        <ele>309.2</ele>
        <time>2013-05-29T07:58:37Z</time>
      </trkpt>
      <trkpt lat="49.13889" lon="6.91425">
        <ele>308.1</ele>
        <time>2013-05-29T07:58:42Z</time>
      </trkpt>
      <trkpt lat="49.13893" lon="6.91429">
        <ele>308.3</ele>
        <time>2013-05-29T07:58:47Z</time>
      </trkpt>
      <trkpt lat="49.13899" lon="6.9143">
        <ele>308.1</ele>
        <time>2013-05-29T07:58:52Z</time>
      </trkpt>
      <trkpt lat="49.13904" lon="6.91434">
        <ele>308</ele>
        <time>2013-05-29T07:58:57Z</time>
      </trkpt>
      <trkpt lat="49.1391" lon="6.91438">
        <ele>307</ele>
        <time>2013-05-29T07:59:02Z</time>
      </trkpt>
      <trkpt lat="49.13914" lon="6.91442">
        <ele>306.4</ele>
        <time>2013-05-29T07:59:07Z</time>
      </trkpt>
      <trkpt lat="49.13919" lon="6.91446">
        <ele>306.2</ele>
        <time>2013-05-29T07:59:12Z</time>
      </trkpt>
      <trkpt lat="49.13924" lon="6.9145">
        <ele>307</ele>
        <time>2013-05-29T07:59:17Z</time>
      </trkpt>
      <trkpt lat="49.13925" lon="6.9145">
        <ele>307</ele>
        <time>2013-05-29T07:59:18Z</time>
      </trkpt>
      <trkpt lat="49.13932" lon="6.91456">
        <ele>305.5</ele>
        <time>2013-05-29T07:59:27Z</time>
      </trkpt>
      <trkpt lat="49.13938" lon="6.91458">
        <ele>304.8</ele>
        <time>2013-05-29T07:59:32Z</time>
      </trkpt>
      <trkpt lat="49.13943" lon="6.91461">
        <ele>305</ele>
        <time>2013-05-29T07:59:37Z</time>
      </trkpt>
      <trkpt lat="49.13947" lon="6.91466">
        <ele>304.9</ele>
        <time>2013-05-29T07:59:42Z</time>
      </trkpt>
      <trkpt lat="49.13953" lon="6.9147">
        <ele>304.8</ele>
        <time>2013-05-29T07:59:47Z</time>
      </trkpt>
      <trkpt lat="49.13958" lon="6.91475">
        <ele>303.9</ele>
        <time>2013-05-29T07:59:52Z</time>
      </trkpt>
      <trkpt lat="49.13961" lon="6.91479">
        <ele>303.6</ele>
        <time>2013-05-29T07:59:57Z</time>
      </trkpt>
      <trkpt lat="49.13963" lon="6.9148">
        <ele>303.9</ele>
        <time>2013-05-29T08:00:02Z</time>
      </trkpt>
      <trkpt lat="49.13966" lon="6.91484">
        <ele>304</ele>
        <time>2013-05-29T08:00:07Z</time>
      </trkpt>
      <trkpt lat="49.13968" lon="6.91487">
        <ele>304.3</ele>
        <time>2013-05-29T08:00:12Z</time>
      </trkpt>
      <trkpt lat="49.1397" lon="6.91492">
        <ele>303.6</ele>
        <time>2013-05-29T08:00:17Z</time>
      </trkpt>
      <trkpt lat="49.13971" lon="6.91498">
        <ele>304.1</ele>
        <time>2013-05-29T08:00:22Z</time>
      </trkpt>
      <trkpt lat="49.13972" lon="6.91499">
        <ele>304</ele>
        <time>2013-05-29T08:00:23Z</time>
      </trkpt>
      <trkpt lat="49.13979" lon="6.91497">
        <ele>304.4</ele>
        <time>2013-05-29T08:00:32Z</time>
      </trkpt>
      <trkpt lat="49.13982" lon="6.91498">
        <ele>304</ele>
        <time>2013-05-29T08:00:37Z</time>
      </trkpt>
      <trkpt lat="49.13985" lon="6.91502">
        <ele>305</ele>
        <time>2013-05-29T08:00:42Z</time>
      </trkpt>
      <trkpt lat="49.13989" lon="6.91507">
        <ele>304.6</ele>
        <time>2013-05-29T08:00:47Z</time>
      </trkpt>
      <trkpt lat="49.13993" lon="6.91511">
        <ele>305</ele>
        <time>2013-05-29T08:00:52Z</time>
      </trkpt>
      <trkpt lat="49.13997" lon="6.91516">
        <ele>305</ele>
        <time>2013-05-29T08:00:57Z</time>
      </trkpt>
      <trkpt lat="49.14002" lon="6.91521">
        <ele>305.1</ele>
        <time>2013-05-29T08:01:02Z</time>
      </trkpt>
      <trkpt lat="49.14007" lon="6.91527">
        <ele>306.1</ele>
        <time>2013-05-29T08:01:07Z</time>
      </trkpt>
      <trkpt lat="49.14012" lon="6.91532">
        <ele>306.8</ele>
        <time>2013-05-29T08:01:12Z</time>
      </trkpt>
      <trkpt lat="49.14017" lon="6.91536">
        <ele>306.6</ele>
        <time>2013-05-29T08:01:17Z</time>
      </trkpt>
      <trkpt lat="49.14022" lon="6.9154">
        <ele>307.4</ele>
        <time>2013-05-29T08:01:22Z</time>
      </trkpt>
      <trkpt lat="49.14027" lon="6.91545">
        <ele>307.4</ele>
        <time>2013-05-29T08:01:27Z</time>
      </trkpt>
      <trkpt lat="49.14028" lon="6.91546">
        <ele>307.4</ele>
        <time>2013-05-29T08:01:28Z</time>
      </trkpt>
      <trkpt lat="49.14036" lon="6.91551">
        <ele>308.1</ele>
        <time>2013-05-29T08:01:37Z</time>
      </trkpt>
      <trkpt lat="49.14041" lon="6.91555">
        <ele>309.5</ele>
        <time>2013-05-29T08:01:42Z</time>
      </trkpt>
      <trkpt lat="49.14045" lon="6.91558">
        <ele>309</ele>
        <time>2013-05-29T08:01:47Z</time>
      </trkpt>
      <trkpt lat="49.1405" lon="6.91563">
        <ele>308.5</ele>
        <time>2013-05-29T08:01:52Z</time>
      </trkpt>
      <trkpt lat="49.14055" lon="6.91568">
        <ele>309.2</ele>
        <time>2013-05-29T08:01:57Z</time>
      </trkpt>
      <trkpt lat="49.1406" lon="6.91571">
        <ele>309.6</ele>
        <time>2013-05-29T08:02:02Z</time>
      </trkpt>
      <trkpt lat="49.14066" lon="6.91575">
        <ele>309.5</ele>
        <time>2013-05-29T08:02:07Z</time>
      </trkpt>
      <trkpt lat="49.14071" lon="6.91578">
        <ele>310</ele>
        <time>2013-05-29T08:02:12Z</time>
      </trkpt>
      <trkpt lat="49.14075" lon="6.91582">
        <ele>309.9</ele>
        <time>2013-05-29T08:02:17Z</time>
      </trkpt>
      <trkpt lat="49.1408" lon="6.91587">
        <ele>310.7</ele>
        <time>2013-05-29T08:02:22Z</time>
      </trkpt>
      <trkpt lat="49.14085" lon="6.91591">
        <ele>311</ele>
        <time>2013-05-29T08:02:27Z</time>
      </trkpt>
      <trkpt lat="49.1409" lon="6.91596">
        <ele>311.8</ele>
        <time>2013-05-29T08:02:32Z</time>
      </trkpt>
      <trkpt lat="49.14091" lon="6.91597">
        <ele>311.8</ele>
        <time>2013-05-29T08:02:33Z</time>
      </trkpt>
      <trkpt lat="49.14102" lon="6.91598">
        <ele>311.4</ele>
        <time>2013-05-29T08:02:42Z</time>
      </trkpt>
      <trkpt lat="49.14106" lon="6.91602">
        <ele>311.9</ele>
        <time>2013-05-29T08:02:47Z</time>
      </trkpt>
      <trkpt lat="49.1411" lon="6.91605">
        <ele>312.5</ele>
        <time>2013-05-29T08:02:52Z</time>
      </trkpt>
      <trkpt lat="49.14115" lon="6.9161">
        <ele>312.5</ele>
        <time>2013-05-29T08:02:57Z</time>
      </trkpt>
      <trkpt lat="49.14119" lon="6.91614">
        <ele>312.8</ele>
        <time>2013-05-29T08:03:02Z</time>
      </trkpt>
      <trkpt lat="49.14124" lon="6.91618">
        <ele>313.4</ele>
        <time>2013-05-29T08:03:07Z</time>
      </trkpt>
      <trkpt lat="49.14128" lon="6.91622">
        <ele>313.7</ele>
        <time>2013-05-29T08:03:12Z</time>
      </trkpt>
      <trkpt lat="49.14132" lon="6.91624">
        <ele>313</ele>
        <time>2013-05-29T08:03:17Z</time>
      </trkpt>
      <trkpt lat="49.14135" lon="6.91626">
        <ele>314.2</ele>
        <time>2013-05-29T08:03:22Z</time>
      </trkpt>
      <trkpt lat="49.14139" lon="6.91628">
        <ele>314.1</ele>
        <time>2013-05-29T08:03:27Z</time>
      </trkpt>
      <trkpt lat="49.14143" lon="6.91631">
        <ele>314.2</ele>
        <time>2013-05-29T08:03:32Z</time>
      </trkpt>
      <trkpt lat="49.14148" lon="6.91634">
        <ele>314.4</ele>
        <time>2013-05-29T08:03:37Z</time>
      </trkpt>
      <trkpt lat="49.14149" lon="6.91634">
        <ele>314.3</ele>
        <time>2013-05-29T08:03:38Z</time>
      </trkpt>
      <trkpt lat="49.14157" lon="6.91638">
        <ele>315.3</ele>
        <time>2013-05-29T08:03:47Z</time>
      </trkpt>
      <trkpt lat="49.14161" lon="6.91643">
        <ele>315.3</ele>
        <time>2013-05-29T08:03:52Z</time>
      </trkpt>
      <trkpt lat="49.14165" lon="6.91647">
        <ele>315.4</ele>
        <time>2013-05-29T08:03:57Z</time>
      </trkpt>
      <trkpt lat="49.1417" lon="6.91651">
        <ele>315.2</ele>
        <time>2013-05-29T08:04:02Z</time>
      </trkpt>
      <trkpt lat="49.14174" lon="6.91654">
        <ele>315.8</ele>
        <time>2013-05-29T08:04:07Z</time>
      </trkpt>
      <trkpt lat="49.14179" lon="6.91658">
        <ele>315.9</ele>
        <time>2013-05-29T08:04:12Z</time>
      </trkpt>
      <trkpt lat="49.14183" lon="6.91663">
        <ele>316.3</ele>
        <time>2013-05-29T08:04:17Z</time>
      </trkpt>
      <trkpt lat="49.14187" lon="6.91667">
        <ele>316.4</ele>
        <time>2013-05-29T08:04:22Z</time>
      </trkpt>
      <trkpt lat="49.14191" lon="6.91672">
        <ele>316.8</ele>
        <time>2013-05-29T08:04:27Z</time>
      </trkpt>
      <trkpt lat="49.14194" lon="6.91676">
        <ele>317.2</ele>
        <time>2013-05-29T08:04:32Z</time>
      </trkpt>
      <trkpt lat="49.14199" lon="6.91679">
        <ele>317.5</ele>
        <time>2013-05-29T08:04:37Z</time>
      </trkpt>
      <trkpt lat="49.14202" lon="6.91683">
        <ele>317.8</ele>
        <time>2013-05-29T08:04:42Z</time>
      </trkpt>
      <trkpt lat="49.14203" lon="6.91684">
        <ele>317.7</ele>
        <time>2013-05-29T08:04:43Z</time>
      </trkpt>
      <trkpt lat="49.14211" lon="6.91692">
        <ele>318.5</ele>
        <time>2013-05-29T08:04:52Z</time>
      </trkpt>
      <trkpt lat="49.14216" lon="6.91696">
        <ele>318.6</ele>
        <time>2013-05-29T08:04:57Z</time>
      </trkpt>
      <trkpt lat="49.14221" lon="6.917">
        <ele>318.6</ele>
        <time>2013-05-29T08:05:02Z</time>
      </trkpt>
      <trkpt lat="49.14226" lon="6.91704">
        <ele>319.3</ele>
        <time>2013-05-29T08:05:07Z</time>
      </trkpt>
      <trkpt lat="49.1423" lon="6.91709">
        <ele>319.4</ele>
        <time>2013-05-29T08:05:12Z</time>
      </trkpt>
      <trkpt lat="49.14235" lon="6.91713">
        <ele>319.6</ele>
        <time>2013-05-29T08:05:17Z</time>
      </trkpt>
      <trkpt lat="49.14239" lon="6.91716">
        <ele>320.8</ele>
        <time>2013-05-29T08:05:22Z</time>
      </trkpt>
      <trkpt lat="49.14242" lon="6.91719">
        <ele>321</ele>
        <time>2013-05-29T08:05:27Z</time>
      </trkpt>
      <trkpt lat="49.14246" lon="6.91722">
        <ele>320.9</ele>
        <time>2013-05-29T08:05:32Z</time>
      </trkpt>
      <trkpt lat="49.1425" lon="6.91725">
        <ele>321.2</ele>
        <time>2013-05-29T08:05:37Z</time>
      </trkpt>
      <trkpt lat="49.14254" lon="6.91729">
        <ele>321</ele>
        <time>2013-05-29T08:05:42Z</time>
      </trkpt>
      <trkpt lat="49.14258" lon="6.91733">
        <ele>322</ele>
        <time>2013-05-29T08:05:47Z</time>
      </trkpt>
      <trkpt lat="49.14259" lon="6.91734">
        <ele>322.3</ele>
        <time>2013-05-29T08:05:48Z</time>
      </trkpt>
      <trkpt lat="49.14267" lon="6.91742">
        <ele>322.4</ele>
        <time>2013-05-29T08:05:57Z</time>
      </trkpt>
      <trkpt lat="49.14271" lon="6.91746">
        <ele>322.8</ele>
        <time>2013-05-29T08:06:02Z</time>
      </trkpt>
      <trkpt lat="49.14276" lon="6.91749">
        <ele>322.4</ele>
        <time>2013-05-29T08:06:07Z</time>
      </trkpt>
      <trkpt lat="49.14281" lon="6.91755">
        <ele>322.5</ele>
        <time>2013-05-29T08:06:12Z</time>
      </trkpt>
      <trkpt lat="49.14286" lon="6.9176">
        <ele>323</ele>
        <time>2013-05-29T08:06:17Z</time>
      </trkpt>
      <trkpt lat="49.14291" lon="6.91765">
        <ele>323</ele>
        <time>2013-05-29T08:06:22Z</time>
      </trkpt>
      <trkpt lat="49.14296" lon="6.9177">
        <ele>324.2</ele>
        <time>2013-05-29T08:06:27Z</time>
      </trkpt>
      <trkpt lat="49.14301" lon="6.91774">
        <ele>324.2</ele>
        <time>2013-05-29T08:06:32Z</time>
      </trkpt>
      <trkpt lat="49.14306" lon="6.91778">
        <ele>323.9</ele>
        <time>2013-05-29T08:06:37Z</time>
      </trkpt>
      <trkpt lat="49.14312" lon="6.91783">
        <ele>324.5</ele>
        <time>2013-05-29T08:06:42Z</time>
      </trkpt>
      <trkpt lat="49.14318" lon="6.91787">
        <ele>324.5</ele>
        <time>2013-05-29T08:06:47Z</time>
      </trkpt>
      <trkpt lat="49.14324" lon="6.91791">
        <ele>325.2</ele>
        <time>2013-05-29T08:06:52Z</time>
      </trkpt>
      <trkpt lat="49.14325" lon="6.91792">
        <ele>325.5</ele>
        <time>2013-05-29T08:06:53Z</time>
      </trkpt>
      <trkpt lat="49.14335" lon="6.91799">
        <ele>325.3</ele>
        <time>2013-05-29T08:07:02Z</time>
      </trkpt>
      <trkpt lat="49.14341" lon="6.91803">
        <ele>326.3</ele>
        <time>2013-05-29T08:07:07Z</time>
      </trkpt>
      <trkpt lat="49.14346" lon="6.91806">
        <ele>326.7</ele>
        <time>2013-05-29T08:07:12Z</time>
      </trkpt>
      <trkpt lat="49.1435" lon="6.91809">
        <ele>326</ele>
        <time>2013-05-29T08:07:17Z</time>
      </trkpt>
      <trkpt lat="49.14356" lon="6.91812">
        <ele>326.9</ele>
        <time>2013-05-29T08:07:22Z</time>
      </trkpt>
      <trkpt lat="49.14361" lon="6.91813">
        <ele>327</ele>
        <time>2013-05-29T08:07:27Z</time>
      </trkpt>
      <trkpt lat="49.14366" lon="6.91813">
        <ele>327.6</ele>
        <time>2013-05-29T08:07:32Z</time>
      </trkpt>
      <trkpt lat="49.14371" lon="6.91813">
        <ele>328</ele>
        <time>2013-05-29T08:07:37Z</time>
      </trkpt>
      <trkpt lat="49.14377" lon="6.9181">
        <ele>327.4</ele>
        <time>2013-05-29T08:07:42Z</time>
      </trkpt>
      <trkpt lat="49.14383" lon="6.91806">
        <ele>328.2</ele>
        <time>2013-05-29T08:07:47Z</time>
      </trkpt>
      <trkpt lat="49.14389" lon="6.91802">
        <ele>328.7</ele>
        <time>2013-05-29T08:07:52Z</time>
      </trkpt>
      <trkpt lat="49.14394" lon="6.91801">
        <ele>329</ele>
        <time>2013-05-29T08:07:57Z</time>
      </trkpt>
      <trkpt lat="49.14396" lon="6.918">
        <ele>329.2</ele>
        <time>2013-05-29T08:07:58Z</time>
      </trkpt>
      <trkpt lat="49.14405" lon="6.91794">
        <ele>328.7</ele>
        <time>2013-05-29T08:08:07Z</time>
      </trkpt>
      <trkpt lat="49.14411" lon="6.91791">
        <ele>329.2</ele>
        <time>2013-05-29T08:08:12Z</time>
      </trkpt>
      <trkpt lat="49.14418" lon="6.91789">
        <ele>329.3</ele>
        <time>2013-05-29T08:08:17Z</time>
      </trkpt>
      <trkpt lat="49.14424" lon="6.91787">
        <ele>329.9</ele>
        <time>2013-05-29T08:08:22Z</time>
      </trkpt>
      <trkpt lat="49.1443" lon="6.91784">
        <ele>329.8</ele>
        <time>2013-05-29T08:08:27Z</time>
      </trkpt>
      <trkpt lat="49.14437" lon="6.91781">
        <ele>329.5</ele>
        <time>2013-05-29T08:08:32Z</time>
      </trkpt>
      <trkpt lat="49.14442" lon="6.91778">
        <ele>328.7</ele>
        <time>2013-05-29T08:08:37Z</time>
      </trkpt>
      <trkpt lat="49.14449" lon="6.91776">
        <ele>328.5</ele>
        <time>2013-05-29T08:08:42Z</time>
      </trkpt>
      <trkpt lat="49.14454" lon="6.91774">
        <ele>329.2</ele>
        <time>2013-05-29T08:08:47Z</time>
      </trkpt>
      <trkpt lat="49.1446" lon="6.91773">
        <ele>328.2</ele>
        <time>2013-05-29T08:08:52Z</time>
      </trkpt>
      <trkpt lat="49.14467" lon="6.91771">
        <ele>327.9</ele>
        <time>2013-05-29T08:08:57Z</time>
      </trkpt>
      <trkpt lat="49.14472" lon="6.91771">
        <ele>327.6</ele>
        <time>2013-05-29T08:09:02Z</time>
      </trkpt>
      <trkpt lat="49.14473" lon="6.91771">
        <ele>327.5</ele>
        <time>2013-05-29T08:09:03Z</time>
      </trkpt>
      <trkpt lat="49.14484" lon="6.91769">
        <ele>327.1</ele>
        <time>2013-05-29T08:09:12Z</time>
      </trkpt>
      <trkpt lat="49.1449" lon="6.91767">
        <ele>326.7</ele>
        <time>2013-05-29T08:09:17Z</time>
      </trkpt>
      <trkpt lat="49.14496" lon="6.91766">
        <ele>326.6</ele>
        <time>2013-05-29T08:09:22Z</time>
      </trkpt>
      <trkpt lat="49.14502" lon="6.91765">
        <ele>326.6</ele>
        <time>2013-05-29T08:09:27Z</time>
      </trkpt>
      <trkpt lat="49.14508" lon="6.91764">
        <ele>326.4</ele>
        <time>2013-05-29T08:09:32Z</time>
      </trkpt>
      <trkpt lat="49.14514" lon="6.91763">
        <ele>327.1</ele>
        <time>2013-05-29T08:09:37Z</time>
      </trkpt>
      <trkpt lat="49.14521" lon="6.91761">
        <ele>326.7</ele>
        <time>2013-05-29T08:09:42Z</time>
      </trkpt>
      <trkpt lat="49.14527" lon="6.91761">
        <ele>326.9</ele>
        <time>2013-05-29T08:09:47Z</time>
      </trkpt>
      <trkpt lat="49.14534" lon="6.9176">
        <ele>326.3</ele>
        <time>2013-05-29T08:09:52Z</time>
      </trkpt>
      <trkpt lat="49.14541" lon="6.91759">
        <ele>326.3</ele>
        <time>2013-05-29T08:09:57Z</time>
      </trkpt>
      <trkpt lat="49.14545" lon="6.91758">
        <ele>325.6</ele>
        <time>2013-05-29T08:10:02Z</time>
      </trkpt>
      <trkpt lat="49.14546" lon="6.91757">
        <ele>326.1</ele>
        <time>2013-05-29T08:10:07Z</time>
      </trkpt>
      <trkpt lat="49.14546" lon="6.91756">
        <ele>326.2</ele>
        <time>2013-05-29T08:10:08Z</time>
      </trkpt>
      <trkpt lat="49.14552" lon="6.91754">
        <ele>326.1</ele>
        <time>2013-05-29T08:10:17Z</time>
      </trkpt>
      <trkpt lat="49.14556" lon="6.91752">
        <ele>325.7</ele>
        <time>2013-05-29T08:10:22Z</time>
      </trkpt>
      <trkpt lat="49.14561" lon="6.9175">
        <ele>326.1</ele>
        <time>2013-05-29T08:10:27Z</time>
      </trkpt>
      <trkpt lat="49.14567" lon="6.91749">
        <ele>325.3</ele>
        <time>2013-05-29T08:10:32Z</time>
      </trkpt>
      <trkpt lat="49.1457" lon="6.91749">
        <ele>325.5</ele>
        <time>2013-05-29T08:10:37Z</time>
      </trkpt>
      <trkpt lat="49.14571" lon="6.91749">
        <ele>325.9</ele>
        <time>2013-05-29T08:10:42Z</time>
      </trkpt>
      <trkpt lat="49.14574" lon="6.91749">
        <ele>325.2</ele>
        <time>2013-05-29T08:10:47Z</time>
      </trkpt>
      <trkpt lat="49.14577" lon="6.91748">
        <ele>325.5</ele>
        <time>2013-05-29T08:10:52Z</time>
      </trkpt>
      <trkpt lat="49.14581" lon="6.91749">
        <ele>325.4</ele>
        <time>2013-05-29T08:10:57Z</time>
      </trkpt>
      <trkpt lat="49.14583" lon="6.91749">
        <ele>326.2</ele>
        <time>2013-05-29T08:11:02Z</time>
      </trkpt>
      <trkpt lat="49.14588" lon="6.91749">
        <ele>326.2</ele>
        <time>2013-05-29T08:11:07Z</time>
      </trkpt>
      <trkpt lat="49.14594" lon="6.91749">
        <ele>325.6</ele>
        <time>2013-05-29T08:11:12Z</time>
      </trkpt>
      <trkpt lat="49.14595" lon="6.91749">
        <ele>325.6</ele>
        <time>2013-05-29T08:11:13Z</time>
      </trkpt>
      <trkpt lat="49.14603" lon="6.91749">
        <ele>325.7</ele>
        <time>2013-05-29T08:11:22Z</time>
      </trkpt>
      <trkpt lat="49.14609" lon="6.91749">
        <ele>325.4</ele>
        <time>2013-05-29T08:11:27Z</time>
      </trkpt>
      <trkpt lat="49.14614" lon="6.9175">
        <ele>325.8</ele>
        <time>2013-05-29T08:11:32Z</time>
      </trkpt>
      <trkpt lat="49.14618" lon="6.9175">
        <ele>326.4</ele>
        <time>2013-05-29T08:11:37Z</time>
      </trkpt>
      <trkpt lat="49.14622" lon="6.91751">
        <ele>326.5</ele>
        <time>2013-05-29T08:11:42Z</time>
      </trkpt>
      <trkpt lat="49.14627" lon="6.91751">
        <ele>326.1</ele>
        <time>2013-05-29T08:11:47Z</time>
      </trkpt>
      <trkpt lat="49.14632" lon="6.91752">
        <ele>326.6</ele>
        <time>2013-05-29T08:11:52Z</time>
      </trkpt>
      <trkpt lat="49.14636" lon="6.91752">
        <ele>326.8</ele>
        <time>2013-05-29T08:11:57Z</time>
      </trkpt>
      <trkpt lat="49.14641" lon="6.91753">
        <ele>326</ele>
        <time>2013-05-29T08:12:02Z</time>
      </trkpt>
      <trkpt lat="49.14647" lon="6.91753">
        <ele>327</ele>
        <time>2013-05-29T08:12:07Z</time>
      </trkpt>
      <trkpt lat="49.14652" lon="6.91753">
        <ele>327.5</ele>
        <time>2013-05-29T08:12:12Z</time>
      </trkpt>
      <trkpt lat="49.14658" lon="6.91754">
        <ele>327.3</ele>
        <time>2013-05-29T08:12:17Z</time>
      </trkpt>
      <trkpt lat="49.14659" lon="6.91754">
        <ele>327.5</ele>
        <time>2013-05-29T08:12:18Z</time>
      </trkpt>
      <trkpt lat="49.14669" lon="6.91754">
        <ele>326.1</ele>
        <time>2013-05-29T08:12:27Z</time>
      </trkpt>
      <trkpt lat="49.14675" lon="6.91754">
        <ele>326.7</ele>
        <time>2013-05-29T08:12:32Z</time>
      </trkpt>
      <trkpt lat="49.1468" lon="6.91754">
        <ele>326.9</ele>
        <time>2013-05-29T08:12:37Z</time>
      </trkpt>
      <trkpt lat="49.14686" lon="6.91755">
        <ele>327</ele>
        <time>2013-05-29T08:12:42Z</time>
      </trkpt>
      <trkpt lat="49.14691" lon="6.91758">
        <ele>327.8</ele>
        <time>2013-05-29T08:12:47Z</time>
      </trkpt>
      <trkpt lat="49.14695" lon="6.91763">
        <ele>327.3</ele>
        <time>2013-05-29T08:12:52Z</time>
      </trkpt>
      <trkpt lat="49.147" lon="6.91767">
        <ele>326.9</ele>
        <time>2013-05-29T08:12:57Z</time>
      </trkpt>
      <trkpt lat="49.14704" lon="6.91773">
        <ele>326.9</ele>
        <time>2013-05-29T08:13:02Z</time>
      </trkpt>
      <trkpt lat="49.14709" lon="6.9178">
        <ele>327.2</ele>
        <time>2013-05-29T08:13:07Z</time>
      </trkpt>
      <trkpt lat="49.14713" lon="6.91786">
        <ele>327.7</ele>
        <time>2013-05-29T08:13:12Z</time>
      </trkpt>
      <trkpt lat="49.14718" lon="6.91792">
        <ele>328.3</ele>
        <time>2013-05-29T08:13:17Z</time>
      </trkpt>
      <trkpt lat="49.14723" lon="6.91799">
        <ele>328.5</ele>
        <time>2013-05-29T08:13:22Z</time>
      </trkpt>
      <trkpt lat="49.14724" lon="6.918">
        <ele>328.2</ele>
        <time>2013-05-29T08:13:23Z</time>
      </trkpt>
      <trkpt lat="49.14733" lon="6.91811">
        <ele>328.5</ele>
        <time>2013-05-29T08:13:32Z</time>
      </trkpt>
      <trkpt lat="49.14739" lon="6.91815">
        <ele>328.8</ele>
        <time>2013-05-29T08:13:37Z</time>
      </trkpt>
      <trkpt lat="49.14744" lon="6.91821">
        <ele>329.5</ele>
        <time>2013-05-29T08:13:42Z</time>
      </trkpt>
      <trkpt lat="49.14749" lon="6.91827">
        <ele>329.3</ele>
        <time>2013-05-29T08:13:47Z</time>
      </trkpt>
      <trkpt lat="49.14754" lon="6.91833">
        <ele>329.8</ele>
        <time>2013-05-29T08:13:52Z</time>
      </trkpt>
      <trkpt lat="49.14759" lon="6.91839">
        <ele>330</ele>
        <time>2013-05-29T08:13:57Z</time>
      </trkpt>
      <trkpt lat="49.14765" lon="6.91844">
        <ele>329.8</ele>
        <time>2013-05-29T08:14:02Z</time>
      </trkpt>
      <trkpt lat="49.1477" lon="6.91849">
        <ele>330.2</ele>
        <time>2013-05-29T08:14:07Z</time>
      </trkpt>
      <trkpt lat="49.14775" lon="6.91855">
        <ele>330.4</ele>
        <time>2013-05-29T08:14:12Z</time>
      </trkpt>
      <trkpt lat="49.1478" lon="6.91862">
        <ele>331.2</ele>
        <time>2013-05-29T08:14:17Z</time>
      </trkpt>
      <trkpt lat="49.14784" lon="6.91867">
        <ele>331.1</ele>
        <time>2013-05-29T08:14:22Z</time>
      </trkpt>
      <trkpt lat="49.14789" lon="6.91872">
        <ele>331.3</ele>
        <time>2013-05-29T08:14:27Z</time>
      </trkpt>
      <trkpt lat="49.1479" lon="6.91873">
        <ele>331.2</ele>
        <time>2013-05-29T08:14:28Z</time>
      </trkpt>
      <trkpt lat="49.14798" lon="6.91884">
        <ele>331.4</ele>
        <time>2013-05-29T08:14:37Z</time>
      </trkpt>
      <trkpt lat="49.14803" lon="6.9189">
        <ele>331.9</ele>
        <time>2013-05-29T08:14:42Z</time>
      </trkpt>
      <trkpt lat="49.14807" lon="6.91896">
        <ele>331.7</ele>
        <time>2013-05-29T08:14:47Z</time>
      </trkpt>
      <trkpt lat="49.14811" lon="6.91902">
        <ele>332.6</ele>
        <time>2013-05-29T08:14:52Z</time>
      </trkpt>
      <trkpt lat="49.14816" lon="6.91907">
        <ele>332.8</ele>
        <time>2013-05-29T08:14:57Z</time>
      </trkpt>
      <trkpt lat="49.14821" lon="6.91911">
        <ele>333.2</ele>
        <time>2013-05-29T08:15:02Z</time>
      </trkpt>
      <trkpt lat="49.14826" lon="6.91915">
        <ele>333.8</ele>
        <time>2013-05-29T08:15:07Z</time>
      </trkpt>
      <trkpt lat="49.14832" lon="6.91917">
        <ele>333.1</ele>
        <time>2013-05-29T08:15:12Z</time>
      </trkpt>
      <trkpt lat="49.14839" lon="6.91918">
        <ele>333.4</ele>
        <time>2013-05-29T08:15:17Z</time>
      </trkpt>
      <trkpt lat="49.14845" lon="6.91918">
        <ele>333.8</ele>
        <time>2013-05-29T08:15:22Z</time>
      </trkpt>
      <trkpt lat="49.14851" lon="6.91919">
        <ele>334.1</ele>
        <time>2013-05-29T08:15:27Z</time>
      </trkpt>
      <trkpt lat="49.14858" lon="6.9192">
        <ele>334.8</ele>
        <time>2013-05-29T08:15:32Z</time>
      </trkpt>
      <trkpt lat="49.14859" lon="6.9192">
        <ele>335</ele>
        <time>2013-05-29T08:15:33Z</time>
      </trkpt>
      <trkpt lat="49.14869" lon="6.91921">
        <ele>335.3</ele>
        <time>2013-05-29T08:15:42Z</time>
      </trkpt>
      <trkpt lat="49.14874" lon="6.91921">
        <ele>335.2</ele>
        <time>2013-05-29T08:15:47Z</time>
      </trkpt>
      <trkpt lat="49.1488" lon="6.91921">
        <ele>336</ele>
        <time>2013-05-29T08:15:52Z</time>
      </trkpt>
      <trkpt lat="49.14886" lon="6.91921">
        <ele>336.2</ele>
        <time>2013-05-29T08:15:57Z</time>
      </trkpt>
      <trkpt lat="49.14892" lon="6.91922">
        <ele>336.4</ele>
        <time>2013-05-29T08:16:02Z</time>
      </trkpt>
      <trkpt lat="49.14895" lon="6.91922">
        <ele>336.6</ele>
        <time>2013-05-29T08:16:07Z</time>
      </trkpt>
      <trkpt lat="49.14898" lon="6.91923">
        <ele>337.3</ele>
        <time>2013-05-29T08:16:12Z</time>
      </trkpt>
      <trkpt lat="49.14898" lon="6.91923">
        <ele>337.6</ele>
        <time>2013-05-29T08:16:17Z</time>
      </trkpt>
      <trkpt lat="49.14898" lon="6.91923">
        <ele>337.3</ele>
        <time>2013-05-29T08:16:22Z</time>
      </trkpt>
      <trkpt lat="49.14898" lon="6.91923">
        <ele>337.2</ele>
        <time>2013-05-29T08:16:27Z</time>
      </trkpt>
      <trkpt lat="49.14899" lon="6.91924">
        <ele>337.5</ele>
        <time>2013-05-29T08:16:32Z</time>
      </trkpt>
      <trkpt lat="49.14902" lon="6.91924">
        <ele>337</ele>
        <time>2013-05-29T08:16:37Z</time>
      </trkpt>
      <trkpt lat="49.14903" lon="6.91924">
        <ele>337.3</ele>
        <time>2013-05-29T08:16:38Z</time>
      </trkpt>
      <trkpt lat="49.14913" lon="6.91927">
        <ele>337.7</ele>
        <time>2013-05-29T08:16:47Z</time>
      </trkpt>
      <trkpt lat="49.14918" lon="6.91926">
        <ele>338.1</ele>
        <time>2013-05-29T08:16:52Z</time>
      </trkpt>
      <trkpt lat="49.14925" lon="6.91927">
        <ele>338.1</ele>
        <time>2013-05-29T08:16:57Z</time>
      </trkpt>
      <trkpt lat="49.1493" lon="6.91927">
        <ele>338.6</ele>
        <time>2013-05-29T08:17:02Z</time>
      </trkpt>
      <trkpt lat="49.14936" lon="6.91926">
        <ele>338.2</ele>
        <time>2013-05-29T08:17:07Z</time>
      </trkpt>
      <trkpt lat="49.14942" lon="6.91926">
        <ele>338.5</ele>
        <time>2013-05-29T08:17:12Z</time>
      </trkpt>
      <trkpt lat="49.14948" lon="6.91926">
        <ele>338.6</ele>
        <time>2013-05-29T08:17:17Z</time>
      </trkpt>
      <trkpt lat="49.14954" lon="6.91926">
        <ele>338.9</ele>
        <time>2013-05-29T08:17:22Z</time>
      </trkpt>
      <trkpt lat="49.1496" lon="6.91926">
        <ele>338.1</ele>
        <time>2013-05-29T08:17:27Z</time>
      </trkpt>
      <trkpt lat="49.14966" lon="6.91925">
        <ele>338.6</ele>
        <time>2013-05-29T08:17:32Z</time>
      </trkpt>
      <trkpt lat="49.14972" lon="6.91926">
        <ele>337.4</ele>
        <time>2013-05-29T08:17:37Z</time>
      </trkpt>
      <trkpt lat="49.14978" lon="6.91925">
        <ele>337.2</ele>
        <time>2013-05-29T08:17:42Z</time>
      </trkpt>
      <trkpt lat="49.1498" lon="6.91925">
        <ele>337.4</ele>
        <time>2013-05-29T08:17:43Z</time>
      </trkpt>
      <trkpt lat="49.14991" lon="6.91925">
        <ele>336</ele>
        <time>2013-05-29T08:17:52Z</time>
      </trkpt>
      <trkpt lat="49.14997" lon="6.91925">
        <ele>335.4</ele>
        <time>2013-05-29T08:17:57Z</time>
      </trkpt>
      <trkpt lat="49.15003" lon="6.91925">
        <ele>335</ele>
        <time>2013-05-29T08:18:02Z</time>
      </trkpt>
      <trkpt lat="49.15009" lon="6.91925">
        <ele>333.6</ele>
        <time>2013-05-29T08:18:07Z</time>
      </trkpt>
      <trkpt lat="49.15016" lon="6.91925">
        <ele>334.4</ele>
        <time>2013-05-29T08:18:12Z</time>
      </trkpt>
      <trkpt lat="49.15022" lon="6.91925">
        <ele>333.6</ele>
        <time>2013-05-29T08:18:17Z</time>
      </trkpt>
      <trkpt lat="49.15028" lon="6.91925">
        <ele>333.1</ele>
        <time>2013-05-29T08:18:22Z</time>
      </trkpt>
      <trkpt lat="49.15034" lon="6.91925">
        <ele>332.8</ele>
        <time>2013-05-29T08:18:27Z</time>
      </trkpt>
      <trkpt lat="49.1504" lon="6.91925">
        <ele>332</ele>
        <time>2013-05-29T08:18:32Z</time>
      </trkpt>
      <trkpt lat="49.15046" lon="6.91924">
        <ele>331.5</ele>
        <time>2013-05-29T08:18:37Z</time>
      </trkpt>
      <trkpt lat="49.15052" lon="6.91925">
        <ele>331.1</ele>
        <time>2013-05-29T08:18:42Z</time>
      </trkpt>
      <trkpt lat="49.15058" lon="6.91924">
        <ele>331.8</ele>
        <time>2013-05-29T08:18:47Z</time>
      </trkpt>
      <trkpt lat="49.15059" lon="6.91924">
        <ele>331.3</ele>
        <time>2013-05-29T08:18:48Z</time>
      </trkpt>
      <trkpt lat="49.1507" lon="6.91925">
        <ele>330.5</ele>
        <time>2013-05-29T08:18:57Z</time>
      </trkpt>
      <trkpt lat="49.15076" lon="6.91926">
        <ele>331.2</ele>
        <time>2013-05-29T08:19:02Z</time>
      </trkpt>
      <trkpt lat="49.15083" lon="6.91927">
        <ele>330.9</ele>
        <time>2013-05-29T08:19:07Z</time>
      </trkpt>
      <trkpt lat="49.15089" lon="6.91928">
        <ele>330.2</ele>
        <time>2013-05-29T08:19:12Z</time>
      </trkpt>
      <trkpt lat="49.15095" lon="6.91928">
        <ele>330</ele>
        <time>2013-05-29T08:19:17Z</time>
      </trkpt>
      <trkpt lat="49.15102" lon="6.91928">
        <ele>330.2</ele>
        <time>2013-05-29T08:19:22Z</time>
      </trkpt>
      <trkpt lat="49.15107" lon="6.91927">
        <ele>329.5</ele>
        <time>2013-05-29T08:19:27Z</time>
      </trkpt>
      <trkpt lat="49.15115" lon="6.91927">
        <ele>330.1</ele>
        <time>2013-05-29T08:19:32Z</time>
      </trkpt>
      <trkpt lat="49.15121" lon="6.91928">
        <ele>330.7</ele>
        <time>2013-05-29T08:19:37Z</time>
      </trkpt>
      <trkpt lat="49.15127" lon="6.91927">
        <ele>330.7</ele>
        <time>2013-05-29T08:19:42Z</time>
      </trkpt>
      <trkpt lat="49.15133" lon="6.91926">
        <ele>330.8</ele>
        <time>2013-05-29T08:19:47Z</time>
      </trkpt>
      <trkpt lat="49.15139" lon="6.91926">
        <ele>330.5</ele>
        <time>2013-05-29T08:19:52Z</time>
      </trkpt>
      <trkpt lat="49.1514" lon="6.91926">
        <ele>330.3</ele>
        <time>2013-05-29T08:19:53Z</time>
      </trkpt>
      <trkpt lat="49.15148" lon="6.91934">
        <ele>331</ele>
        <time>2013-05-29T08:20:02Z</time>
      </trkpt>
      <trkpt lat="49.15153" lon="6.91937">
        <ele>330.1</ele>
        <time>2013-05-29T08:20:07Z</time>
      </trkpt>
      <trkpt lat="49.15159" lon="6.91942">
        <ele>330.5</ele>
        <time>2013-05-29T08:20:12Z</time>
      </trkpt>
      <trkpt lat="49.15164" lon="6.91947">
        <ele>330.8</ele>
        <time>2013-05-29T08:20:17Z</time>
      </trkpt>
      <trkpt lat="49.1517" lon="6.91952">
        <ele>331.1</ele>
        <time>2013-05-29T08:20:22Z</time>
      </trkpt>
      <trkpt lat="49.15176" lon="6.91958">
        <ele>331.2</ele>
        <time>2013-05-29T08:20:27Z</time>
      </trkpt>
      <trkpt lat="49.1518" lon="6.91965">
        <ele>331.4</ele>
        <time>2013-05-29T08:20:32Z</time>
      </trkpt>
      <trkpt lat="49.15185" lon="6.91971">
        <ele>331.9</ele>
        <time>2013-05-29T08:20:37Z</time>
      </trkpt>
      <trkpt lat="49.15189" lon="6.91978">
        <ele>332.6</ele>
        <time>2013-05-29T08:20:42Z</time>
      </trkpt>
      <trkpt lat="49.15193" lon="6.91985">
        <ele>332.9</ele>
        <time>2013-05-29T08:20:47Z</time>
      </trkpt>
      <trkpt lat="49.15197" lon="6.91991">
        <ele>333.6</ele>
        <time>2013-05-29T08:20:52Z</time>
      </trkpt>
      <trkpt lat="49.15201" lon="6.91998">
        <ele>333.1</ele>
        <time>2013-05-29T08:20:57Z</time>
      </trkpt>
      <trkpt lat="49.15202" lon="6.91999">
        <ele>333</ele>
        <time>2013-05-29T08:20:58Z</time>
      </trkpt>
      <trkpt lat="49.15209" lon="6.9201">
        <ele>332.7</ele>
        <time>2013-05-29T08:21:07Z</time>
      </trkpt>
      <trkpt lat="49.15214" lon="6.92017">
        <ele>332.4</ele>
        <time>2013-05-29T08:21:12Z</time>
      </trkpt>
      <trkpt lat="49.15218" lon="6.92023">
        <ele>332</ele>
        <time>2013-05-29T08:21:17Z</time>
      </trkpt>
      <trkpt lat="49.15224" lon="6.92029">
        <ele>332.3</ele>
        <time>2013-05-29T08:21:22Z</time>
      </trkpt>
      <trkpt lat="49.15228" lon="6.92036">
        <ele>332.1</ele>
        <time>2013-05-29T08:21:27Z</time>
      </trkpt>
      <trkpt lat="49.15231" lon="6.92044">
        <ele>332.2</ele>
        <time>2013-05-29T08:21:32Z</time>
      </trkpt>
      <trkpt lat="49.15236" lon="6.9205">
        <ele>331.5</ele>
        <time>2013-05-29T08:21:37Z</time>
      </trkpt>
      <trkpt lat="49.15241" lon="6.92056">
        <ele>331.1</ele>
        <time>2013-05-29T08:21:42Z</time>
      </trkpt>
      <trkpt lat="49.15246" lon="6.92063">
        <ele>331.1</ele>
        <time>2013-05-29T08:21:47Z</time>
      </trkpt>
      <trkpt lat="49.15251" lon="6.92071">
        <ele>331.1</ele>
        <time>2013-05-29T08:21:52Z</time>
      </trkpt>
      <trkpt lat="49.15257" lon="6.92077">
        <ele>330.3</ele>
        <time>2013-05-29T08:21:57Z</time>
      </trkpt>
      <trkpt lat="49.15261" lon="6.92084">
        <ele>331.2</ele>
        <time>2013-05-29T08:22:02Z</time>
      </trkpt>
      <trkpt lat="49.15262" lon="6.92085">
        <ele>330.8</ele>
        <time>2013-05-29T08:22:03Z</time>
      </trkpt>
      <trkpt lat="49.15271" lon="6.92096">
        <ele>329.7</ele>
        <time>2013-05-29T08:22:12Z</time>
      </trkpt>
      <trkpt lat="49.15277" lon="6.92102">
        <ele>330.1</ele>
        <time>2013-05-29T08:22:17Z</time>
      </trkpt>
      <trkpt lat="49.15282" lon="6.92109">
        <ele>330.3</ele>
        <time>2013-05-29T08:22:22Z</time>
      </trkpt>
      <trkpt lat="49.15287" lon="6.92116">
        <ele>330.1</ele>
        <time>2013-05-29T08:22:27Z</time>
      </trkpt>
      <trkpt lat="49.15291" lon="6.92122">
        <ele>329.8</ele>
        <time>2013-05-29T08:22:32Z</time>
      </trkpt>
      <trkpt lat="49.15294" lon="6.92128">
        <ele>328.7</ele>
        <time>2013-05-29T08:22:37Z</time>
      </trkpt>
      <trkpt lat="49.15298" lon="6.92133">
        <ele>328.1</ele>
        <time>2013-05-29T08:22:42Z</time>
      </trkpt>
      <trkpt lat="49.15301" lon="6.92138">
        <ele>327.1</ele>
        <time>2013-05-29T08:22:47Z</time>
      </trkpt>
      <trkpt lat="49.15308" lon="6.92141">
        <ele>326</ele>
        <time>2013-05-29T08:22:52Z</time>
      </trkpt>
      <trkpt lat="49.15315" lon="6.92142">
        <ele>325.3</ele>
        <time>2013-05-29T08:22:57Z</time>
      </trkpt>
      <trkpt lat="49.15323" lon="6.92138">
        <ele>324.7</ele>
        <time>2013-05-29T08:23:02Z</time>
      </trkpt>
      <trkpt lat="49.15328" lon="6.92134">
        <ele>324.6</ele>
        <time>2013-05-29T08:23:07Z</time>
      </trkpt>
      <trkpt lat="49.15329" lon="6.92133">
        <ele>324.6</ele>
        <time>2013-05-29T08:23:08Z</time>
      </trkpt>
      <trkpt lat="49.15338" lon="6.92123">
        <ele>324.2</ele>
        <time>2013-05-29T08:23:17Z</time>
      </trkpt>
      <trkpt lat="49.15343" lon="6.92118">
        <ele>324.6</ele>
        <time>2013-05-29T08:23:22Z</time>
      </trkpt>
      <trkpt lat="49.15349" lon="6.92116">
        <ele>323.7</ele>
        <time>2013-05-29T08:23:27Z</time>
      </trkpt>
      <trkpt lat="49.15354" lon="6.92116">
        <ele>323.5</ele>
        <time>2013-05-29T08:23:32Z</time>
      </trkpt>
      <trkpt lat="49.1536" lon="6.92114">
        <ele>323.1</ele>
        <time>2013-05-29T08:23:37Z</time>
      </trkpt>
      <trkpt lat="49.15365" lon="6.92114">
        <ele>322.3</ele>
        <time>2013-05-29T08:23:42Z</time>
      </trkpt>
      <trkpt lat="49.1537" lon="6.92114">
        <ele>322.6</ele>
        <time>2013-05-29T08:23:47Z</time>
      </trkpt>
      <trkpt lat="49.15375" lon="6.92115">
        <ele>321.8</ele>
        <time>2013-05-29T08:23:52Z</time>
      </trkpt>
      <trkpt lat="49.15381" lon="6.92116">
        <ele>322</ele>
        <time>2013-05-29T08:23:57Z</time>
      </trkpt>
      <trkpt lat="49.15387" lon="6.92117">
        <ele>321.4</ele>
        <time>2013-05-29T08:24:02Z</time>
      </trkpt>
      <trkpt lat="49.15392" lon="6.92119">
        <ele>321.5</ele>
        <time>2013-05-29T08:24:07Z</time>
      </trkpt>
      <trkpt lat="49.15397" lon="6.9212">
        <ele>321.6</ele>
        <time>2013-05-29T08:24:12Z</time>
      </trkpt>
      <trkpt lat="49.15398" lon="6.9212">
        <ele>321.7</ele>
        <time>2013-05-29T08:24:13Z</time>
      </trkpt>
      <trkpt lat="49.15407" lon="6.92121">
        <ele>321.5</ele>
        <time>2013-05-29T08:24:22Z</time>
      </trkpt>
      <trkpt lat="49.15414" lon="6.92123">
        <ele>322.8</ele>
        <time>2013-05-29T08:24:27Z</time>
      </trkpt>
      <trkpt lat="49.15421" lon="6.92124">
        <ele>323.1</ele>
        <time>2013-05-29T08:24:32Z</time>
      </trkpt>
      <trkpt lat="49.15428" lon="6.92125">
        <ele>323.3</ele>
        <time>2013-05-29T08:24:37Z</time>
      </trkpt>
      <trkpt lat="49.15435" lon="6.92128">
        <ele>324.4</ele>
        <time>2013-05-29T08:24:42Z</time>
      </trkpt>
      <trkpt lat="49.15441" lon="6.9213">
        <ele>325.3</ele>
        <time>2013-05-29T08:24:47Z</time>
      </trkpt>
      <trkpt lat="49.15446" lon="6.92132">
        <ele>325.2</ele>
        <time>2013-05-29T08:24:52Z</time>
      </trkpt>
      <trkpt lat="49.15453" lon="6.92134">
        <ele>325</ele>
        <time>2013-05-29T08:24:57Z</time>
      </trkpt>
      <trkpt lat="49.15458" lon="6.92137">
        <ele>326.1</ele>
        <time>2013-05-29T08:25:02Z</time>
      </trkpt>
      <trkpt lat="49.15464" lon="6.92138">
        <ele>326.9</ele>
        <time>2013-05-29T08:25:07Z</time>
      </trkpt>
      <trkpt lat="49.15469" lon="6.92141">
        <ele>327.8</ele>
        <time>2013-05-29T08:25:12Z</time>
      </trkpt>
      <trkpt lat="49.15472" lon="6.92141">
        <ele>328.2</ele>
        <time>2013-05-29T08:25:17Z</time>
      </trkpt>
      <trkpt lat="49.15472" lon="6.92141">
        <ele>328.5</ele>
        <time>2013-05-29T08:25:18Z</time>
      </trkpt>
      <trkpt lat="49.15475" lon="6.92147">
        <ele>328.5</ele>
        <time>2013-05-29T08:25:27Z</time>
      </trkpt>
      <trkpt lat="49.15477" lon="6.92147">
        <ele>328.9</ele>
        <time>2013-05-29T08:25:32Z</time>
      </trkpt>
      <trkpt lat="49.15482" lon="6.92142">
        <ele>328.9</ele>
        <time>2013-05-29T08:25:37Z</time>
      </trkpt>
      <trkpt lat="49.15485" lon="6.92135">
        <ele>329.2</ele>
        <time>2013-05-29T08:25:42Z</time>
      </trkpt>
      <trkpt lat="49.15487" lon="6.9213">
        <ele>330.1</ele>
        <time>2013-05-29T08:25:47Z</time>
      </trkpt>
      <trkpt lat="49.15488" lon="6.92123">
        <ele>329.8</ele>
        <time>2013-05-29T08:25:52Z</time>
      </trkpt>
      <trkpt lat="49.1549" lon="6.92113">
        <ele>329.4</ele>
        <time>2013-05-29T08:25:57Z</time>
      </trkpt>
      <trkpt lat="49.15492" lon="6.92103">
        <ele>330.5</ele>
        <time>2013-05-29T08:26:02Z</time>
      </trkpt>
      <trkpt lat="49.15493" lon="6.92094">
        <ele>330.6</ele>
        <time>2013-05-29T08:26:07Z</time>
      </trkpt>
      <trkpt lat="49.15494" lon="6.92085">
        <ele>330</ele>
        <time>2013-05-29T08:26:12Z</time>
      </trkpt>
      <trkpt lat="49.15495" lon="6.92075">
        <ele>329.9</ele>
        <time>2013-05-29T08:26:17Z</time>
      </trkpt>
      <trkpt lat="49.15496" lon="6.92064">
        <ele>330.5</ele>
        <time>2013-05-29T08:26:22Z</time>
      </trkpt>
      <trkpt lat="49.15497" lon="6.92062">
        <ele>330.6</ele>
        <time>2013-05-29T08:26:23Z</time>
      </trkpt>
      <trkpt lat="49.15499" lon="6.92047">
        <ele>332.2</ele>
        <time>2013-05-29T08:26:32Z</time>
      </trkpt>
      <trkpt lat="49.15499" lon="6.92038">
        <ele>331.7</ele>
        <time>2013-05-29T08:26:37Z</time>
      </trkpt>
      <trkpt lat="49.15499" lon="6.92029">
        <ele>332</ele>
        <time>2013-05-29T08:26:42Z</time>
      </trkpt>
      <trkpt lat="49.155" lon="6.92021">
        <ele>331.9</ele>
        <time>2013-05-29T08:26:47Z</time>
      </trkpt>
      <trkpt lat="49.15502" lon="6.92013">
        <ele>332.5</ele>
        <time>2013-05-29T08:26:52Z</time>
      </trkpt>
      <trkpt lat="49.15503" lon="6.92004">
        <ele>332.6</ele>
        <time>2013-05-29T08:26:57Z</time>
      </trkpt>
      <trkpt lat="49.15504" lon="6.91997">
        <ele>333.1</ele>
        <time>2013-05-29T08:27:02Z</time>
      </trkpt>
      <trkpt lat="49.15505" lon="6.9199">
        <ele>332.2</ele>
        <time>2013-05-29T08:27:07Z</time>
      </trkpt>
      <trkpt lat="49.15509" lon="6.91986">
        <ele>332.6</ele>
        <time>2013-05-29T08:27:12Z</time>
      </trkpt>
      <trkpt lat="49.15512" lon="6.9198">
        <ele>333</ele>
        <time>2013-05-29T08:27:17Z</time>
      </trkpt>
      <trkpt lat="49.15514" lon="6.91972">
        <ele>333.5</ele>
        <time>2013-05-29T08:27:22Z</time>
      </trkpt>
      <trkpt lat="49.15513" lon="6.91963">
        <ele>333.3</ele>
        <time>2013-05-29T08:27:27Z</time>
      </trkpt>
      <trkpt lat="49.15513" lon="6.91962">
        <ele>333.3</ele>
        <time>2013-05-29T08:27:28Z</time>
      </trkpt>
      <trkpt lat="49.15513" lon="6.91955">
        <ele>334.1</ele>
        <time>2013-05-29T08:27:37Z</time>
      </trkpt>
      <trkpt lat="49.15515" lon="6.91952">
        <ele>333</ele>
        <time>2013-05-29T08:27:42Z</time>
      </trkpt>
      <trkpt lat="49.15516" lon="6.91952">
        <ele>333.4</ele>
        <time>2013-05-29T08:27:47Z</time>
      </trkpt>
      <trkpt lat="49.15518" lon="6.91952">
        <ele>334.4</ele>
        <time>2013-05-29T08:27:52Z</time>
      </trkpt>
      <trkpt lat="49.15522" lon="6.91954">
        <ele>334</ele>
        <time>2013-05-29T08:27:57Z</time>
      </trkpt>
      <trkpt lat="49.15527" lon="6.91955">
        <ele>334.9</ele>
        <time>2013-05-29T08:28:02Z</time>
      </trkpt>
      <trkpt lat="49.15532" lon="6.91957">
        <ele>335.4</ele>
        <time>2013-05-29T08:28:07Z</time>
      </trkpt>
      <trkpt lat="49.15537" lon="6.91958">
        <ele>335.5</ele>
        <time>2013-05-29T08:28:12Z</time>
      </trkpt>
      <trkpt lat="49.15542" lon="6.9196">
        <ele>335.4</ele>
        <time>2013-05-29T08:28:17Z</time>
      </trkpt>
      <trkpt lat="49.15547" lon="6.91963">
        <ele>335.5</ele>
        <time>2013-05-29T08:28:22Z</time>
      </trkpt>
      <trkpt lat="49.15552" lon="6.91966">
        <ele>336.5</ele>
        <time>2013-05-29T08:28:27Z</time>
      </trkpt>
      <trkpt lat="49.15558" lon="6.91968">
        <ele>337.6</ele>
        <time>2013-05-29T08:28:32Z</time>
      </trkpt>
      <trkpt lat="49.1556" lon="6.91968">
        <ele>337.9</ele>
        <time>2013-05-29T08:28:33Z</time>
      </trkpt>
      <trkpt lat="49.15571" lon="6.9197">
        <ele>339.2</ele>
        <time>2013-05-29T08:28:42Z</time>
      </trkpt>
      <trkpt lat="49.15574" lon="6.91971">
        <ele>338.5</ele>
        <time>2013-05-29T08:28:47Z</time>
      </trkpt>
      <trkpt lat="49.15579" lon="6.91972">
        <ele>338.7</ele>
        <time>2013-05-29T08:28:52Z</time>
      </trkpt>
      <trkpt lat="49.15583" lon="6.91973">
        <ele>339.5</ele>
        <time>2013-05-29T08:28:57Z</time>
      </trkpt>
      <trkpt lat="49.15588" lon="6.91974">
        <ele>339.9</ele>
        <time>2013-05-29T08:29:02Z</time>
      </trkpt>
      <trkpt lat="49.15593" lon="6.91975">
        <ele>341.1</ele>
        <time>2013-05-29T08:29:07Z</time>
      </trkpt>
      <trkpt lat="49.15597" lon="6.91976">
        <ele>341.1</ele>
        <time>2013-05-29T08:29:12Z</time>
      </trkpt>
      <trkpt lat="49.15602" lon="6.91978">
        <ele>342.1</ele>
        <time>2013-05-29T08:29:17Z</time>
      </trkpt>
      <trkpt lat="49.15607" lon="6.91978">
        <ele>342.2</ele>
        <time>2013-05-29T08:29:22Z</time>
      </trkpt>
      <trkpt lat="49.15612" lon="6.91978">
        <ele>343</ele>
        <time>2013-05-29T08:29:27Z</time>
      </trkpt>
      <trkpt lat="49.15617" lon="6.91978">
        <ele>342.9</ele>
        <time>2013-05-29T08:29:32Z</time>
      </trkpt>
      <trkpt lat="49.15623" lon="6.91979">
        <ele>344</ele>
        <time>2013-05-29T08:29:37Z</time>
      </trkpt>
      <trkpt lat="49.15624" lon="6.91979">
        <ele>344</ele>
        <time>2013-05-29T08:29:38Z</time>
      </trkpt>
      <trkpt lat="49.15631" lon="6.91969">
        <ele>345.2</ele>
        <time>2013-05-29T08:29:47Z</time>
      </trkpt>
      <trkpt lat="49.15634" lon="6.9196">
        <ele>345.3</ele>
        <time>2013-05-29T08:29:52Z</time>
      </trkpt>
      <trkpt lat="49.15637" lon="6.91952">
        <ele>345.9</ele>
        <time>2013-05-29T08:29:57Z</time>
      </trkpt>
      <trkpt lat="49.15639" lon="6.91944">
        <ele>345.9</ele>
        <time>2013-05-29T08:30:02Z</time>
      </trkpt>
      <trkpt lat="49.15641" lon="6.91935">
        <ele>345.6</ele>
        <time>2013-05-29T08:30:07Z</time>
      </trkpt>
      <trkpt lat="49.15644" lon="6.91927">
        <ele>346</ele>
        <time>2013-05-29T08:30:12Z</time>
      </trkpt>
      <trkpt lat="49.15646" lon="6.9192">
        <ele>345.2</ele>
        <time>2013-05-29T08:30:17Z</time>
      </trkpt>
      <trkpt lat="49.15648" lon="6.91913">
        <ele>345.4</ele>
        <time>2013-05-29T08:30:22Z</time>
      </trkpt>
      <trkpt lat="49.15651" lon="6.91906">
        <ele>345.4</ele>
        <time>2013-05-29T08:30:27Z</time>
      </trkpt>
      <trkpt lat="49.15654" lon="6.919">
        <ele>345.5</ele>
        <time>2013-05-29T08:30:32Z</time>
      </trkpt>
      <trkpt lat="49.15656" lon="6.91892">
        <ele>346.1</ele>
        <time>2013-05-29T08:30:37Z</time>
      </trkpt>
      <trkpt lat="49.15659" lon="6.91886">
        <ele>345.3</ele>
        <time>2013-05-29T08:30:42Z</time>
      </trkpt>
      <trkpt lat="49.15659" lon="6.91885">
        <ele>345</ele>
        <time>2013-05-29T08:30:43Z</time>
      </trkpt>
      <trkpt lat="49.15664" lon="6.91871">
        <ele>345.3</ele>
        <time>2013-05-29T08:30:52Z</time>
      </trkpt>
      <trkpt lat="49.15667" lon="6.91863">
        <ele>345.1</ele>
        <time>2013-05-29T08:30:57Z</time>
      </trkpt>
      <trkpt lat="49.1567" lon="6.91856">
        <ele>345.9</ele>
        <time>2013-05-29T08:31:02Z</time>
      </trkpt>
      <trkpt lat="49.15672" lon="6.91849">
        <ele>345.3</ele>
        <time>2013-05-29T08:31:07Z</time>
      </trkpt>
      <trkpt lat="49.15675" lon="6.91841">
        <ele>345.5</ele>
        <time>2013-05-29T08:31:12Z</time>
      </trkpt>
      <trkpt lat="49.15679" lon="6.91833">
        <ele>345.3</ele>
        <time>2013-05-29T08:31:17Z</time>
      </trkpt>
      <trkpt lat="49.15681" lon="6.91827">
        <ele>345.3</ele>
        <time>2013-05-29T08:31:22Z</time>
      </trkpt>
      <trkpt lat="49.15684" lon="6.91819">
        <ele>345.7</ele>
        <time>2013-05-29T08:31:27Z</time>
      </trkpt>
      <trkpt lat="49.15686" lon="6.9181">
        <ele>345.5</ele>
        <time>2013-05-29T08:31:32Z</time>
      </trkpt>
      <trkpt lat="49.15689" lon="6.91801">
        <ele>345.5</ele>
        <time>2013-05-29T08:31:37Z</time>
      </trkpt>
      <trkpt lat="49.15692" lon="6.91792">
        <ele>345.5</ele>
        <time>2013-05-29T08:31:42Z</time>
      </trkpt>
      <trkpt lat="49.15696" lon="6.91784">
        <ele>345.6</ele>
        <time>2013-05-29T08:31:47Z</time>
      </trkpt>
      <trkpt lat="49.15696" lon="6.91782">
        <ele>345.6</ele>
        <time>2013-05-29T08:31:48Z</time>
      </trkpt>
      <trkpt lat="49.15702" lon="6.91768">
        <ele>345.7</ele>
        <time>2013-05-29T08:31:57Z</time>
      </trkpt>
      <trkpt lat="49.15705" lon="6.91761">
        <ele>345.5</ele>
        <time>2013-05-29T08:32:02Z</time>
      </trkpt>
      <trkpt lat="49.15709" lon="6.91754">
        <ele>345</ele>
        <time>2013-05-29T08:32:07Z</time>
      </trkpt>
      <trkpt lat="49.15712" lon="6.91746">
        <ele>344.9</ele>
        <time>2013-05-29T08:32:12Z</time>
      </trkpt>
      <trkpt lat="49.15715" lon="6.91738">
        <ele>345.5</ele>
        <time>2013-05-29T08:32:17Z</time>
      </trkpt>
      <trkpt lat="49.15719" lon="6.9173">
        <ele>345.6</ele>
        <time>2013-05-29T08:32:22Z</time>
      </trkpt>
      <trkpt lat="49.15722" lon="6.91721">
        <ele>346.1</ele>
        <time>2013-05-29T08:32:27Z</time>
      </trkpt>
      <trkpt lat="49.15725" lon="6.91713">
        <ele>345.5</ele>
        <time>2013-05-29T08:32:32Z</time>
      </trkpt>
      <trkpt lat="49.15728" lon="6.91705">
        <ele>345.5</ele>
        <time>2013-05-29T08:32:37Z</time>
      </trkpt>
      <trkpt lat="49.15731" lon="6.91698">
        <ele>345.3</ele>
        <time>2013-05-29T08:32:42Z</time>
      </trkpt>
      <trkpt lat="49.15734" lon="6.9169">
        <ele>345.9</ele>
        <time>2013-05-29T08:32:47Z</time>
      </trkpt>
      <trkpt lat="49.15738" lon="6.91682">
        <ele>345.4</ele>
        <time>2013-05-29T08:32:52Z</time>
      </trkpt>
      <trkpt lat="49.15738" lon="6.9168">
        <ele>345.6</ele>
        <time>2013-05-29T08:32:53Z</time>
      </trkpt>
      <trkpt lat="49.15744" lon="6.91666">
        <ele>345.8</ele>
        <time>2013-05-29T08:33:02Z</time>
      </trkpt>
      <trkpt lat="49.15747" lon="6.91658">
        <ele>346</ele>
        <time>2013-05-29T08:33:07Z</time>
      </trkpt>
      <trkpt lat="49.1575" lon="6.9165">
        <ele>345.8</ele>
        <time>2013-05-29T08:33:12Z</time>
      </trkpt>
      <trkpt lat="49.15753" lon="6.91642">
        <ele>345.9</ele>
        <time>2013-05-29T08:33:17Z</time>
      </trkpt>
      <trkpt lat="49.15755" lon="6.91635">
        <ele>346.1</ele>
        <time>2013-05-29T08:33:22Z</time>
      </trkpt>
      <trkpt lat="49.15757" lon="6.91627">
        <ele>346</ele>
        <time>2013-05-29T08:33:27Z</time>
      </trkpt>
      <trkpt lat="49.1576" lon="6.9162">
        <ele>346.7</ele>
        <time>2013-05-29T08:33:32Z</time>
      </trkpt>
      <trkpt lat="49.15763" lon="6.91612">
        <ele>346.5</ele>
        <time>2013-05-29T08:33:37Z</time>
      </trkpt>
      <trkpt lat="49.15766" lon="6.91604">
        <ele>346.2</ele>
        <time>2013-05-29T08:33:42Z</time>
      </trkpt>
      <trkpt lat="49.15768" lon="6.91596">
        <ele>346.6</ele>
        <time>2013-05-29T08:33:47Z</time>
      </trkpt>
      <trkpt lat="49.15771" lon="6.91588">
        <ele>346.6</ele>
        <time>2013-05-29T08:33:52Z</time>
      </trkpt>
      <trkpt lat="49.15774" lon="6.9158">
        <ele>346.5</ele>
        <time>2013-05-29T08:33:57Z</time>
      </trkpt>
      <trkpt lat="49.15775" lon="6.91579">
        <ele>346.6</ele>
        <time>2013-05-29T08:33:58Z</time>
      </trkpt>
      <trkpt lat="49.1578" lon="6.91565">
        <ele>346.5</ele>
        <time>2013-05-29T08:34:07Z</time>
      </trkpt>
      <trkpt lat="49.15782" lon="6.91557">
        <ele>346.6</ele>
        <time>2013-05-29T08:34:12Z</time>
      </trkpt>
      <trkpt lat="49.15784" lon="6.91549">
        <ele>346.7</ele>
        <time>2013-05-29T08:34:17Z</time>
      </trkpt>
      <trkpt lat="49.15786" lon="6.91541">
        <ele>347</ele>
        <time>2013-05-29T08:34:22Z</time>
      </trkpt>
      <trkpt lat="49.15788" lon="6.91533">
        <ele>347.2</ele>
        <time>2013-05-29T08:34:27Z</time>
      </trkpt>
      <trkpt lat="49.1579" lon="6.91524">
        <ele>347.2</ele>
        <time>2013-05-29T08:34:32Z</time>
      </trkpt>
      <trkpt lat="49.15793" lon="6.91517">
        <ele>347</ele>
        <time>2013-05-29T08:34:37Z</time>
      </trkpt>
      <trkpt lat="49.15795" lon="6.9151">
        <ele>347.2</ele>
        <time>2013-05-29T08:34:42Z</time>
      </trkpt>
      <trkpt lat="49.15797" lon="6.91502">
        <ele>347.8</ele>
        <time>2013-05-29T08:34:47Z</time>
      </trkpt>
      <trkpt lat="49.158" lon="6.91494">
        <ele>347.1</ele>
        <time>2013-05-29T08:34:52Z</time>
      </trkpt>
      <trkpt lat="49.15801" lon="6.91489">
        <ele>347.6</ele>
        <time>2013-05-29T08:34:57Z</time>
      </trkpt>
      <trkpt lat="49.15803" lon="6.91482">
        <ele>347.8</ele>
        <time>2013-05-29T08:35:02Z</time>
      </trkpt>
      <trkpt lat="49.15804" lon="6.91481">
        <ele>347.8</ele>
        <time>2013-05-29T08:35:03Z</time>
      </trkpt>
      <trkpt lat="49.15808" lon="6.9147">
        <ele>348.2</ele>
        <time>2013-05-29T08:35:12Z</time>
      </trkpt>
      <trkpt lat="49.1581" lon="6.91463">
        <ele>348.2</ele>
        <time>2013-05-29T08:35:17Z</time>
      </trkpt>
      <trkpt lat="49.15813" lon="6.91456">
        <ele>347.5</ele>
        <time>2013-05-29T08:35:22Z</time>
      </trkpt>
      <trkpt lat="49.15816" lon="6.91448">
        <ele>347.4</ele>
        <time>2013-05-29T08:35:27Z</time>
      </trkpt>
      <trkpt lat="49.15818" lon="6.91441">
        <ele>347.4</ele>
        <time>2013-05-29T08:35:32Z</time>
      </trkpt>
      <trkpt lat="49.15821" lon="6.91433">
        <ele>347.9</ele>
        <time>2013-05-29T08:35:37Z</time>
      </trkpt>
      <trkpt lat="49.15824" lon="6.91425">
        <ele>348.1</ele>
        <time>2013-05-29T08:35:42Z</time>
      </trkpt>
      <trkpt lat="49.15826" lon="6.91418">
        <ele>348</ele>
        <time>2013-05-29T08:35:47Z</time>
      </trkpt>
      <trkpt lat="49.15829" lon="6.91411">
        <ele>347.7</ele>
        <time>2013-05-29T08:35:52Z</time>
      </trkpt>
      <trkpt lat="49.15832" lon="6.91404">
        <ele>348</ele>
        <time>2013-05-29T08:35:57Z</time>
      </trkpt>
      <trkpt lat="49.15835" lon="6.91397">
        <ele>347.8</ele>
        <time>2013-05-29T08:36:02Z</time>
      </trkpt>
      <trkpt lat="49.15837" lon="6.91389">
        <ele>347.7</ele>
        <time>2013-05-29T08:36:07Z</time>
      </trkpt>
      <trkpt lat="49.15838" lon="6.91388">
        <ele>348.1</ele>
        <time>2013-05-29T08:36:08Z</time>
      </trkpt>
      <trkpt lat="49.15842" lon="6.91375">
        <ele>348.6</ele>
        <time>2013-05-29T08:36:17Z</time>
      </trkpt>
      <trkpt lat="49.15844" lon="6.91368">
        <ele>348.6</ele>
        <time>2013-05-29T08:36:22Z</time>
      </trkpt>
      <trkpt lat="49.15847" lon="6.91361">
        <ele>348.8</ele>
        <time>2013-05-29T08:36:27Z</time>
      </trkpt>
      <trkpt lat="49.1585" lon="6.91353">
        <ele>348.1</ele>
        <time>2013-05-29T08:36:32Z</time>
      </trkpt>
      <trkpt lat="49.15852" lon="6.91346">
        <ele>348.2</ele>
        <time>2013-05-29T08:36:37Z</time>
      </trkpt>
      <trkpt lat="49.15855" lon="6.91339">
        <ele>348.2</ele>
        <time>2013-05-29T08:36:42Z</time>
      </trkpt>
      <trkpt lat="49.15858" lon="6.91331">
        <ele>348.8</ele>
        <time>2013-05-29T08:36:47Z</time>
      </trkpt>
      <trkpt lat="49.15861" lon="6.91324">
        <ele>348.5</ele>
        <time>2013-05-29T08:36:52Z</time>
      </trkpt>
      <trkpt lat="49.15863" lon="6.91315">
        <ele>349.1</ele>
        <time>2013-05-29T08:36:57Z</time>
      </trkpt>
      <trkpt lat="49.15865" lon="6.91306">
        <ele>349.3</ele>
        <time>2013-05-29T08:37:02Z</time>
      </trkpt>
      <trkpt lat="49.15867" lon="6.91297">
        <ele>349.3</ele>
        <time>2013-05-29T08:37:07Z</time>
      </trkpt>
      <trkpt lat="49.15869" lon="6.91289">
        <ele>349.6</ele>
        <time>2013-05-29T08:37:12Z</time>
      </trkpt>
      <trkpt lat="49.15869" lon="6.91287">
        <ele>349.4</ele>
        <time>2013-05-29T08:37:13Z</time>
      </trkpt>
      <trkpt lat="49.15873" lon="6.91273">
        <ele>349</ele>
        <time>2013-05-29T08:37:22Z</time>
      </trkpt>
      <trkpt lat="49.15875" lon="6.91264">
        <ele>349</ele>
        <time>2013-05-29T08:37:27Z</time>
      </trkpt>
      <trkpt lat="49.15878" lon="6.91256">
        <ele>349.3</ele>
        <time>2013-05-29T08:37:32Z</time>
      </trkpt>
      <trkpt lat="49.15881" lon="6.91248">
        <ele>349.7</ele>
        <time>2013-05-29T08:37:37Z</time>
      </trkpt>
      <trkpt lat="49.15883" lon="6.91239">
        <ele>349.3</ele>
        <time>2013-05-29T08:37:42Z</time>
      </trkpt>
      <trkpt lat="49.15885" lon="6.91231">
        <ele>349.9</ele>
        <time>2013-05-29T08:37:47Z</time>
      </trkpt>
      <trkpt lat="49.15888" lon="6.91223">
        <ele>350</ele>
        <time>2013-05-29T08:37:52Z</time>
      </trkpt>
      <trkpt lat="49.1589" lon="6.91214">
        <ele>349.6</ele>
        <time>2013-05-29T08:37:57Z</time>
      </trkpt>
      <trkpt lat="49.15893" lon="6.91207">
        <ele>350.1</ele>
        <time>2013-05-29T08:38:02Z</time>
      </trkpt>
      <trkpt lat="49.15896" lon="6.912">
        <ele>350.1</ele>
        <time>2013-05-29T08:38:07Z</time>
      </trkpt>
      <trkpt lat="49.159" lon="6.91192">
        <ele>350.5</ele>
        <time>2013-05-29T08:38:12Z</time>
      </trkpt>
      <trkpt lat="49.15903" lon="6.91186">
        <ele>350</ele>
        <time>2013-05-29T08:38:17Z</time>
      </trkpt>
      <trkpt lat="49.15903" lon="6.91184">
        <ele>349.9</ele>
        <time>2013-05-29T08:38:18Z</time>
      </trkpt>
      <trkpt lat="49.15908" lon="6.91169">
        <ele>349.7</ele>
        <time>2013-05-29T08:38:27Z</time>
      </trkpt>
      <trkpt lat="49.15911" lon="6.91161">
        <ele>350.1</ele>
        <time>2013-05-29T08:38:32Z</time>
      </trkpt>
      <trkpt lat="49.15915" lon="6.91155">
        <ele>351</ele>
        <time>2013-05-29T08:38:37Z</time>
      </trkpt>
      <trkpt lat="49.15919" lon="6.91148">
        <ele>351</ele>
        <time>2013-05-29T08:38:42Z</time>
      </trkpt>
      <trkpt lat="49.15923" lon="6.91141">
        <ele>350.4</ele>
        <time>2013-05-29T08:38:47Z</time>
      </trkpt>
      <trkpt lat="49.15927" lon="6.91134">
        <ele>351.2</ele>
        <time>2013-05-29T08:38:52Z</time>
      </trkpt>
      <trkpt lat="49.15931" lon="6.91128">
        <ele>351.1</ele>
        <time>2013-05-29T08:38:57Z</time>
      </trkpt>
      <trkpt lat="49.15935" lon="6.91122">
        <ele>351.2</ele>
        <time>2013-05-29T08:39:02Z</time>
      </trkpt>
      <trkpt lat="49.15939" lon="6.91116">
        <ele>351</ele>
        <time>2013-05-29T08:39:07Z</time>
      </trkpt>
      <trkpt lat="49.15943" lon="6.91109">
        <ele>350.8</ele>
        <time>2013-05-29T08:39:12Z</time>
      </trkpt>
      <trkpt lat="49.15946" lon="6.91104">
        <ele>350.7</ele>
        <time>2013-05-29T08:39:17Z</time>
      </trkpt>
      <trkpt lat="49.15949" lon="6.91097">
        <ele>350.6</ele>
        <time>2013-05-29T08:39:22Z</time>
      </trkpt>
      <trkpt lat="49.1595" lon="6.91096">
        <ele>350.6</ele>
        <time>2013-05-29T08:39:23Z</time>
      </trkpt>
      <trkpt lat="49.15953" lon="6.91081">
        <ele>350.5</ele>
        <time>2013-05-29T08:39:32Z</time>
      </trkpt>
      <trkpt lat="49.15957" lon="6.91074">
        <ele>350.7</ele>
        <time>2013-05-29T08:39:37Z</time>
      </trkpt>
      <trkpt lat="49.15959" lon="6.91067">
        <ele>350.3</ele>
        <time>2013-05-29T08:39:42Z</time>
      </trkpt>
      <trkpt lat="49.15961" lon="6.91059">
        <ele>350.5</ele>
        <time>2013-05-29T08:39:47Z</time>
      </trkpt>
      <trkpt lat="49.15963" lon="6.9105">
        <ele>350.3</ele>
        <time>2013-05-29T08:39:52Z</time>
      </trkpt>
      <trkpt lat="49.15964" lon="6.9104">
        <ele>349.8</ele>
        <time>2013-05-29T08:39:57Z</time>
      </trkpt>
      <trkpt lat="49.15965" lon="6.9103">
        <ele>349.8</ele>
        <time>2013-05-29T08:40:02Z</time>
      </trkpt>
      <trkpt lat="49.15965" lon="6.91021">
        <ele>350.3</ele>
        <time>2013-05-29T08:40:07Z</time>
      </trkpt>
      <trkpt lat="49.15966" lon="6.91012">
        <ele>350.8</ele>
        <time>2013-05-29T08:40:12Z</time>
      </trkpt>
      <trkpt lat="49.15967" lon="6.91003">
        <ele>350.8</ele>
        <time>2013-05-29T08:40:17Z</time>
      </trkpt>
      <trkpt lat="49.15969" lon="6.90994">
        <ele>350.1</ele>
        <time>2013-05-29T08:40:22Z</time>
      </trkpt>
      <trkpt lat="49.15969" lon="6.90986">
        <ele>350.7</ele>
        <time>2013-05-29T08:40:27Z</time>
      </trkpt>
      <trkpt lat="49.1597" lon="6.90985">
        <ele>350.8</ele>
        <time>2013-05-29T08:40:28Z</time>
      </trkpt>
      <trkpt lat="49.15971" lon="6.9097">
        <ele>350.4</ele>
        <time>2013-05-29T08:40:37Z</time>
      </trkpt>
      <trkpt lat="49.15971" lon="6.90961">
        <ele>350.6</ele>
        <time>2013-05-29T08:40:42Z</time>
      </trkpt>
      <trkpt lat="49.15971" lon="6.9095">
        <ele>351.7</ele>
        <time>2013-05-29T08:40:47Z</time>
      </trkpt>
      <trkpt lat="49.15971" lon="6.9094">
        <ele>351.2</ele>
        <time>2013-05-29T08:40:52Z</time>
      </trkpt>
      <trkpt lat="49.15971" lon="6.90931">
        <ele>351.3</ele>
        <time>2013-05-29T08:40:57Z</time>
      </trkpt>
      <trkpt lat="49.15971" lon="6.90922">
        <ele>351.2</ele>
        <time>2013-05-29T08:41:02Z</time>
      </trkpt>
      <trkpt lat="49.15972" lon="6.90914">
        <ele>351.2</ele>
        <time>2013-05-29T08:41:07Z</time>
      </trkpt>
      <trkpt lat="49.15972" lon="6.90906">
        <ele>351.6</ele>
        <time>2013-05-29T08:41:12Z</time>
      </trkpt>
      <trkpt lat="49.15973" lon="6.90898">
        <ele>351.3</ele>
        <time>2013-05-29T08:41:17Z</time>
      </trkpt>
      <trkpt lat="49.15974" lon="6.9089">
        <ele>351.7</ele>
        <time>2013-05-29T08:41:22Z</time>
      </trkpt>
      <trkpt lat="49.15975" lon="6.90884">
        <ele>351.5</ele>
        <time>2013-05-29T08:41:27Z</time>
      </trkpt>
      <trkpt lat="49.15975" lon="6.90877">
        <ele>351.2</ele>
        <time>2013-05-29T08:41:32Z</time>
      </trkpt>
      <trkpt lat="49.15975" lon="6.90875">
        <ele>351.3</ele>
        <time>2013-05-29T08:41:33Z</time>
      </trkpt>
      <trkpt lat="49.15975" lon="6.90861">
        <ele>352</ele>
        <time>2013-05-29T08:41:42Z</time>
      </trkpt>
      <trkpt lat="49.15975" lon="6.90853">
        <ele>352.4</ele>
        <time>2013-05-29T08:41:47Z</time>
      </trkpt>
      <trkpt lat="49.15977" lon="6.90846">
        <ele>351.7</ele>
        <time>2013-05-29T08:41:52Z</time>
      </trkpt>
      <trkpt lat="49.15977" lon="6.90837">
        <ele>351.8</ele>
        <time>2013-05-29T08:41:57Z</time>
      </trkpt>
      <trkpt lat="49.15977" lon="6.90828">
        <ele>352.3</ele>
        <time>2013-05-29T08:42:02Z</time>
      </trkpt>
      <trkpt lat="49.15978" lon="6.90819">
        <ele>352.5</ele>
        <time>2013-05-29T08:42:07Z</time>
      </trkpt>
      <trkpt lat="49.15978" lon="6.90811">
        <ele>353</ele>
        <time>2013-05-29T08:42:12Z</time>
      </trkpt>
      <trkpt lat="49.15978" lon="6.90804">
        <ele>352.7</ele>
        <time>2013-05-29T08:42:17Z</time>
      </trkpt>
      <trkpt lat="49.15978" lon="6.90797">
        <ele>353</ele>
        <time>2013-05-29T08:42:22Z</time>
      </trkpt>
      <trkpt lat="49.15979" lon="6.90792">
        <ele>352.7</ele>
        <time>2013-05-29T08:42:27Z</time>
      </trkpt>
      <trkpt lat="49.15979" lon="6.90784">
        <ele>352.3</ele>
        <time>2013-05-29T08:42:32Z</time>
      </trkpt>
      <trkpt lat="49.15979" lon="6.90776">
        <ele>352.4</ele>
        <time>2013-05-29T08:42:37Z</time>
      </trkpt>
      <trkpt lat="49.1598" lon="6.90775">
        <ele>352.5</ele>
        <time>2013-05-29T08:42:38Z</time>
      </trkpt>
      <trkpt lat="49.15982" lon="6.9076">
        <ele>353.2</ele>
        <time>2013-05-29T08:42:47Z</time>
      </trkpt>
      <trkpt lat="49.15982" lon="6.90751">
        <ele>353.6</ele>
        <time>2013-05-29T08:42:52Z</time>
      </trkpt>
      <trkpt lat="49.15984" lon="6.90743">
        <ele>354</ele>
        <time>2013-05-29T08:42:57Z</time>
      </trkpt>
      <trkpt lat="49.15985" lon="6.90735">
        <ele>353.9</ele>
        <time>2013-05-29T08:43:02Z</time>
      </trkpt>
      <trkpt lat="49.15986" lon="6.90728">
        <ele>353.9</ele>
        <time>2013-05-29T08:43:07Z</time>
      </trkpt>
      <trkpt lat="49.15988" lon="6.90719">
        <ele>353.7</ele>
        <time>2013-05-29T08:43:12Z</time>
      </trkpt>
      <trkpt lat="49.1599" lon="6.90711">
        <ele>353.9</ele>
        <time>2013-05-29T08:43:17Z</time>
      </trkpt>
      <trkpt lat="49.15992" lon="6.90703">
        <ele>354.8</ele>
        <time>2013-05-29T08:43:22Z</time>
      </trkpt>
      <trkpt lat="49.15994" lon="6.90695">
        <ele>354.9</ele>
        <time>2013-05-29T08:43:27Z</time>
      </trkpt>
      <trkpt lat="49.15997" lon="6.90688">
        <ele>354.9</ele>
        <time>2013-05-29T08:43:32Z</time>
      </trkpt>
      <trkpt lat="49.15999" lon="6.90681">
        <ele>355.6</ele>
        <time>2013-05-29T08:43:37Z</time>
      </trkpt>
      <trkpt lat="49.16002" lon="6.90673">
        <ele>356.1</ele>
        <time>2013-05-29T08:43:42Z</time>
      </trkpt>
      <trkpt lat="49.16003" lon="6.90672">
        <ele>355.9</ele>
        <time>2013-05-29T08:43:43Z</time>
      </trkpt>
      <trkpt lat="49.16008" lon="6.9066">
        <ele>355.6</ele>
        <time>2013-05-29T08:43:52Z</time>
      </trkpt>
      <trkpt lat="49.16011" lon="6.90653">
        <ele>355.9</ele>
        <time>2013-05-29T08:43:57Z</time>
      </trkpt>
      <trkpt lat="49.16014" lon="6.90646">
        <ele>357</ele>
        <time>2013-05-29T08:44:02Z</time>
      </trkpt>
      <trkpt lat="49.16016" lon="6.9064">
        <ele>357</ele>
        <time>2013-05-29T08:44:07Z</time>
      </trkpt>
      <trkpt lat="49.16019" lon="6.90635">
        <ele>357.3</ele>
        <time>2013-05-29T08:44:12Z</time>
      </trkpt>
      <trkpt lat="49.16021" lon="6.9063">
        <ele>357.2</ele>
        <time>2013-05-29T08:44:17Z</time>
      </trkpt>
      <trkpt lat="49.16024" lon="6.90626">
        <ele>358.8</ele>
        <time>2013-05-29T08:44:22Z</time>
      </trkpt>
      <trkpt lat="49.16027" lon="6.9062">
        <ele>358.9</ele>
        <time>2013-05-29T08:44:27Z</time>
      </trkpt>
      <trkpt lat="49.1603" lon="6.90613">
        <ele>359.2</ele>
        <time>2013-05-29T08:44:32Z</time>
      </trkpt>
      <trkpt lat="49.16034" lon="6.90606">
        <ele>359</ele>
        <time>2013-05-29T08:44:37Z</time>
      </trkpt>
      <trkpt lat="49.16038" lon="6.906">
        <ele>359.4</ele>
        <time>2013-05-29T08:44:42Z</time>
      </trkpt>
      <trkpt lat="49.16043" lon="6.90594">
        <ele>359.9</ele>
        <time>2013-05-29T08:44:47Z</time>
      </trkpt>
      <trkpt lat="49.16044" lon="6.90594">
        <ele>360.1</ele>
        <time>2013-05-29T08:44:48Z</time>
      </trkpt>
      <trkpt lat="49.16051" lon="6.90583">
        <ele>361</ele>
        <time>2013-05-29T08:44:57Z</time>
      </trkpt>
      <trkpt lat="49.16055" lon="6.90576">
        <ele>361.6</ele>
        <time>2013-05-29T08:45:02Z</time>
      </trkpt>
      <trkpt lat="49.16059" lon="6.90568">
        <ele>361.9</ele>
        <time>2013-05-29T08:45:07Z</time>
      </trkpt>
      <trkpt lat="49.16063" lon="6.90559">
        <ele>362.4</ele>
        <time>2013-05-29T08:45:12Z</time>
      </trkpt>
      <trkpt lat="49.16066" lon="6.90551">
        <ele>362.1</ele>
        <time>2013-05-29T08:45:17Z</time>
      </trkpt>
      <trkpt lat="49.1607" lon="6.90542">
        <ele>362.9</ele>
        <time>2013-05-29T08:45:22Z</time>
      </trkpt>
      <trkpt lat="49.16073" lon="6.90533">
        <ele>362.7</ele>
        <time>2013-05-29T08:45:27Z</time>
      </trkpt>
      <trkpt lat="49.16077" lon="6.90525">
        <ele>362.8</ele>
        <time>2013-05-29T08:45:32Z</time>
      </trkpt>
      <trkpt lat="49.1608" lon="6.90516">
        <ele>363.1</ele>
        <time>2013-05-29T08:45:37Z</time>
      </trkpt>
      <trkpt lat="49.16083" lon="6.90508">
        <ele>363.5</ele>
        <time>2013-05-29T08:45:42Z</time>
      </trkpt>
      <trkpt lat="49.16087" lon="6.905">
        <ele>363.7</ele>
        <time>2013-05-29T08:45:47Z</time>
      </trkpt>
      <trkpt lat="49.16089" lon="6.90491">
        <ele>363.6</ele>
        <time>2013-05-29T08:45:52Z</time>
      </trkpt>
      <trkpt lat="49.1609" lon="6.90489">
        <ele>363.7</ele>
        <time>2013-05-29T08:45:53Z</time>
      </trkpt>
      <trkpt lat="49.16096" lon="6.90475">
        <ele>364.6</ele>
        <time>2013-05-29T08:46:02Z</time>
      </trkpt>
      <trkpt lat="49.16097" lon="6.90465">
        <ele>364.5</ele>
        <time>2013-05-29T08:46:07Z</time>
      </trkpt>
      <trkpt lat="49.16099" lon="6.90457">
        <ele>365.4</ele>
        <time>2013-05-29T08:46:12Z</time>
      </trkpt>
      <trkpt lat="49.16099" lon="6.90453">
        <ele>365.5</ele>
        <time>2013-05-29T08:46:17Z</time>
      </trkpt>
      <trkpt lat="49.16099" lon="6.90452">
        <ele>365.8</ele>
        <time>2013-05-29T08:46:22Z</time>
      </trkpt>
      <trkpt lat="49.16098" lon="6.9045">
        <ele>365.4</ele>
        <time>2013-05-29T08:46:27Z</time>
      </trkpt>
      <trkpt lat="49.16098" lon="6.9045">
        <ele>365.3</ele>
        <time>2013-05-29T08:46:32Z</time>
      </trkpt>
      <trkpt lat="49.16098" lon="6.9045">
        <ele>365.6</ele>
        <time>2013-05-29T08:46:37Z</time>
      </trkpt>
      <trkpt lat="49.16097" lon="6.90449">
        <ele>366</ele>
        <time>2013-05-29T08:46:42Z</time>
      </trkpt>
      <trkpt lat="49.16098" lon="6.90447">
        <ele>365.1</ele>
        <time>2013-05-29T08:46:47Z</time>
      </trkpt>
      <trkpt lat="49.16097" lon="6.90446">
        <ele>366</ele>
        <time>2013-05-29T08:46:52Z</time>
      </trkpt>
      <trkpt lat="49.16097" lon="6.90445">
        <ele>365.8</ele>
        <time>2013-05-29T08:46:57Z</time>
      </trkpt>
      <trkpt lat="49.16097" lon="6.90445">
        <ele>365.5</ele>
        <time>2013-05-29T08:46:58Z</time>
      </trkpt>
      <trkpt lat="49.16096" lon="6.90443">
        <ele>365.7</ele>
        <time>2013-05-29T08:47:07Z</time>
      </trkpt>
      <trkpt lat="49.16096" lon="6.90443">
        <ele>365.1</ele>
        <time>2013-05-29T08:47:12Z</time>
      </trkpt>
      <trkpt lat="49.16097" lon="6.90443">
        <ele>365.7</ele>
        <time>2013-05-29T08:47:17Z</time>
      </trkpt>
      <trkpt lat="49.16098" lon="6.90444">
        <ele>364.9</ele>
        <time>2013-05-29T08:47:22Z</time>
      </trkpt>
      <trkpt lat="49.16098" lon="6.90445">
        <ele>365</ele>
        <time>2013-05-29T08:47:27Z</time>
      </trkpt>
      <trkpt lat="49.16098" lon="6.90445">
        <ele>365.3</ele>
        <time>2013-05-29T08:47:32Z</time>
      </trkpt>
      <trkpt lat="49.16098" lon="6.90446">
        <ele>365.3</ele>
        <time>2013-05-29T08:47:37Z</time>
      </trkpt>
      <trkpt lat="49.16098" lon="6.90446">
        <ele>365.6</ele>
        <time>2013-05-29T08:47:42Z</time>
      </trkpt>
      <trkpt lat="49.16098" lon="6.90446">
        <ele>364.9</ele>
        <time>2013-05-29T08:47:47Z</time>
      </trkpt>
      <trkpt lat="49.16098" lon="6.90445">
        <ele>365.2</ele>
        <time>2013-05-29T08:47:52Z</time>
      </trkpt>
      <trkpt lat="49.16098" lon="6.90445">
        <ele>364.8</ele>
        <time>2013-05-29T08:47:57Z</time>
      </trkpt>
      <trkpt lat="49.16098" lon="6.90445">
        <ele>365.3</ele>
        <time>2013-05-29T08:48:02Z</time>
      </trkpt>
      <trkpt lat="49.16098" lon="6.90445">
        <ele>365.3</ele>
        <time>2013-05-29T08:48:03Z</time>
      </trkpt>
      <trkpt lat="49.16097" lon="6.90445">
        <ele>365.2</ele>
        <time>2013-05-29T08:48:12Z</time>
      </trkpt>
      <trkpt lat="49.16097" lon="6.90445">
        <ele>365</ele>
        <time>2013-05-29T08:48:17Z</time>
      </trkpt>
      <trkpt lat="49.16097" lon="6.90444">
        <ele>364.9</ele>
        <time>2013-05-29T08:48:22Z</time>
      </trkpt>
      <trkpt lat="49.16097" lon="6.90444">
        <ele>365.2</ele>
        <time>2013-05-29T08:48:27Z</time>
      </trkpt>
      <trkpt lat="49.16097" lon="6.90444">
        <ele>365.8</ele>
        <time>2013-05-29T08:48:32Z</time>
      </trkpt>
      <trkpt lat="49.16098" lon="6.90445">
        <ele>365.4</ele>
        <time>2013-05-29T08:48:37Z</time>
      </trkpt>
      <trkpt lat="49.161" lon="6.90445">
        <ele>365.4</ele>
        <time>2013-05-29T08:48:42Z</time>
      </trkpt>
      <trkpt lat="49.16104" lon="6.90444">
        <ele>365.3</ele>
        <time>2013-05-29T08:48:47Z</time>
      </trkpt>
      <trkpt lat="49.16107" lon="6.90439">
        <ele>364.9</ele>
        <time>2013-05-29T08:48:52Z</time>
      </trkpt>
      <trkpt lat="49.1611" lon="6.90435">
        <ele>364.4</ele>
        <time>2013-05-29T08:48:57Z</time>
      </trkpt>
      <trkpt lat="49.16112" lon="6.90429">
        <ele>364</ele>
        <time>2013-05-29T08:49:02Z</time>
      </trkpt>
      <trkpt lat="49.16112" lon="6.90423">
        <ele>363.9</ele>
        <time>2013-05-29T08:49:07Z</time>
      </trkpt>
      <trkpt lat="49.16112" lon="6.90421">
        <ele>364</ele>
        <time>2013-05-29T08:49:08Z</time>
      </trkpt>
      <trkpt lat="49.16111" lon="6.90407">
        <ele>363.4</ele>
        <time>2013-05-29T08:49:17Z</time>
      </trkpt>
      <trkpt lat="49.16111" lon="6.90401">
        <ele>362.5</ele>
        <time>2013-05-29T08:49:22Z</time>
      </trkpt>
      <trkpt lat="49.1611" lon="6.90394">
        <ele>362.4</ele>
        <time>2013-05-29T08:49:27Z</time>
      </trkpt>
      <trkpt lat="49.1611" lon="6.90385">
        <ele>362.4</ele>
        <time>2013-05-29T08:49:32Z</time>
      </trkpt>
      <trkpt lat="49.16111" lon="6.90375">
        <ele>362</ele>
        <time>2013-05-29T08:49:37Z</time>
      </trkpt>
      <trkpt lat="49.16113" lon="6.90367">
        <ele>361.3</ele>
        <time>2013-05-29T08:49:42Z</time>
      </trkpt>
      <trkpt lat="49.16113" lon="6.90358">
        <ele>361.3</ele>
        <time>2013-05-29T08:49:47Z</time>
      </trkpt>
      <trkpt lat="49.16113" lon="6.90347">
        <ele>360.5</ele>
        <time>2013-05-29T08:49:52Z</time>
      </trkpt>
      <trkpt lat="49.16114" lon="6.90337">
        <ele>359.8</ele>
        <time>2013-05-29T08:49:57Z</time>
      </trkpt>
      <trkpt lat="49.16115" lon="6.90327">
        <ele>359.3</ele>
        <time>2013-05-29T08:50:02Z</time>
      </trkpt>
      <trkpt lat="49.16115" lon="6.90316">
        <ele>359.1</ele>
        <time>2013-05-29T08:50:07Z</time>
      </trkpt>
      <trkpt lat="49.16116" lon="6.90307">
        <ele>359.3</ele>
        <time>2013-05-29T08:50:12Z</time>
      </trkpt>
      <trkpt lat="49.16117" lon="6.90305">
        <ele>359.2</ele>
        <time>2013-05-29T08:50:13Z</time>
      </trkpt>
      <trkpt lat="49.16118" lon="6.9029">
        <ele>358.4</ele>
        <time>2013-05-29T08:50:22Z</time>
      </trkpt>
      <trkpt lat="49.1612" lon="6.90281">
        <ele>357.9</ele>
        <time>2013-05-29T08:50:27Z</time>
      </trkpt>
      <trkpt lat="49.16122" lon="6.90272">
        <ele>357.6</ele>
        <time>2013-05-29T08:50:32Z</time>
      </trkpt>
      <trkpt lat="49.16124" lon="6.90263">
        <ele>357.4</ele>
        <time>2013-05-29T08:50:37Z</time>
      </trkpt>
      <trkpt lat="49.16126" lon="6.90253">
        <ele>357</ele>
        <time>2013-05-29T08:50:42Z</time>
      </trkpt>
      <trkpt lat="49.16127" lon="6.90244">
        <ele>356.6</ele>
        <time>2013-05-29T08:50:47Z</time>
      </trkpt>
      <trkpt lat="49.16129" lon="6.90235">
        <ele>356.6</ele>
        <time>2013-05-29T08:50:52Z</time>
      </trkpt>
      <trkpt lat="49.1613" lon="6.90226">
        <ele>356.1</ele>
        <time>2013-05-29T08:50:57Z</time>
      </trkpt>
      <trkpt lat="49.16132" lon="6.90217">
        <ele>355.1</ele>
        <time>2013-05-29T08:51:02Z</time>
      </trkpt>
      <trkpt lat="49.16134" lon="6.90207">
        <ele>354.9</ele>
        <time>2013-05-29T08:51:07Z</time>
      </trkpt>
      <trkpt lat="49.16136" lon="6.90198">
        <ele>354.2</ele>
        <time>2013-05-29T08:51:12Z</time>
      </trkpt>
      <trkpt lat="49.16138" lon="6.9019">
        <ele>354.6</ele>
        <time>2013-05-29T08:51:17Z</time>
      </trkpt>
      <trkpt lat="49.16139" lon="6.90189">
        <ele>354.4</ele>
        <time>2013-05-29T08:51:18Z</time>
      </trkpt>
      <trkpt lat="49.16141" lon="6.90172">
        <ele>353.5</ele>
        <time>2013-05-29T08:51:27Z</time>
      </trkpt>
      <trkpt lat="49.16143" lon="6.90163">
        <ele>353.1</ele>
        <time>2013-05-29T08:51:32Z</time>
      </trkpt>
      <trkpt lat="49.16145" lon="6.90153">
        <ele>352.6</ele>
        <time>2013-05-29T08:51:37Z</time>
      </trkpt>
      <trkpt lat="49.16147" lon="6.90144">
        <ele>352.8</ele>
        <time>2013-05-29T08:51:42Z</time>
      </trkpt>
      <trkpt lat="49.16149" lon="6.90135">
        <ele>352.3</ele>
        <time>2013-05-29T08:51:47Z</time>
      </trkpt>
      <trkpt lat="49.16152" lon="6.90126">
        <ele>351.4</ele>
        <time>2013-05-29T08:51:52Z</time>
      </trkpt>
      <trkpt lat="49.16155" lon="6.90116">
        <ele>350.7</ele>
        <time>2013-05-29T08:51:57Z</time>
      </trkpt>
      <trkpt lat="49.16159" lon="6.90108">
        <ele>349.9</ele>
        <time>2013-05-29T08:52:02Z</time>
      </trkpt>
      <trkpt lat="49.16163" lon="6.90099">
        <ele>348.7</ele>
        <time>2013-05-29T08:52:07Z</time>
      </trkpt>
      <trkpt lat="49.16166" lon="6.9009">
        <ele>348.2</ele>
        <time>2013-05-29T08:52:12Z</time>
      </trkpt>
      <trkpt lat="49.16169" lon="6.90081">
        <ele>347.9</ele>
        <time>2013-05-29T08:52:17Z</time>
      </trkpt>
      <trkpt lat="49.16174" lon="6.90073">
        <ele>347.3</ele>
        <time>2013-05-29T08:52:22Z</time>
      </trkpt>
      <trkpt lat="49.16175" lon="6.90071">
        <ele>347.8</ele>
        <time>2013-05-29T08:52:23Z</time>
      </trkpt>
      <trkpt lat="49.16182" lon="6.90059">
        <ele>345.9</ele>
        <time>2013-05-29T08:52:32Z</time>
      </trkpt>
      <trkpt lat="49.16186" lon="6.90053">
        <ele>345.7</ele>
        <time>2013-05-29T08:52:37Z</time>
      </trkpt>
      <trkpt lat="49.1619" lon="6.90045">
        <ele>345.2</ele>
        <time>2013-05-29T08:52:42Z</time>
      </trkpt>
      <trkpt lat="49.16194" lon="6.90039">
        <ele>344.3</ele>
        <time>2013-05-29T08:52:47Z</time>
      </trkpt>
      <trkpt lat="49.16197" lon="6.90032">
        <ele>343.5</ele>
        <time>2013-05-29T08:52:52Z</time>
      </trkpt>
      <trkpt lat="49.162" lon="6.90027">
        <ele>342.4</ele>
        <time>2013-05-29T08:52:57Z</time>
      </trkpt>
      <trkpt lat="49.16205" lon="6.90022">
        <ele>340.5</ele>
        <time>2013-05-29T08:53:02Z</time>
      </trkpt>
      <trkpt lat="49.16209" lon="6.90015">
        <ele>339.7</ele>
        <time>2013-05-29T08:53:07Z</time>
      </trkpt>
      <trkpt lat="49.16213" lon="6.90009">
        <ele>338.9</ele>
        <time>2013-05-29T08:53:12Z</time>
      </trkpt>
      <trkpt lat="49.16217" lon="6.90003">
        <ele>338.2</ele>
        <time>2013-05-29T08:53:17Z</time>
      </trkpt>
      <trkpt lat="49.16221" lon="6.89997">
        <ele>337.5</ele>
        <time>2013-05-29T08:53:22Z</time>
      </trkpt>
      <trkpt lat="49.16227" lon="6.89991">
        <ele>336.5</ele>
        <time>2013-05-29T08:53:27Z</time>
      </trkpt>
      <trkpt lat="49.16228" lon="6.8999">
        <ele>336.3</ele>
        <time>2013-05-29T08:53:28Z</time>
      </trkpt>
      <trkpt lat="49.16237" lon="6.89979">
        <ele>334.5</ele>
        <time>2013-05-29T08:53:37Z</time>
      </trkpt>
      <trkpt lat="49.16241" lon="6.89974">
        <ele>334.5</ele>
        <time>2013-05-29T08:53:42Z</time>
      </trkpt>
      <trkpt lat="49.16246" lon="6.89967">
        <ele>333.7</ele>
        <time>2013-05-29T08:53:47Z</time>
      </trkpt>
      <trkpt lat="49.16251" lon="6.8996">
        <ele>331.9</ele>
        <time>2013-05-29T08:53:52Z</time>
      </trkpt>
      <trkpt lat="49.16256" lon="6.89954">
        <ele>331.2</ele>
        <time>2013-05-29T08:53:57Z</time>
      </trkpt>
      <trkpt lat="49.16261" lon="6.89948">
        <ele>330.1</ele>
        <time>2013-05-29T08:54:02Z</time>
      </trkpt>
      <trkpt lat="49.16266" lon="6.8994">
        <ele>329.5</ele>
        <time>2013-05-29T08:54:07Z</time>
      </trkpt>
      <trkpt lat="49.16269" lon="6.89933">
        <ele>328.5</ele>
        <time>2013-05-29T08:54:12Z</time>
      </trkpt>
      <trkpt lat="49.16272" lon="6.89924">
        <ele>327.1</ele>
        <time>2013-05-29T08:54:17Z</time>
      </trkpt>
      <trkpt lat="49.16273" lon="6.89916">
        <ele>326.6</ele>
        <time>2013-05-29T08:54:22Z</time>
      </trkpt>
      <trkpt lat="49.16273" lon="6.89906">
        <ele>326.8</ele>
        <time>2013-05-29T08:54:27Z</time>
      </trkpt>
      <trkpt lat="49.16273" lon="6.89897">
        <ele>325.4</ele>
        <time>2013-05-29T08:54:32Z</time>
      </trkpt>
      <trkpt lat="49.16272" lon="6.89895">
        <ele>325.1</ele>
        <time>2013-05-29T08:54:33Z</time>
      </trkpt>
      <trkpt lat="49.1627" lon="6.8988">
        <ele>324.9</ele>
        <time>2013-05-29T08:54:42Z</time>
      </trkpt>
      <trkpt lat="49.16268" lon="6.89871">
        <ele>324.4</ele>
        <time>2013-05-29T08:54:47Z</time>
      </trkpt>
      <trkpt lat="49.16266" lon="6.89863">
        <ele>324.7</ele>
        <time>2013-05-29T08:54:52Z</time>
      </trkpt>
      <trkpt lat="49.16264" lon="6.89854">
        <ele>323.9</ele>
        <time>2013-05-29T08:54:57Z</time>
      </trkpt>
      <trkpt lat="49.16262" lon="6.89847">
        <ele>324</ele>
        <time>2013-05-29T08:55:02Z</time>
      </trkpt>
      <trkpt lat="49.16259" lon="6.8984">
        <ele>323.7</ele>
        <time>2013-05-29T08:55:07Z</time>
      </trkpt>
      <trkpt lat="49.16256" lon="6.89832">
        <ele>324.2</ele>
        <time>2013-05-29T08:55:12Z</time>
      </trkpt>
      <trkpt lat="49.16254" lon="6.89824">
        <ele>324.4</ele>
        <time>2013-05-29T08:55:17Z</time>
      </trkpt>
      <trkpt lat="49.16251" lon="6.89815">
        <ele>324.2</ele>
        <time>2013-05-29T08:55:22Z</time>
      </trkpt>
      <trkpt lat="49.16249" lon="6.89807">
        <ele>324.4</ele>
        <time>2013-05-29T08:55:27Z</time>
      </trkpt>
      <trkpt lat="49.16247" lon="6.89799">
        <ele>324.9</ele>
        <time>2013-05-29T08:55:32Z</time>
      </trkpt>
      <trkpt lat="49.16244" lon="6.89791">
        <ele>324.4</ele>
        <time>2013-05-29T08:55:37Z</time>
      </trkpt>
      <trkpt lat="49.16244" lon="6.89789">
        <ele>324.4</ele>
        <time>2013-05-29T08:55:38Z</time>
      </trkpt>
      <trkpt lat="49.16238" lon="6.89774">
        <ele>324.6</ele>
        <time>2013-05-29T08:55:47Z</time>
      </trkpt>
      <trkpt lat="49.16236" lon="6.89766">
        <ele>324.5</ele>
        <time>2013-05-29T08:55:52Z</time>
      </trkpt>
      <trkpt lat="49.16234" lon="6.89759">
        <ele>325</ele>
        <time>2013-05-29T08:55:57Z</time>
      </trkpt>
      <trkpt lat="49.16232" lon="6.89752">
        <ele>324.9</ele>
        <time>2013-05-29T08:56:02Z</time>
      </trkpt>
      <trkpt lat="49.1623" lon="6.89745">
        <ele>325</ele>
        <time>2013-05-29T08:56:07Z</time>
      </trkpt>
      <trkpt lat="49.16227" lon="6.89737">
        <ele>324.8</ele>
        <time>2013-05-29T08:56:12Z</time>
      </trkpt>
      <trkpt lat="49.16225" lon="6.8973">
        <ele>325.4</ele>
        <time>2013-05-29T08:56:17Z</time>
      </trkpt>
      <trkpt lat="49.16223" lon="6.89723">
        <ele>325.8</ele>
        <time>2013-05-29T08:56:22Z</time>
      </trkpt>
      <trkpt lat="49.16221" lon="6.89716">
        <ele>326.4</ele>
        <time>2013-05-29T08:56:27Z</time>
      </trkpt>
      <trkpt lat="49.1622" lon="6.8971">
        <ele>326.5</ele>
        <time>2013-05-29T08:56:32Z</time>
      </trkpt>
      <trkpt lat="49.1622" lon="6.89703">
        <ele>326.2</ele>
        <time>2013-05-29T08:56:37Z</time>
      </trkpt>
      <trkpt lat="49.16218" lon="6.89697">
        <ele>326.3</ele>
        <time>2013-05-29T08:56:42Z</time>
      </trkpt>
      <trkpt lat="49.16218" lon="6.89696">
        <ele>326.4</ele>
        <time>2013-05-29T08:56:43Z</time>
      </trkpt>
      <trkpt lat="49.16221" lon="6.89685">
        <ele>326.6</ele>
        <time>2013-05-29T08:56:52Z</time>
      </trkpt>
      <trkpt lat="49.16224" lon="6.89679">
        <ele>326.9</ele>
        <time>2013-05-29T08:56:57Z</time>
      </trkpt>
      <trkpt lat="49.16226" lon="6.89673">
        <ele>326.9</ele>
        <time>2013-05-29T08:57:02Z</time>
      </trkpt>
      <trkpt lat="49.1623" lon="6.89668">
        <ele>325.7</ele>
        <time>2013-05-29T08:57:07Z</time>
      </trkpt>
      <trkpt lat="49.16234" lon="6.89664">
        <ele>325.2</ele>
        <time>2013-05-29T08:57:12Z</time>
      </trkpt>
      <trkpt lat="49.16238" lon="6.8966">
        <ele>324.5</ele>
        <time>2013-05-29T08:57:17Z</time>
      </trkpt>
      <trkpt lat="49.16242" lon="6.89655">
        <ele>324.5</ele>
        <time>2013-05-29T08:57:22Z</time>
      </trkpt>
      <trkpt lat="49.16246" lon="6.89652">
        <ele>323.8</ele>
        <time>2013-05-29T08:57:27Z</time>
      </trkpt>
      <trkpt lat="49.16251" lon="6.89647">
        <ele>323.2</ele>
        <time>2013-05-29T08:57:32Z</time>
      </trkpt>
      <trkpt lat="49.16255" lon="6.89644">
        <ele>323.1</ele>
        <time>2013-05-29T08:57:37Z</time>
      </trkpt>
      <trkpt lat="49.1626" lon="6.89639">
        <ele>323.3</ele>
        <time>2013-05-29T08:57:42Z</time>
      </trkpt>
      <trkpt lat="49.16264" lon="6.89635">
        <ele>322.9</ele>
        <time>2013-05-29T08:57:47Z</time>
      </trkpt>
      <trkpt lat="49.16265" lon="6.89635">
        <ele>323</ele>
        <time>2013-05-29T08:57:48Z</time>
      </trkpt>
      <trkpt lat="49.16276" lon="6.89627">
        <ele>323</ele>
        <time>2013-05-29T08:57:57Z</time>
      </trkpt>
      <trkpt lat="49.16281" lon="6.89622">
        <ele>322.7</ele>
        <time>2013-05-29T08:58:02Z</time>
      </trkpt>
      <trkpt lat="49.16287" lon="6.89618">
        <ele>321.9</ele>
        <time>2013-05-29T08:58:07Z</time>
      </trkpt>
      <trkpt lat="49.16292" lon="6.89615">
        <ele>322.1</ele>
        <time>2013-05-29T08:58:12Z</time>
      </trkpt>
      <trkpt lat="49.16298" lon="6.89611">
        <ele>322.7</ele>
        <time>2013-05-29T08:58:17Z</time>
      </trkpt>
      <trkpt lat="49.16304" lon="6.89608">
        <ele>322.2</ele>
        <time>2013-05-29T08:58:22Z</time>
      </trkpt>
      <trkpt lat="49.16309" lon="6.89604">
        <ele>322.2</ele>
        <time>2013-05-29T08:58:27Z</time>
      </trkpt>
      <trkpt lat="49.16313" lon="6.89601">
        <ele>321.7</ele>
        <time>2013-05-29T08:58:32Z</time>
      </trkpt>
      <trkpt lat="49.16318" lon="6.896">
        <ele>321.5</ele>
        <time>2013-05-29T08:58:37Z</time>
      </trkpt>
      <trkpt lat="49.16323" lon="6.89599">
        <ele>322.2</ele>
        <time>2013-05-29T08:58:42Z</time>
      </trkpt>
      <trkpt lat="49.16328" lon="6.89596">
        <ele>322.2</ele>
        <time>2013-05-29T08:58:47Z</time>
      </trkpt>
      <trkpt lat="49.16333" lon="6.89592">
        <ele>322.5</ele>
        <time>2013-05-29T08:58:52Z</time>
      </trkpt>
      <trkpt lat="49.16334" lon="6.89591">
        <ele>322.7</ele>
        <time>2013-05-29T08:58:53Z</time>
      </trkpt>
      <trkpt lat="49.16344" lon="6.89583">
        <ele>322.5</ele>
        <time>2013-05-29T08:59:02Z</time>
      </trkpt>
      <trkpt lat="49.16348" lon="6.89579">
        <ele>322.9</ele>
        <time>2013-05-29T08:59:07Z</time>
      </trkpt>
      <trkpt lat="49.16353" lon="6.89574">
        <ele>322.8</ele>
        <time>2013-05-29T08:59:12Z</time>
      </trkpt>
      <trkpt lat="49.16359" lon="6.89569">
        <ele>322.8</ele>
        <time>2013-05-29T08:59:17Z</time>
      </trkpt>
      <trkpt lat="49.16364" lon="6.89564">
        <ele>323</ele>
        <time>2013-05-29T08:59:22Z</time>
      </trkpt>
      <trkpt lat="49.16368" lon="6.89559">
        <ele>322.9</ele>
        <time>2013-05-29T08:59:27Z</time>
      </trkpt>
      <trkpt lat="49.16372" lon="6.89553">
        <ele>322.7</ele>
        <time>2013-05-29T08:59:32Z</time>
      </trkpt>
      <trkpt lat="49.16374" lon="6.89548">
        <ele>323.4</ele>
        <time>2013-05-29T08:59:37Z</time>
      </trkpt>
      <trkpt lat="49.16376" lon="6.89548">
        <ele>323.6</ele>
        <time>2013-05-29T08:59:42Z</time>
      </trkpt>
      <trkpt lat="49.16377" lon="6.89548">
        <ele>324</ele>
        <time>2013-05-29T08:59:47Z</time>
      </trkpt>
      <trkpt lat="49.16377" lon="6.89548">
        <ele>323.8</ele>
        <time>2013-05-29T08:59:52Z</time>
      </trkpt>
      <trkpt lat="49.16378" lon="6.89549">
        <ele>322.9</ele>
        <time>2013-05-29T08:59:57Z</time>
      </trkpt>
      <trkpt lat="49.16379" lon="6.89549">
        <ele>322.8</ele>
        <time>2013-05-29T08:59:58Z</time>
      </trkpt>
      <trkpt lat="49.1638" lon="6.89548">
        <ele>323.4</ele>
        <time>2013-05-29T09:00:07Z</time>
      </trkpt>
      <trkpt lat="49.16379" lon="6.89543">
        <ele>324.3</ele>
        <time>2013-05-29T09:00:12Z</time>
      </trkpt>
      <trkpt lat="49.16377" lon="6.89537">
        <ele>323.6</ele>
        <time>2013-05-29T09:00:17Z</time>
      </trkpt>
      <trkpt lat="49.16375" lon="6.8953">
        <ele>324.3</ele>
        <time>2013-05-29T09:00:22Z</time>
      </trkpt>
      <trkpt lat="49.16372" lon="6.89524">
        <ele>324.3</ele>
        <time>2013-05-29T09:00:27Z</time>
      </trkpt>
      <trkpt lat="49.1637" lon="6.89517">
        <ele>324.8</ele>
        <time>2013-05-29T09:00:32Z</time>
      </trkpt>
      <trkpt lat="49.16368" lon="6.89511">
        <ele>324.8</ele>
        <time>2013-05-29T09:00:37Z</time>
      </trkpt>
      <trkpt lat="49.16365" lon="6.89505">
        <ele>325.5</ele>
        <time>2013-05-29T09:00:42Z</time>
      </trkpt>
      <trkpt lat="49.16361" lon="6.89497">
        <ele>325.6</ele>
        <time>2013-05-29T09:00:47Z</time>
      </trkpt>
      <trkpt lat="49.16357" lon="6.89489">
        <ele>325.4</ele>
        <time>2013-05-29T09:00:52Z</time>
      </trkpt>
      <trkpt lat="49.16353" lon="6.89481">
        <ele>325.8</ele>
        <time>2013-05-29T09:00:57Z</time>
      </trkpt>
      <trkpt lat="49.16351" lon="6.89477">
        <ele>326</ele>
        <time>2013-05-29T09:01:02Z</time>
      </trkpt>
      <trkpt lat="49.16351" lon="6.89477">
        <ele>326.1</ele>
        <time>2013-05-29T09:01:03Z</time>
      </trkpt>
      <trkpt lat="49.16344" lon="6.89465">
        <ele>326.2</ele>
        <time>2013-05-29T09:01:12Z</time>
      </trkpt>
      <trkpt lat="49.16341" lon="6.89459">
        <ele>325.7</ele>
        <time>2013-05-29T09:01:17Z</time>
      </trkpt>
      <trkpt lat="49.16337" lon="6.89453">
        <ele>326.2</ele>
        <time>2013-05-29T09:01:22Z</time>
      </trkpt>
      <trkpt lat="49.16333" lon="6.89447">
        <ele>326.5</ele>
        <time>2013-05-29T09:01:27Z</time>
      </trkpt>
      <trkpt lat="49.16329" lon="6.89441">
        <ele>326.8</ele>
        <time>2013-05-29T09:01:32Z</time>
      </trkpt>
      <trkpt lat="49.16325" lon="6.89435">
        <ele>326.7</ele>
        <time>2013-05-29T09:01:37Z</time>
      </trkpt>
      <trkpt lat="49.16321" lon="6.89429">
        <ele>326.7</ele>
        <time>2013-05-29T09:01:42Z</time>
      </trkpt>
      <trkpt lat="49.16317" lon="6.89422">
        <ele>326.7</ele>
        <time>2013-05-29T09:01:47Z</time>
      </trkpt>
      <trkpt lat="49.16313" lon="6.89415">
        <ele>326.6</ele>
        <time>2013-05-29T09:01:52Z</time>
      </trkpt>
      <trkpt lat="49.16309" lon="6.89409">
        <ele>326.6</ele>
        <time>2013-05-29T09:01:57Z</time>
      </trkpt>
      <trkpt lat="49.16306" lon="6.89402">
        <ele>326.4</ele>
        <time>2013-05-29T09:02:02Z</time>
      </trkpt>
      <trkpt lat="49.16302" lon="6.89395">
        <ele>326</ele>
        <time>2013-05-29T09:02:07Z</time>
      </trkpt>
      <trkpt lat="49.16301" lon="6.89393">
        <ele>326</ele>
        <time>2013-05-29T09:02:08Z</time>
      </trkpt>
      <trkpt lat="49.16295" lon="6.89381">
        <ele>326.1</ele>
        <time>2013-05-29T09:02:17Z</time>
      </trkpt>
      <trkpt lat="49.16291" lon="6.89374">
        <ele>326</ele>
        <time>2013-05-29T09:02:22Z</time>
      </trkpt>
      <trkpt lat="49.16287" lon="6.89366">
        <ele>325.7</ele>
        <time>2013-05-29T09:02:27Z</time>
      </trkpt>
      <trkpt lat="49.16284" lon="6.89359">
        <ele>325.5</ele>
        <time>2013-05-29T09:02:32Z</time>
      </trkpt>
      <trkpt lat="49.1628" lon="6.89352">
        <ele>324.6</ele>
        <time>2013-05-29T09:02:37Z</time>
      </trkpt>
      <trkpt lat="49.16277" lon="6.89344">
        <ele>324.5</ele>
        <time>2013-05-29T09:02:42Z</time>
      </trkpt>
      <trkpt lat="49.16273" lon="6.89338">
        <ele>324.7</ele>
        <time>2013-05-29T09:02:47Z</time>
      </trkpt>
      <trkpt lat="49.16269" lon="6.8933">
        <ele>325.3</ele>
        <time>2013-05-29T09:02:52Z</time>
      </trkpt>
      <trkpt lat="49.16265" lon="6.89323">
        <ele>325</ele>
        <time>2013-05-29T09:02:57Z</time>
      </trkpt>
      <trkpt lat="49.16262" lon="6.89315">
        <ele>325.1</ele>
        <time>2013-05-29T09:03:02Z</time>
      </trkpt>
      <trkpt lat="49.16258" lon="6.89308">
        <ele>324.6</ele>
        <time>2013-05-29T09:03:07Z</time>
      </trkpt>
      <trkpt lat="49.16254" lon="6.893">
        <ele>324.7</ele>
        <time>2013-05-29T09:03:12Z</time>
      </trkpt>
      <trkpt lat="49.16254" lon="6.89299">
        <ele>324.6</ele>
        <time>2013-05-29T09:03:13Z</time>
      </trkpt>
      <trkpt lat="49.16247" lon="6.89286">
        <ele>324.2</ele>
        <time>2013-05-29T09:03:22Z</time>
      </trkpt>
      <trkpt lat="49.16243" lon="6.89279">
        <ele>323.6</ele>
        <time>2013-05-29T09:03:27Z</time>
      </trkpt>
      <trkpt lat="49.16239" lon="6.89272">
        <ele>323.2</ele>
        <time>2013-05-29T09:03:32Z</time>
      </trkpt>
      <trkpt lat="49.16235" lon="6.89265">
        <ele>323.4</ele>
        <time>2013-05-29T09:03:37Z</time>
      </trkpt>
      <trkpt lat="49.16232" lon="6.89257">
        <ele>322.8</ele>
        <time>2013-05-29T09:03:42Z</time>
      </trkpt>
      <trkpt lat="49.16228" lon="6.8925">
        <ele>322.9</ele>
        <time>2013-05-29T09:03:47Z</time>
      </trkpt>
      <trkpt lat="49.16224" lon="6.89242">
        <ele>322.3</ele>
        <time>2013-05-29T09:03:52Z</time>
      </trkpt>
      <trkpt lat="49.1622" lon="6.89234">
        <ele>322</ele>
        <time>2013-05-29T09:03:57Z</time>
      </trkpt>
      <trkpt lat="49.16217" lon="6.89227">
        <ele>322.1</ele>
        <time>2013-05-29T09:04:02Z</time>
      </trkpt>
      <trkpt lat="49.16213" lon="6.8922">
        <ele>322.5</ele>
        <time>2013-05-29T09:04:07Z</time>
      </trkpt>
      <trkpt lat="49.16209" lon="6.89213">
        <ele>321.5</ele>
        <time>2013-05-29T09:04:12Z</time>
      </trkpt>
      <trkpt lat="49.16206" lon="6.89209">
        <ele>321.1</ele>
        <time>2013-05-29T09:04:17Z</time>
      </trkpt>
      <trkpt lat="49.16205" lon="6.89208">
        <ele>321.2</ele>
        <time>2013-05-29T09:04:18Z</time>
      </trkpt>
      <trkpt lat="49.16198" lon="6.89196">
        <ele>320.4</ele>
        <time>2013-05-29T09:04:27Z</time>
      </trkpt>
      <trkpt lat="49.16194" lon="6.89189">
        <ele>320.1</ele>
        <time>2013-05-29T09:04:32Z</time>
      </trkpt>
      <trkpt lat="49.1619" lon="6.89182">
        <ele>320.1</ele>
        <time>2013-05-29T09:04:37Z</time>
      </trkpt>
      <trkpt lat="49.16187" lon="6.89175">
        <ele>320.4</ele>
        <time>2013-05-29T09:04:42Z</time>
      </trkpt>
      <trkpt lat="49.16183" lon="6.89168">
        <ele>319.5</ele>
        <time>2013-05-29T09:04:47Z</time>
      </trkpt>
      <trkpt lat="49.16179" lon="6.89161">
        <ele>318.9</ele>
        <time>2013-05-29T09:04:52Z</time>
      </trkpt>
      <trkpt lat="49.16175" lon="6.89155">
        <ele>319.1</ele>
        <time>2013-05-29T09:04:57Z</time>
      </trkpt>
      <trkpt lat="49.16171" lon="6.89148">
        <ele>319.6</ele>
        <time>2013-05-29T09:05:02Z</time>
      </trkpt>
      <trkpt lat="49.16167" lon="6.89141">
        <ele>318.4</ele>
        <time>2013-05-29T09:05:07Z</time>
      </trkpt>
      <trkpt lat="49.16163" lon="6.89134">
        <ele>318.1</ele>
        <time>2013-05-29T09:05:12Z</time>
      </trkpt>
      <trkpt lat="49.16159" lon="6.89127">
        <ele>318.1</ele>
        <time>2013-05-29T09:05:17Z</time>
      </trkpt>
      <trkpt lat="49.16155" lon="6.8912">
        <ele>317.7</ele>
        <time>2013-05-29T09:05:22Z</time>
      </trkpt>
      <trkpt lat="49.16154" lon="6.89119">
        <ele>317.6</ele>
        <time>2013-05-29T09:05:23Z</time>
      </trkpt>
      <trkpt lat="49.16147" lon="6.89106">
        <ele>317.2</ele>
        <time>2013-05-29T09:05:32Z</time>
      </trkpt>
      <trkpt lat="49.16143" lon="6.89099">
        <ele>317.4</ele>
        <time>2013-05-29T09:05:37Z</time>
      </trkpt>
      <trkpt lat="49.16139" lon="6.89091">
        <ele>316.1</ele>
        <time>2013-05-29T09:05:42Z</time>
      </trkpt>
      <trkpt lat="49.16136" lon="6.89084">
        <ele>315.2</ele>
        <time>2013-05-29T09:05:47Z</time>
      </trkpt>
      <trkpt lat="49.16132" lon="6.89077">
        <ele>315.8</ele>
        <time>2013-05-29T09:05:52Z</time>
      </trkpt>
      <trkpt lat="49.16128" lon="6.8907">
        <ele>315.9</ele>
        <time>2013-05-29T09:05:57Z</time>
      </trkpt>
      <trkpt lat="49.16127" lon="6.89068">
        <ele>314.8</ele>
        <time>2013-05-29T09:06:02Z</time>
      </trkpt>
      <trkpt lat="49.16125" lon="6.89065">
        <ele>314.9</ele>
        <time>2013-05-29T09:06:07Z</time>
      </trkpt>
      <trkpt lat="49.16122" lon="6.89061">
        <ele>314.6</ele>
        <time>2013-05-29T09:06:12Z</time>
      </trkpt>
      <trkpt lat="49.1612" lon="6.89057">
        <ele>314.7</ele>
        <time>2013-05-29T09:06:17Z</time>
      </trkpt>
      <trkpt lat="49.16118" lon="6.89054">
        <ele>315</ele>
        <time>2013-05-29T09:06:22Z</time>
      </trkpt>
      <trkpt lat="49.16115" lon="6.8905">
        <ele>315.1</ele>
        <time>2013-05-29T09:06:27Z</time>
      </trkpt>
      <trkpt lat="49.16114" lon="6.89049">
        <ele>315</ele>
        <time>2013-05-29T09:06:28Z</time>
      </trkpt>
      <trkpt lat="49.16108" lon="6.89041">
        <ele>313.9</ele>
        <time>2013-05-29T09:06:37Z</time>
      </trkpt>
      <trkpt lat="49.16105" lon="6.89036">
        <ele>313.5</ele>
        <time>2013-05-29T09:06:42Z</time>
      </trkpt>
      <trkpt lat="49.161" lon="6.8903">
        <ele>313.5</ele>
        <time>2013-05-29T09:06:47Z</time>
      </trkpt>
      <trkpt lat="49.16096" lon="6.89023">
        <ele>313</ele>
        <time>2013-05-29T09:06:52Z</time>
      </trkpt>
      <trkpt lat="49.16092" lon="6.89017">
        <ele>312.5</ele>
        <time>2013-05-29T09:06:57Z</time>
      </trkpt>
      <trkpt lat="49.16088" lon="6.89011">
        <ele>312.9</ele>
        <time>2013-05-29T09:07:02Z</time>
      </trkpt>
      <trkpt lat="49.16084" lon="6.89005">
        <ele>312.1</ele>
        <time>2013-05-29T09:07:07Z</time>
      </trkpt>
      <trkpt lat="49.16079" lon="6.88998">
        <ele>312</ele>
        <time>2013-05-29T09:07:12Z</time>
      </trkpt>
      <trkpt lat="49.16075" lon="6.88992">
        <ele>311.6</ele>
        <time>2013-05-29T09:07:17Z</time>
      </trkpt>
      <trkpt lat="49.16071" lon="6.88986">
        <ele>310.8</ele>
        <time>2013-05-29T09:07:22Z</time>
      </trkpt>
      <trkpt lat="49.16066" lon="6.8898">
        <ele>310.8</ele>
        <time>2013-05-29T09:07:27Z</time>
      </trkpt>
      <trkpt lat="49.16061" lon="6.88973">
        <ele>310.7</ele>
        <time>2013-05-29T09:07:32Z</time>
      </trkpt>
      <trkpt lat="49.1606" lon="6.88972">
        <ele>310.6</ele>
        <time>2013-05-29T09:07:33Z</time>
      </trkpt>
      <trkpt lat="49.16052" lon="6.88961">
        <ele>309.2</ele>
        <time>2013-05-29T09:07:42Z</time>
      </trkpt>
      <trkpt lat="49.16048" lon="6.88954">
        <ele>309.1</ele>
        <time>2013-05-29T09:07:47Z</time>
      </trkpt>
      <trkpt lat="49.16043" lon="6.88948">
        <ele>308.4</ele>
        <time>2013-05-29T09:07:52Z</time>
      </trkpt>
      <trkpt lat="49.16039" lon="6.88942">
        <ele>307.4</ele>
        <time>2013-05-29T09:07:57Z</time>
      </trkpt>
      <trkpt lat="49.16035" lon="6.88936">
        <ele>307.1</ele>
        <time>2013-05-29T09:08:02Z</time>
      </trkpt>
      <trkpt lat="49.1603" lon="6.8893">
        <ele>307.3</ele>
        <time>2013-05-29T09:08:07Z</time>
      </trkpt>
      <trkpt lat="49.16025" lon="6.88924">
        <ele>306.9</ele>
        <time>2013-05-29T09:08:12Z</time>
      </trkpt>
      <trkpt lat="49.16021" lon="6.88918">
        <ele>306.4</ele>
        <time>2013-05-29T09:08:17Z</time>
      </trkpt>
      <trkpt lat="49.16016" lon="6.88911">
        <ele>305.3</ele>
        <time>2013-05-29T09:08:22Z</time>
      </trkpt>
      <trkpt lat="49.16011" lon="6.88907">
        <ele>305.1</ele>
        <time>2013-05-29T09:08:27Z</time>
      </trkpt>
      <trkpt lat="49.16006" lon="6.88902">
        <ele>304.5</ele>
        <time>2013-05-29T09:08:32Z</time>
      </trkpt>
      <trkpt lat="49.16001" lon="6.88897">
        <ele>303.9</ele>
        <time>2013-05-29T09:08:37Z</time>
      </trkpt>
      <trkpt lat="49.16001" lon="6.88896">
        <ele>304.2</ele>
        <time>2013-05-29T09:08:38Z</time>
      </trkpt>
      <trkpt lat="49.15991" lon="6.88888">
        <ele>304</ele>
        <time>2013-05-29T09:08:47Z</time>
      </trkpt>
      <trkpt lat="49.15986" lon="6.88882">
        <ele>303</ele>
        <time>2013-05-29T09:08:52Z</time>
      </trkpt>
      <trkpt lat="49.1598" lon="6.88878">
        <ele>302.6</ele>
        <time>2013-05-29T09:08:57Z</time>
      </trkpt>
      <trkpt lat="49.15975" lon="6.88873">
        <ele>302.3</ele>
        <time>2013-05-29T09:09:02Z</time>
      </trkpt>
      <trkpt lat="49.1597" lon="6.88868">
        <ele>301.1</ele>
        <time>2013-05-29T09:09:07Z</time>
      </trkpt>
      <trkpt lat="49.15965" lon="6.88864">
        <ele>300.7</ele>
        <time>2013-05-29T09:09:12Z</time>
      </trkpt>
      <trkpt lat="49.15959" lon="6.88859">
        <ele>300.5</ele>
        <time>2013-05-29T09:09:17Z</time>
      </trkpt>
      <trkpt lat="49.15954" lon="6.88854">
        <ele>299.7</ele>
        <time>2013-05-29T09:09:22Z</time>
      </trkpt>
      <trkpt lat="49.15949" lon="6.8885">
        <ele>298.9</ele>
        <time>2013-05-29T09:09:27Z</time>
      </trkpt>
      <trkpt lat="49.15944" lon="6.88846">
        <ele>298.1</ele>
        <time>2013-05-29T09:09:32Z</time>
      </trkpt>
      <trkpt lat="49.15939" lon="6.88842">
        <ele>297.9</ele>
        <time>2013-05-29T09:09:37Z</time>
      </trkpt>
      <trkpt lat="49.15934" lon="6.88837">
        <ele>297.5</ele>
        <time>2013-05-29T09:09:42Z</time>
      </trkpt>
      <trkpt lat="49.15932" lon="6.88837">
        <ele>297.5</ele>
        <time>2013-05-29T09:09:43Z</time>
      </trkpt>
      <trkpt lat="49.15923" lon="6.88829">
        <ele>296.6</ele>
        <time>2013-05-29T09:09:52Z</time>
      </trkpt>
      <trkpt lat="49.15918" lon="6.88825">
        <ele>295.9</ele>
        <time>2013-05-29T09:09:57Z</time>
      </trkpt>
      <trkpt lat="49.15913" lon="6.88821">
        <ele>295.4</ele>
        <time>2013-05-29T09:10:02Z</time>
      </trkpt>
      <trkpt lat="49.15908" lon="6.88817">
        <ele>294.2</ele>
        <time>2013-05-29T09:10:07Z</time>
      </trkpt>
      <trkpt lat="49.15903" lon="6.88813">
        <ele>294</ele>
        <time>2013-05-29T09:10:12Z</time>
      </trkpt>
      <trkpt lat="49.15898" lon="6.88808">
        <ele>292.7</ele>
        <time>2013-05-29T09:10:17Z</time>
      </trkpt>
      <trkpt lat="49.15893" lon="6.88803">
        <ele>292.1</ele>
        <time>2013-05-29T09:10:22Z</time>
      </trkpt>
      <trkpt lat="49.15888" lon="6.88798">
        <ele>293.1</ele>
        <time>2013-05-29T09:10:27Z</time>
      </trkpt>
      <trkpt lat="49.15883" lon="6.88793">
        <ele>292.4</ele>
        <time>2013-05-29T09:10:32Z</time>
      </trkpt>
      <trkpt lat="49.15877" lon="6.88789">
        <ele>292.2</ele>
        <time>2013-05-29T09:10:37Z</time>
      </trkpt>
      <trkpt lat="49.15872" lon="6.88783">
        <ele>290.8</ele>
        <time>2013-05-29T09:10:42Z</time>
      </trkpt>
      <trkpt lat="49.15867" lon="6.88778">
        <ele>290.3</ele>
        <time>2013-05-29T09:10:47Z</time>
      </trkpt>
      <trkpt lat="49.15865" lon="6.88777">
        <ele>290.1</ele>
        <time>2013-05-29T09:10:48Z</time>
      </trkpt>
      <trkpt lat="49.15856" lon="6.88769">
        <ele>289.6</ele>
        <time>2013-05-29T09:10:57Z</time>
      </trkpt>
      <trkpt lat="49.15851" lon="6.88766">
        <ele>289</ele>
        <time>2013-05-29T09:11:02Z</time>
      </trkpt>
      <trkpt lat="49.15847" lon="6.88762">
        <ele>287.9</ele>
        <time>2013-05-29T09:11:07Z</time>
      </trkpt>
      <trkpt lat="49.15842" lon="6.8876">
        <ele>288.1</ele>
        <time>2013-05-29T09:11:12Z</time>
      </trkpt>
      <trkpt lat="49.15836" lon="6.88757">
        <ele>286.6</ele>
        <time>2013-05-29T09:11:17Z</time>
      </trkpt>
      <trkpt lat="49.15831" lon="6.88754">
        <ele>286.3</ele>
        <time>2013-05-29T09:11:22Z</time>
      </trkpt>
      <trkpt lat="49.15826" lon="6.8875">
        <ele>285.5</ele>
        <time>2013-05-29T09:11:27Z</time>
      </trkpt>
      <trkpt lat="49.15821" lon="6.88748">
        <ele>284.4</ele>
        <time>2013-05-29T09:11:32Z</time>
      </trkpt>
      <trkpt lat="49.15815" lon="6.88746">
        <ele>284</ele>
        <time>2013-05-29T09:11:37Z</time>
      </trkpt>
      <trkpt lat="49.1581" lon="6.88745">
        <ele>283.1</ele>
        <time>2013-05-29T09:11:42Z</time>
      </trkpt>
      <trkpt lat="49.15805" lon="6.88744">
        <ele>282.2</ele>
        <time>2013-05-29T09:11:47Z</time>
      </trkpt>
      <trkpt lat="49.15799" lon="6.88743">
        <ele>281.8</ele>
        <time>2013-05-29T09:11:52Z</time>
      </trkpt>
      <trkpt lat="49.15798" lon="6.88743">
        <ele>281.7</ele>
        <time>2013-05-29T09:11:53Z</time>
      </trkpt>
      <trkpt lat="49.15791" lon="6.88744">
        <ele>280.7</ele>
        <time>2013-05-29T09:12:02Z</time>
      </trkpt>
      <trkpt lat="49.1579" lon="6.88744">
        <ele>280.5</ele>
        <time>2013-05-29T09:12:07Z</time>
      </trkpt>
      <trkpt lat="49.15787" lon="6.88743">
        <ele>280.6</ele>
        <time>2013-05-29T09:12:12Z</time>
      </trkpt>
      <trkpt lat="49.15782" lon="6.88743">
        <ele>280.1</ele>
        <time>2013-05-29T09:12:17Z</time>
      </trkpt>
      <trkpt lat="49.15777" lon="6.88743">
        <ele>279.9</ele>
        <time>2013-05-29T09:12:22Z</time>
      </trkpt>
      <trkpt lat="49.15771" lon="6.88742">
        <ele>279.2</ele>
        <time>2013-05-29T09:12:27Z</time>
      </trkpt>
      <trkpt lat="49.15767" lon="6.88736">
        <ele>279</ele>
        <time>2013-05-29T09:12:32Z</time>
      </trkpt>
      <trkpt lat="49.15763" lon="6.8873">
        <ele>278.8</ele>
        <time>2013-05-29T09:12:37Z</time>
      </trkpt>
      <trkpt lat="49.15759" lon="6.88724">
        <ele>277.6</ele>
        <time>2013-05-29T09:12:42Z</time>
      </trkpt>
      <trkpt lat="49.15755" lon="6.88717">
        <ele>277.9</ele>
        <time>2013-05-29T09:12:47Z</time>
      </trkpt>
      <trkpt lat="49.1575" lon="6.88711">
        <ele>276.3</ele>
        <time>2013-05-29T09:12:52Z</time>
      </trkpt>
      <trkpt lat="49.15746" lon="6.88704">
        <ele>275.4</ele>
        <time>2013-05-29T09:12:57Z</time>
      </trkpt>
      <trkpt lat="49.15745" lon="6.88703">
        <ele>275.5</ele>
        <time>2013-05-29T09:12:58Z</time>
      </trkpt>
      <trkpt lat="49.15739" lon="6.88691">
        <ele>273</ele>
        <time>2013-05-29T09:13:07Z</time>
      </trkpt>
      <trkpt lat="49.15735" lon="6.88685">
        <ele>272.2</ele>
        <time>2013-05-29T09:13:12Z</time>
      </trkpt>
      <trkpt lat="49.1573" lon="6.88679">
        <ele>271.3</ele>
        <time>2013-05-29T09:13:17Z</time>
      </trkpt>
      <trkpt lat="49.15726" lon="6.88673">
        <ele>271</ele>
        <time>2013-05-29T09:13:22Z</time>
      </trkpt>
      <trkpt lat="49.15722" lon="6.88668">
        <ele>270.6</ele>
        <time>2013-05-29T09:13:27Z</time>
      </trkpt>
      <trkpt lat="49.15718" lon="6.88661">
        <ele>269.6</ele>
        <time>2013-05-29T09:13:32Z</time>
      </trkpt>
      <trkpt lat="49.15713" lon="6.88655">
        <ele>267.9</ele>
        <time>2013-05-29T09:13:37Z</time>
      </trkpt>
      <trkpt lat="49.15709" lon="6.88649">
        <ele>267.5</ele>
        <time>2013-05-29T09:13:42Z</time>
      </trkpt>
      <trkpt lat="49.15705" lon="6.88643">
        <ele>266.7</ele>
        <time>2013-05-29T09:13:47Z</time>
      </trkpt>
      <trkpt lat="49.15702" lon="6.88635">
        <ele>265.2</ele>
        <time>2013-05-29T09:13:52Z</time>
      </trkpt>
      <trkpt lat="49.157" lon="6.88628">
        <ele>264.7</ele>
        <time>2013-05-29T09:13:57Z</time>
      </trkpt>
      <trkpt lat="49.15699" lon="6.88619">
        <ele>264</ele>
        <time>2013-05-29T09:14:02Z</time>
      </trkpt>
      <trkpt lat="49.15699" lon="6.88617">
        <ele>263.8</ele>
        <time>2013-05-29T09:14:03Z</time>
      </trkpt>
      <trkpt lat="49.15701" lon="6.88601">
        <ele>261.8</ele>
        <time>2013-05-29T09:14:12Z</time>
      </trkpt>
      <trkpt lat="49.15703" lon="6.88591">
        <ele>262.5</ele>
        <time>2013-05-29T09:14:17Z</time>
      </trkpt>
      <trkpt lat="49.15705" lon="6.88582">
        <ele>261.4</ele>
        <time>2013-05-29T09:14:22Z</time>
      </trkpt>
      <trkpt lat="49.15706" lon="6.88573">
        <ele>260.6</ele>
        <time>2013-05-29T09:14:27Z</time>
      </trkpt>
      <trkpt lat="49.15709" lon="6.88564">
        <ele>259.9</ele>
        <time>2013-05-29T09:14:32Z</time>
      </trkpt>
      <trkpt lat="49.15711" lon="6.88555">
        <ele>259.6</ele>
        <time>2013-05-29T09:14:37Z</time>
      </trkpt>
      <trkpt lat="49.15714" lon="6.88547">
        <ele>259.5</ele>
        <time>2013-05-29T09:14:42Z</time>
      </trkpt>
      <trkpt lat="49.15717" lon="6.88539">
        <ele>259.2</ele>
        <time>2013-05-29T09:14:47Z</time>
      </trkpt>
      <trkpt lat="49.15719" lon="6.88531">
        <ele>259.3</ele>
        <time>2013-05-29T09:14:52Z</time>
      </trkpt>
      <trkpt lat="49.15721" lon="6.88522">
        <ele>258.1</ele>
        <time>2013-05-29T09:14:57Z</time>
      </trkpt>
      <trkpt lat="49.15724" lon="6.88515">
        <ele>257</ele>
        <time>2013-05-29T09:15:02Z</time>
      </trkpt>
      <trkpt lat="49.15727" lon="6.88506">
        <ele>256.9</ele>
        <time>2013-05-29T09:15:07Z</time>
      </trkpt>
      <trkpt lat="49.15727" lon="6.88504">
        <ele>256.9</ele>
        <time>2013-05-29T09:15:08Z</time>
      </trkpt>
      <trkpt lat="49.15732" lon="6.88488">
        <ele>256.6</ele>
        <time>2013-05-29T09:15:17Z</time>
      </trkpt>
      <trkpt lat="49.15734" lon="6.88479">
        <ele>256.2</ele>
        <time>2013-05-29T09:15:22Z</time>
      </trkpt>
      <trkpt lat="49.15737" lon="6.88471">
        <ele>256.2</ele>
        <time>2013-05-29T09:15:27Z</time>
      </trkpt>
      <trkpt lat="49.15739" lon="6.88462">
        <ele>256.5</ele>
        <time>2013-05-29T09:15:32Z</time>
      </trkpt>
      <trkpt lat="49.15742" lon="6.88453">
        <ele>255.8</ele>
        <time>2013-05-29T09:15:37Z</time>
      </trkpt>
      <trkpt lat="49.15744" lon="6.88443">
        <ele>255.2</ele>
        <time>2013-05-29T09:15:42Z</time>
      </trkpt>
      <trkpt lat="49.15746" lon="6.88433">
        <ele>255.1</ele>
        <time>2013-05-29T09:15:47Z</time>
      </trkpt>
      <trkpt lat="49.15748" lon="6.88424">
        <ele>254.9</ele>
        <time>2013-05-29T09:15:52Z</time>
      </trkpt>
      <trkpt lat="49.1575" lon="6.88416">
        <ele>254.9</ele>
        <time>2013-05-29T09:15:57Z</time>
      </trkpt>
      <trkpt lat="49.15751" lon="6.88406">
        <ele>254.6</ele>
        <time>2013-05-29T09:16:02Z</time>
      </trkpt>
      <trkpt lat="49.15751" lon="6.88397">
        <ele>255</ele>
        <time>2013-05-29T09:16:07Z</time>
      </trkpt>
      <trkpt lat="49.15753" lon="6.88389">
        <ele>254</ele>
        <time>2013-05-29T09:16:12Z</time>
      </trkpt>
      <trkpt lat="49.15753" lon="6.88387">
        <ele>254.1</ele>
        <time>2013-05-29T09:16:13Z</time>
      </trkpt>
      <trkpt lat="49.15753" lon="6.8837">
        <ele>253.2</ele>
        <time>2013-05-29T09:16:22Z</time>
      </trkpt>
      <trkpt lat="49.15752" lon="6.88359">
        <ele>252.8</ele>
        <time>2013-05-29T09:16:27Z</time>
      </trkpt>
      <trkpt lat="49.15752" lon="6.88349">
        <ele>252.1</ele>
        <time>2013-05-29T09:16:32Z</time>
      </trkpt>
      <trkpt lat="49.15752" lon="6.8834">
        <ele>252.7</ele>
        <time>2013-05-29T09:16:37Z</time>
      </trkpt>
      <trkpt lat="49.15753" lon="6.88332">
        <ele>253.3</ele>
        <time>2013-05-29T09:16:42Z</time>
      </trkpt>
      <trkpt lat="49.15754" lon="6.88323">
        <ele>252.8</ele>
        <time>2013-05-29T09:16:47Z</time>
      </trkpt>
      <trkpt lat="49.15754" lon="6.88314">
        <ele>252.6</ele>
        <time>2013-05-29T09:16:52Z</time>
      </trkpt>
      <trkpt lat="49.15754" lon="6.88304">
        <ele>253.4</ele>
        <time>2013-05-29T09:16:57Z</time>
      </trkpt>
      <trkpt lat="49.15754" lon="6.88295">
        <ele>252.2</ele>
        <time>2013-05-29T09:17:02Z</time>
      </trkpt>
      <trkpt lat="49.15753" lon="6.88287">
        <ele>252.4</ele>
        <time>2013-05-29T09:17:07Z</time>
      </trkpt>
      <trkpt lat="49.15753" lon="6.88281">
        <ele>252.7</ele>
        <time>2013-05-29T09:17:12Z</time>
      </trkpt>
      <trkpt lat="49.15752" lon="6.88273">
        <ele>252.4</ele>
        <time>2013-05-29T09:17:17Z</time>
      </trkpt>
      <trkpt lat="49.15752" lon="6.88271">
        <ele>252.2</ele>
        <time>2013-05-29T09:17:18Z</time>
      </trkpt>
      <trkpt lat="49.15752" lon="6.88251">
        <ele>251.9</ele>
        <time>2013-05-29T09:17:27Z</time>
      </trkpt>
      <trkpt lat="49.15751" lon="6.88241">
        <ele>251.2</ele>
        <time>2013-05-29T09:17:32Z</time>
      </trkpt>
      <trkpt lat="49.15749" lon="6.8823">
        <ele>250.8</ele>
        <time>2013-05-29T09:17:37Z</time>
      </trkpt>
      <trkpt lat="49.15747" lon="6.88219">
        <ele>249.6</ele>
        <time>2013-05-29T09:17:42Z</time>
      </trkpt>
      <trkpt lat="49.15745" lon="6.88208">
        <ele>249.6</ele>
        <time>2013-05-29T09:17:47Z</time>
      </trkpt>
      <trkpt lat="49.15743" lon="6.882">
        <ele>248.4</ele>
        <time>2013-05-29T09:17:52Z</time>
      </trkpt>
      <trkpt lat="49.15741" lon="6.88193">
        <ele>248.5</ele>
        <time>2013-05-29T09:17:57Z</time>
      </trkpt>
      <trkpt lat="49.1574" lon="6.88185">
        <ele>247.8</ele>
        <time>2013-05-29T09:18:02Z</time>
      </trkpt>
      <trkpt lat="49.1574" lon="6.88177">
        <ele>247.4</ele>
        <time>2013-05-29T09:18:07Z</time>
      </trkpt>
      <trkpt lat="49.15739" lon="6.88169">
        <ele>247.9</ele>
        <time>2013-05-29T09:18:12Z</time>
      </trkpt>
      <trkpt lat="49.15738" lon="6.88162">
        <ele>247.2</ele>
        <time>2013-05-29T09:18:17Z</time>
      </trkpt>
      <trkpt lat="49.15738" lon="6.88153">
        <ele>246.8</ele>
        <time>2013-05-29T09:18:22Z</time>
      </trkpt>
      <trkpt lat="49.15738" lon="6.88151">
        <ele>246.8</ele>
        <time>2013-05-29T09:18:23Z</time>
      </trkpt>
      <trkpt lat="49.15738" lon="6.88135">
        <ele>245.2</ele>
        <time>2013-05-29T09:18:32Z</time>
      </trkpt>
      <trkpt lat="49.15738" lon="6.88124">
        <ele>245.8</ele>
        <time>2013-05-29T09:18:37Z</time>
      </trkpt>
      <trkpt lat="49.15737" lon="6.88112">
        <ele>245.5</ele>
        <time>2013-05-29T09:18:42Z</time>
      </trkpt>
      <trkpt lat="49.15736" lon="6.88099">
        <ele>245.1</ele>
        <time>2013-05-29T09:18:47Z</time>
      </trkpt>
      <trkpt lat="49.15733" lon="6.88088">
        <ele>245</ele>
        <time>2013-05-29T09:18:52Z</time>
      </trkpt>
      <trkpt lat="49.15732" lon="6.88076">
        <ele>243.6</ele>
        <time>2013-05-29T09:18:57Z</time>
      </trkpt>
      <trkpt lat="49.15732" lon="6.88066">
        <ele>243.3</ele>
        <time>2013-05-29T09:19:02Z</time>
      </trkpt>
      <trkpt lat="49.15732" lon="6.88056">
        <ele>243.5</ele>
        <time>2013-05-29T09:19:07Z</time>
      </trkpt>
      <trkpt lat="49.15733" lon="6.88046">
        <ele>243.7</ele>
        <time>2013-05-29T09:19:12Z</time>
      </trkpt>
      <trkpt lat="49.15735" lon="6.88036">
        <ele>243.5</ele>
        <time>2013-05-29T09:19:17Z</time>
      </trkpt>
      <trkpt lat="49.15736" lon="6.88026">
        <ele>242.5</ele>
        <time>2013-05-29T09:19:22Z</time>
      </trkpt>
      <trkpt lat="49.15736" lon="6.88017">
        <ele>242.8</ele>
        <time>2013-05-29T09:19:27Z</time>
      </trkpt>
      <trkpt lat="49.15736" lon="6.88014">
        <ele>242.8</ele>
        <time>2013-05-29T09:19:28Z</time>
      </trkpt>
      <trkpt lat="49.15736" lon="6.88">
        <ele>241.9</ele>
        <time>2013-05-29T09:19:37Z</time>
      </trkpt>
      <trkpt lat="49.15736" lon="6.87992">
        <ele>242.1</ele>
        <time>2013-05-29T09:19:42Z</time>
      </trkpt>
      <trkpt lat="49.15736" lon="6.87983">
        <ele>241.5</ele>
        <time>2013-05-29T09:19:47Z</time>
      </trkpt>
      <trkpt lat="49.15737" lon="6.87974">
        <ele>242.7</ele>
        <time>2013-05-29T09:19:52Z</time>
      </trkpt>
      <trkpt lat="49.15738" lon="6.87967">
        <ele>242.6</ele>
        <time>2013-05-29T09:19:57Z</time>
      </trkpt>
      <trkpt lat="49.15739" lon="6.87957">
        <ele>242.3</ele>
        <time>2013-05-29T09:20:02Z</time>
      </trkpt>
      <trkpt lat="49.15739" lon="6.8795">
        <ele>242.4</ele>
        <time>2013-05-29T09:20:07Z</time>
      </trkpt>
      <trkpt lat="49.15741" lon="6.87943">
        <ele>242.4</ele>
        <time>2013-05-29T09:20:12Z</time>
      </trkpt>
      <trkpt lat="49.15741" lon="6.87935">
        <ele>242.7</ele>
        <time>2013-05-29T09:20:17Z</time>
      </trkpt>
      <trkpt lat="49.15741" lon="6.87928">
        <ele>242.7</ele>
        <time>2013-05-29T09:20:22Z</time>
      </trkpt>
      <trkpt lat="49.15742" lon="6.87922">
        <ele>243.1</ele>
        <time>2013-05-29T09:20:27Z</time>
      </trkpt>
      <trkpt lat="49.15742" lon="6.87917">
        <ele>242.2</ele>
        <time>2013-05-29T09:20:32Z</time>
      </trkpt>
      <trkpt lat="49.15742" lon="6.87916">
        <ele>242.3</ele>
        <time>2013-05-29T09:20:33Z</time>
      </trkpt>
      <trkpt lat="49.15744" lon="6.87902">
        <ele>242.4</ele>
        <time>2013-05-29T09:20:42Z</time>
      </trkpt>
      <trkpt lat="49.15746" lon="6.87893">
        <ele>242.1</ele>
        <time>2013-05-29T09:20:47Z</time>
      </trkpt>
      <trkpt lat="49.15748" lon="6.87883">
        <ele>242.3</ele>
        <time>2013-05-29T09:20:52Z</time>
      </trkpt>
      <trkpt lat="49.15751" lon="6.87875">
        <ele>242.3</ele>
        <time>2013-05-29T09:20:57Z</time>
      </trkpt>
      <trkpt lat="49.15753" lon="6.87868">
        <ele>242.1</ele>
        <time>2013-05-29T09:21:02Z</time>
      </trkpt>
      <trkpt lat="49.15755" lon="6.87859">
        <ele>242.6</ele>
        <time>2013-05-29T09:21:07Z</time>
      </trkpt>
      <trkpt lat="49.15757" lon="6.87849">
        <ele>241.7</ele>
        <time>2013-05-29T09:21:12Z</time>
      </trkpt>
      <trkpt lat="49.15758" lon="6.87839">
        <ele>242.2</ele>
        <time>2013-05-29T09:21:17Z</time>
      </trkpt>
      <trkpt lat="49.15759" lon="6.87828">
        <ele>241.6</ele>
        <time>2013-05-29T09:21:22Z</time>
      </trkpt>
      <trkpt lat="49.15761" lon="6.87818">
        <ele>242</ele>
        <time>2013-05-29T09:21:27Z</time>
      </trkpt>
      <trkpt lat="49.15762" lon="6.87809">
        <ele>242</ele>
        <time>2013-05-29T09:21:32Z</time>
      </trkpt>
      <trkpt lat="49.15762" lon="6.87799">
        <ele>241.6</ele>
        <time>2013-05-29T09:21:37Z</time>
      </trkpt>
      <trkpt lat="49.15763" lon="6.87798">
        <ele>241.7</ele>
        <time>2013-05-29T09:21:38Z</time>
      </trkpt>
      <trkpt lat="49.15765" lon="6.87779">
        <ele>241.4</ele>
        <time>2013-05-29T09:21:47Z</time>
      </trkpt>
      <trkpt lat="49.15766" lon="6.87769">
        <ele>241.4</ele>
        <time>2013-05-29T09:21:52Z</time>
      </trkpt>
      <trkpt lat="49.15767" lon="6.87759">
        <ele>241.2</ele>
        <time>2013-05-29T09:21:57Z</time>
      </trkpt>
      <trkpt lat="49.15768" lon="6.8775">
        <ele>240.1</ele>
        <time>2013-05-29T09:22:02Z</time>
      </trkpt>
      <trkpt lat="49.15769" lon="6.8774">
        <ele>241</ele>
        <time>2013-05-29T09:22:07Z</time>
      </trkpt>
      <trkpt lat="49.15769" lon="6.87731">
        <ele>240.4</ele>
        <time>2013-05-29T09:22:12Z</time>
      </trkpt>
      <trkpt lat="49.1577" lon="6.87722">
        <ele>240.3</ele>
        <time>2013-05-29T09:22:17Z</time>
      </trkpt>
      <trkpt lat="49.15772" lon="6.87712">
        <ele>240.7</ele>
        <time>2013-05-29T09:22:22Z</time>
      </trkpt>
      <trkpt lat="49.15773" lon="6.87702">
        <ele>240.2</ele>
        <time>2013-05-29T09:22:27Z</time>
      </trkpt>
      <trkpt lat="49.15775" lon="6.87691">
        <ele>239.9</ele>
        <time>2013-05-29T09:22:32Z</time>
      </trkpt>
      <trkpt lat="49.15775" lon="6.87682">
        <ele>238.9</ele>
        <time>2013-05-29T09:22:37Z</time>
      </trkpt>
      <trkpt lat="49.15776" lon="6.87672">
        <ele>239.6</ele>
        <time>2013-05-29T09:22:42Z</time>
      </trkpt>
      <trkpt lat="49.15776" lon="6.8767">
        <ele>239.7</ele>
        <time>2013-05-29T09:22:43Z</time>
      </trkpt>
      <trkpt lat="49.15778" lon="6.87652">
        <ele>238.7</ele>
        <time>2013-05-29T09:22:52Z</time>
      </trkpt>
      <trkpt lat="49.15778" lon="6.87642">
        <ele>239.7</ele>
        <time>2013-05-29T09:22:57Z</time>
      </trkpt>
      <trkpt lat="49.1578" lon="6.87633">
        <ele>239.3</ele>
        <time>2013-05-29T09:23:02Z</time>
      </trkpt>
      <trkpt lat="49.15782" lon="6.87622">
        <ele>239.3</ele>
        <time>2013-05-29T09:23:07Z</time>
      </trkpt>
      <trkpt lat="49.15783" lon="6.87612">
        <ele>239.1</ele>
        <time>2013-05-29T09:23:12Z</time>
      </trkpt>
      <trkpt lat="49.15783" lon="6.87601">
        <ele>238.8</ele>
        <time>2013-05-29T09:23:17Z</time>
      </trkpt>
      <trkpt lat="49.15784" lon="6.87591">
        <ele>238.7</ele>
        <time>2013-05-29T09:23:22Z</time>
      </trkpt>
      <trkpt lat="49.15785" lon="6.8758">
        <ele>238.7</ele>
        <time>2013-05-29T09:23:27Z</time>
      </trkpt>
      <trkpt lat="49.15786" lon="6.87569">
        <ele>238.3</ele>
        <time>2013-05-29T09:23:32Z</time>
      </trkpt>
      <trkpt lat="49.15788" lon="6.87561">
        <ele>238.1</ele>
        <time>2013-05-29T09:23:37Z</time>
      </trkpt>
      <trkpt lat="49.1579" lon="6.87552">
        <ele>238.1</ele>
        <time>2013-05-29T09:23:42Z</time>
      </trkpt>
      <trkpt lat="49.15791" lon="6.87542">
        <ele>238.3</ele>
        <time>2013-05-29T09:23:47Z</time>
      </trkpt>
      <trkpt lat="49.15791" lon="6.8754">
        <ele>238.4</ele>
        <time>2013-05-29T09:23:48Z</time>
      </trkpt>
      <trkpt lat="49.15792" lon="6.87526">
        <ele>238.1</ele>
        <time>2013-05-29T09:23:57Z</time>
      </trkpt>
      <trkpt lat="49.15789" lon="6.87519">
        <ele>237.8</ele>
        <time>2013-05-29T09:24:02Z</time>
      </trkpt>
      <trkpt lat="49.15785" lon="6.87517">
        <ele>237.9</ele>
        <time>2013-05-29T09:24:07Z</time>
      </trkpt>
      <trkpt lat="49.1578" lon="6.87517">
        <ele>238.9</ele>
        <time>2013-05-29T09:24:12Z</time>
      </trkpt>
      <trkpt lat="49.15775" lon="6.87516">
        <ele>238.3</ele>
        <time>2013-05-29T09:24:17Z</time>
      </trkpt>
      <trkpt lat="49.1577" lon="6.87514">
        <ele>238.5</ele>
        <time>2013-05-29T09:24:22Z</time>
      </trkpt>
      <trkpt lat="49.15765" lon="6.87511">
        <ele>239.4</ele>
        <time>2013-05-29T09:24:27Z</time>
      </trkpt>
      <trkpt lat="49.15762" lon="6.87507">
        <ele>239</ele>
        <time>2013-05-29T09:24:32Z</time>
      </trkpt>
      <trkpt lat="49.1576" lon="6.87499">
        <ele>239.2</ele>
        <time>2013-05-29T09:24:37Z</time>
      </trkpt>
      <trkpt lat="49.15761" lon="6.8749">
        <ele>238.9</ele>
        <time>2013-05-29T09:24:42Z</time>
      </trkpt>
      <trkpt lat="49.15764" lon="6.87481">
        <ele>238.7</ele>
        <time>2013-05-29T09:24:47Z</time>
      </trkpt>
      <trkpt lat="49.15765" lon="6.87473">
        <ele>239.3</ele>
        <time>2013-05-29T09:24:52Z</time>
      </trkpt>
      <trkpt lat="49.15766" lon="6.87472">
        <ele>239.4</ele>
        <time>2013-05-29T09:24:53Z</time>
      </trkpt>
      <trkpt lat="49.15768" lon="6.87457">
        <ele>239.1</ele>
        <time>2013-05-29T09:25:02Z</time>
      </trkpt>
      <trkpt lat="49.1577" lon="6.87449">
        <ele>238.9</ele>
        <time>2013-05-29T09:25:07Z</time>
      </trkpt>
      <trkpt lat="49.15771" lon="6.8744">
        <ele>240.2</ele>
        <time>2013-05-29T09:25:12Z</time>
      </trkpt>
      <trkpt lat="49.15772" lon="6.87432">
        <ele>240.3</ele>
        <time>2013-05-29T09:25:17Z</time>
      </trkpt>
      <trkpt lat="49.15773" lon="6.87424">
        <ele>240.2</ele>
        <time>2013-05-29T09:25:22Z</time>
      </trkpt>
      <trkpt lat="49.15775" lon="6.87416">
        <ele>240</ele>
        <time>2013-05-29T09:25:27Z</time>
      </trkpt>
      <trkpt lat="49.15777" lon="6.87408">
        <ele>239.6</ele>
        <time>2013-05-29T09:25:32Z</time>
      </trkpt>
      <trkpt lat="49.15778" lon="6.87398">
        <ele>240.1</ele>
        <time>2013-05-29T09:25:37Z</time>
      </trkpt>
      <trkpt lat="49.1578" lon="6.8739">
        <ele>240.8</ele>
        <time>2013-05-29T09:25:42Z</time>
      </trkpt>
      <trkpt lat="49.15783" lon="6.87382">
        <ele>240.3</ele>
        <time>2013-05-29T09:25:47Z</time>
      </trkpt>
      <trkpt lat="49.15786" lon="6.87372">
        <ele>240.2</ele>
        <time>2013-05-29T09:25:52Z</time>
      </trkpt>
      <trkpt lat="49.15789" lon="6.87362">
        <ele>240.3</ele>
        <time>2013-05-29T09:25:57Z</time>
      </trkpt>
      <trkpt lat="49.1579" lon="6.8736">
        <ele>240.4</ele>
        <time>2013-05-29T09:25:58Z</time>
      </trkpt>
      <trkpt lat="49.15794" lon="6.87342">
        <ele>240.7</ele>
        <time>2013-05-29T09:26:07Z</time>
      </trkpt>
      <trkpt lat="49.15796" lon="6.87332">
        <ele>240.4</ele>
        <time>2013-05-29T09:26:12Z</time>
      </trkpt>
      <trkpt lat="49.15799" lon="6.87325">
        <ele>240.1</ele>
        <time>2013-05-29T09:26:17Z</time>
      </trkpt>
      <trkpt lat="49.15803" lon="6.87317">
        <ele>240.2</ele>
        <time>2013-05-29T09:26:22Z</time>
      </trkpt>
      <trkpt lat="49.15807" lon="6.87309">
        <ele>240</ele>
        <time>2013-05-29T09:26:27Z</time>
      </trkpt>
      <trkpt lat="49.1581" lon="6.87302">
        <ele>239.8</ele>
        <time>2013-05-29T09:26:32Z</time>
      </trkpt>
      <trkpt lat="49.15814" lon="6.87296">
        <ele>240.1</ele>
        <time>2013-05-29T09:26:37Z</time>
      </trkpt>
      <trkpt lat="49.15818" lon="6.8729">
        <ele>239.6</ele>
        <time>2013-05-29T09:26:42Z</time>
      </trkpt>
      <trkpt lat="49.15823" lon="6.87285">
        <ele>239.4</ele>
        <time>2013-05-29T09:26:47Z</time>
      </trkpt>
      <trkpt lat="49.15828" lon="6.87279">
        <ele>239</ele>
        <time>2013-05-29T09:26:52Z</time>
      </trkpt>
      <trkpt lat="49.15832" lon="6.87273">
        <ele>239</ele>
        <time>2013-05-29T09:26:57Z</time>
      </trkpt>
      <trkpt lat="49.15837" lon="6.87267">
        <ele>238.8</ele>
        <time>2013-05-29T09:27:02Z</time>
      </trkpt>
      <trkpt lat="49.15838" lon="6.87265">
        <ele>238.7</ele>
        <time>2013-05-29T09:27:03Z</time>
      </trkpt>
      <trkpt lat="49.15844" lon="6.8725">
        <ele>239</ele>
        <time>2013-05-29T09:27:12Z</time>
      </trkpt>
      <trkpt lat="49.15846" lon="6.8724">
        <ele>239</ele>
        <time>2013-05-29T09:27:17Z</time>
      </trkpt>
      <trkpt lat="49.15849" lon="6.8723">
        <ele>239.1</ele>
        <time>2013-05-29T09:27:22Z</time>
      </trkpt>
      <trkpt lat="49.15851" lon="6.8722">
        <ele>239.2</ele>
        <time>2013-05-29T09:27:27Z</time>
      </trkpt>
      <trkpt lat="49.15853" lon="6.87214">
        <ele>239.4</ele>
        <time>2013-05-29T09:27:32Z</time>
      </trkpt>
      <trkpt lat="49.15852" lon="6.87209">
        <ele>239</ele>
        <time>2013-05-29T09:27:37Z</time>
      </trkpt>
      <trkpt lat="49.15852" lon="6.87208">
        <ele>239.5</ele>
        <time>2013-05-29T09:27:42Z</time>
      </trkpt>
      <trkpt lat="49.15857" lon="6.87204">
        <ele>239.5</ele>
        <time>2013-05-29T09:27:47Z</time>
      </trkpt>
      <trkpt lat="49.15863" lon="6.872">
        <ele>239.4</ele>
        <time>2013-05-29T09:27:52Z</time>
      </trkpt>
      <trkpt lat="49.1587" lon="6.87195">
        <ele>239.4</ele>
        <time>2013-05-29T09:27:57Z</time>
      </trkpt>
      <trkpt lat="49.15876" lon="6.87191">
        <ele>239.1</ele>
        <time>2013-05-29T09:28:02Z</time>
      </trkpt>
      <trkpt lat="49.1588" lon="6.87187">
        <ele>238.7</ele>
        <time>2013-05-29T09:28:07Z</time>
      </trkpt>
      <trkpt lat="49.15881" lon="6.87187">
        <ele>238.6</ele>
        <time>2013-05-29T09:28:08Z</time>
      </trkpt>
      <trkpt lat="49.15888" lon="6.87179">
        <ele>238.2</ele>
        <time>2013-05-29T09:28:17Z</time>
      </trkpt>
      <trkpt lat="49.15893" lon="6.87176">
        <ele>238.1</ele>
        <time>2013-05-29T09:28:22Z</time>
      </trkpt>
      <trkpt lat="49.15899" lon="6.87171">
        <ele>237.3</ele>
        <time>2013-05-29T09:28:27Z</time>
      </trkpt>
      <trkpt lat="49.15903" lon="6.87166">
        <ele>236.7</ele>
        <time>2013-05-29T09:28:32Z</time>
      </trkpt>
      <trkpt lat="49.15908" lon="6.87161">
        <ele>237.1</ele>
        <time>2013-05-29T09:28:37Z</time>
      </trkpt>
      <trkpt lat="49.15913" lon="6.87155">
        <ele>237.2</ele>
        <time>2013-05-29T09:28:42Z</time>
      </trkpt>
      <trkpt lat="49.15918" lon="6.87152">
        <ele>236.5</ele>
        <time>2013-05-29T09:28:47Z</time>
      </trkpt>
      <trkpt lat="49.15924" lon="6.87148">
        <ele>236.3</ele>
        <time>2013-05-29T09:28:52Z</time>
      </trkpt>
      <trkpt lat="49.1593" lon="6.87141">
        <ele>235.9</ele>
        <time>2013-05-29T09:28:57Z</time>
      </trkpt>
      <trkpt lat="49.15936" lon="6.87134">
        <ele>235.8</ele>
        <time>2013-05-29T09:29:02Z</time>
      </trkpt>
      <trkpt lat="49.15941" lon="6.87127">
        <ele>236.6</ele>
        <time>2013-05-29T09:29:07Z</time>
      </trkpt>
      <trkpt lat="49.15947" lon="6.87119">
        <ele>236.6</ele>
        <time>2013-05-29T09:29:12Z</time>
      </trkpt>
      <trkpt lat="49.15948" lon="6.87118">
        <ele>236.4</ele>
        <time>2013-05-29T09:29:13Z</time>
      </trkpt>
      <trkpt lat="49.15957" lon="6.87111">
        <ele>236.7</ele>
        <time>2013-05-29T09:29:22Z</time>
      </trkpt>
      <trkpt lat="49.15959" lon="6.87111">
        <ele>237.2</ele>
        <time>2013-05-29T09:29:27Z</time>
      </trkpt>
      <trkpt lat="49.15964" lon="6.8711">
        <ele>236.8</ele>
        <time>2013-05-29T09:29:32Z</time>
      </trkpt>
      <trkpt lat="49.1597" lon="6.87108">
        <ele>237.2</ele>
        <time>2013-05-29T09:29:37Z</time>
      </trkpt>
      <trkpt lat="49.15977" lon="6.87106">
        <ele>237.6</ele>
        <time>2013-05-29T09:29:42Z</time>
      </trkpt>
      <trkpt lat="49.15983" lon="6.87104">
        <ele>237.5</ele>
        <time>2013-05-29T09:29:47Z</time>
      </trkpt>
      <trkpt lat="49.15988" lon="6.87101">
        <ele>238.6</ele>
        <time>2013-05-29T09:29:52Z</time>
      </trkpt>
      <trkpt lat="49.15994" lon="6.87099">
        <ele>238.7</ele>
        <time>2013-05-29T09:29:57Z</time>
      </trkpt>
      <trkpt lat="49.16" lon="6.87096">
        <ele>238.7</ele>
        <time>2013-05-29T09:30:02Z</time>
      </trkpt>
      <trkpt lat="49.16006" lon="6.87094">
        <ele>238.4</ele>
        <time>2013-05-29T09:30:07Z</time>
      </trkpt>
      <trkpt lat="49.16011" lon="6.87091">
        <ele>238.6</ele>
        <time>2013-05-29T09:30:12Z</time>
      </trkpt>
      <trkpt lat="49.16017" lon="6.87088">
        <ele>239.4</ele>
        <time>2013-05-29T09:30:17Z</time>
      </trkpt>
      <trkpt lat="49.16018" lon="6.87088">
        <ele>239.6</ele>
        <time>2013-05-29T09:30:18Z</time>
      </trkpt>
      <trkpt lat="49.16029" lon="6.87083">
        <ele>239.3</ele>
        <time>2013-05-29T09:30:27Z</time>
      </trkpt>
      <trkpt lat="49.16034" lon="6.8708">
        <ele>238.9</ele>
        <time>2013-05-29T09:30:32Z</time>
      </trkpt>
      <trkpt lat="49.1604" lon="6.87079">
        <ele>238.7</ele>
        <time>2013-05-29T09:30:37Z</time>
      </trkpt>
      <trkpt lat="49.16046" lon="6.87077">
        <ele>238.4</ele>
        <time>2013-05-29T09:30:42Z</time>
      </trkpt>
      <trkpt lat="49.16052" lon="6.87075">
        <ele>239.6</ele>
        <time>2013-05-29T09:30:47Z</time>
      </trkpt>
      <trkpt lat="49.16059" lon="6.87073">
        <ele>239.5</ele>
        <time>2013-05-29T09:30:52Z</time>
      </trkpt>
      <trkpt lat="49.16064" lon="6.87071">
        <ele>239.1</ele>
        <time>2013-05-29T09:30:57Z</time>
      </trkpt>
      <trkpt lat="49.1607" lon="6.87068">
        <ele>238.8</ele>
        <time>2013-05-29T09:31:02Z</time>
      </trkpt>
      <trkpt lat="49.16077" lon="6.87065">
        <ele>238.9</ele>
        <time>2013-05-29T09:31:07Z</time>
      </trkpt>
      <trkpt lat="49.16083" lon="6.87063">
        <ele>239.4</ele>
        <time>2013-05-29T09:31:12Z</time>
      </trkpt>
      <trkpt lat="49.16089" lon="6.87061">
        <ele>239.4</ele>
        <time>2013-05-29T09:31:17Z</time>
      </trkpt>
      <trkpt lat="49.16095" lon="6.87059">
        <ele>239.6</ele>
        <time>2013-05-29T09:31:22Z</time>
      </trkpt>
      <trkpt lat="49.16096" lon="6.87059">
        <ele>239.8</ele>
        <time>2013-05-29T09:31:23Z</time>
      </trkpt>
      <trkpt lat="49.16107" lon="6.87055">
        <ele>239.8</ele>
        <time>2013-05-29T09:31:32Z</time>
      </trkpt>
      <trkpt lat="49.16113" lon="6.87052">
        <ele>239.2</ele>
        <time>2013-05-29T09:31:37Z</time>
      </trkpt>
      <trkpt lat="49.16119" lon="6.8705">
        <ele>238.6</ele>
        <time>2013-05-29T09:31:42Z</time>
      </trkpt>
      <trkpt lat="49.16125" lon="6.87047">
        <ele>237.9</ele>
        <time>2013-05-29T09:31:47Z</time>
      </trkpt>
      <trkpt lat="49.16131" lon="6.87045">
        <ele>238</ele>
        <time>2013-05-29T09:31:52Z</time>
      </trkpt>
      <trkpt lat="49.16136" lon="6.87042">
        <ele>238.9</ele>
        <time>2013-05-29T09:31:57Z</time>
      </trkpt>
      <trkpt lat="49.16141" lon="6.87038">
        <ele>238.6</ele>
        <time>2013-05-29T09:32:02Z</time>
      </trkpt>
      <trkpt lat="49.16146" lon="6.87034">
        <ele>238.9</ele>
        <time>2013-05-29T09:32:07Z</time>
      </trkpt>
      <trkpt lat="49.16151" lon="6.8703">
        <ele>237.8</ele>
        <time>2013-05-29T09:32:12Z</time>
      </trkpt>
      <trkpt lat="49.16156" lon="6.87026">
        <ele>238</ele>
        <time>2013-05-29T09:32:17Z</time>
      </trkpt>
      <trkpt lat="49.16162" lon="6.87021">
        <ele>238.2</ele>
        <time>2013-05-29T09:32:22Z</time>
      </trkpt>
      <trkpt lat="49.16167" lon="6.87015">
        <ele>238.5</ele>
        <time>2013-05-29T09:32:27Z</time>
      </trkpt>
      <trkpt lat="49.16168" lon="6.87014">
        <ele>238.5</ele>
        <time>2013-05-29T09:32:28Z</time>
      </trkpt>
      <trkpt lat="49.16177" lon="6.87006">
        <ele>238.9</ele>
        <time>2013-05-29T09:32:37Z</time>
      </trkpt>
      <trkpt lat="49.16183" lon="6.87003">
        <ele>238.4</ele>
        <time>2013-05-29T09:32:42Z</time>
      </trkpt>
      <trkpt lat="49.16189" lon="6.87">
        <ele>237.6</ele>
        <time>2013-05-29T09:32:47Z</time>
      </trkpt>
      <trkpt lat="49.16194" lon="6.86996">
        <ele>238.6</ele>
        <time>2013-05-29T09:32:52Z</time>
      </trkpt>
      <trkpt lat="49.16199" lon="6.86993">
        <ele>238.6</ele>
        <time>2013-05-29T09:32:57Z</time>
      </trkpt>
      <trkpt lat="49.16204" lon="6.86989">
        <ele>238.6</ele>
        <time>2013-05-29T09:33:02Z</time>
      </trkpt>
      <trkpt lat="49.1621" lon="6.86985">
        <ele>238.1</ele>
        <time>2013-05-29T09:33:07Z</time>
      </trkpt>
      <trkpt lat="49.16216" lon="6.86981">
        <ele>238.1</ele>
        <time>2013-05-29T09:33:12Z</time>
      </trkpt>
      <trkpt lat="49.16222" lon="6.8698">
        <ele>238.6</ele>
        <time>2013-05-29T09:33:17Z</time>
      </trkpt>
      <trkpt lat="49.16228" lon="6.8698">
        <ele>237.2</ele>
        <time>2013-05-29T09:33:22Z</time>
      </trkpt>
      <trkpt lat="49.16234" lon="6.86983">
        <ele>237.6</ele>
        <time>2013-05-29T09:33:27Z</time>
      </trkpt>
      <trkpt lat="49.16239" lon="6.8699">
        <ele>238.5</ele>
        <time>2013-05-29T09:33:32Z</time>
      </trkpt>
      <trkpt lat="49.1624" lon="6.86991">
        <ele>238.8</ele>
        <time>2013-05-29T09:33:33Z</time>
      </trkpt>
      <trkpt lat="49.16249" lon="6.87003">
        <ele>238.5</ele>
        <time>2013-05-29T09:33:42Z</time>
      </trkpt>
      <trkpt lat="49.16253" lon="6.87009">
        <ele>238.7</ele>
        <time>2013-05-29T09:33:47Z</time>
      </trkpt>
      <trkpt lat="49.16259" lon="6.87013">
        <ele>238.5</ele>
        <time>2013-05-29T09:33:52Z</time>
      </trkpt>
      <trkpt lat="49.16265" lon="6.87017">
        <ele>238.6</ele>
        <time>2013-05-29T09:33:57Z</time>
      </trkpt>
      <trkpt lat="49.16271" lon="6.87019">
        <ele>239.3</ele>
        <time>2013-05-29T09:34:02Z</time>
      </trkpt>
      <trkpt lat="49.16277" lon="6.87021">
        <ele>239.2</ele>
        <time>2013-05-29T09:34:07Z</time>
      </trkpt>
      <trkpt lat="49.16282" lon="6.87022">
        <ele>240.3</ele>
        <time>2013-05-29T09:34:12Z</time>
      </trkpt>
      <trkpt lat="49.16288" lon="6.87023">
        <ele>239.9</ele>
        <time>2013-05-29T09:34:17Z</time>
      </trkpt>
      <trkpt lat="49.16293" lon="6.87025">
        <ele>239.5</ele>
        <time>2013-05-29T09:34:22Z</time>
      </trkpt>
      <trkpt lat="49.16298" lon="6.87026">
        <ele>239.8</ele>
        <time>2013-05-29T09:34:27Z</time>
      </trkpt>
      <trkpt lat="49.16302" lon="6.87026">
        <ele>240.1</ele>
        <time>2013-05-29T09:34:32Z</time>
      </trkpt>
      <trkpt lat="49.16304" lon="6.87025">
        <ele>239.9</ele>
        <time>2013-05-29T09:34:37Z</time>
      </trkpt>
      <trkpt lat="49.16305" lon="6.87025">
        <ele>240.3</ele>
        <time>2013-05-29T09:34:38Z</time>
      </trkpt>
      <trkpt lat="49.16308" lon="6.87024">
        <ele>240.2</ele>
        <time>2013-05-29T09:34:47Z</time>
      </trkpt>
      <trkpt lat="49.16309" lon="6.87023">
        <ele>239.9</ele>
        <time>2013-05-29T09:34:52Z</time>
      </trkpt>
      <trkpt lat="49.1631" lon="6.87023">
        <ele>239.9</ele>
        <time>2013-05-29T09:34:57Z</time>
      </trkpt>
      <trkpt lat="49.16311" lon="6.87023">
        <ele>240</ele>
        <time>2013-05-29T09:35:02Z</time>
      </trkpt>
      <trkpt lat="49.16313" lon="6.87023">
        <ele>240.1</ele>
        <time>2013-05-29T09:35:07Z</time>
      </trkpt>
      <trkpt lat="49.16313" lon="6.87023">
        <ele>240.2</ele>
        <time>2013-05-29T09:35:12Z</time>
      </trkpt>
      <trkpt lat="49.16313" lon="6.87022">
        <ele>239.6</ele>
        <time>2013-05-29T09:35:17Z</time>
      </trkpt>
      <trkpt lat="49.16313" lon="6.8702">
        <ele>239.5</ele>
        <time>2013-05-29T09:35:22Z</time>
      </trkpt>
      <trkpt lat="49.16313" lon="6.8702">
        <ele>240.6</ele>
        <time>2013-05-29T09:35:27Z</time>
      </trkpt>
      <trkpt lat="49.16313" lon="6.8702">
        <ele>241.3</ele>
        <time>2013-05-29T09:35:32Z</time>
      </trkpt>
      <trkpt lat="49.16312" lon="6.8702">
        <ele>241.3</ele>
        <time>2013-05-29T09:35:37Z</time>
      </trkpt>
      <trkpt lat="49.16313" lon="6.8702">
        <ele>241.7</ele>
        <time>2013-05-29T09:35:42Z</time>
      </trkpt>
      <trkpt lat="49.16313" lon="6.87019">
        <ele>241.6</ele>
        <time>2013-05-29T09:35:43Z</time>
      </trkpt>
      <trkpt lat="49.16316" lon="6.87018">
        <ele>241.5</ele>
        <time>2013-05-29T09:35:52Z</time>
      </trkpt>
      <trkpt lat="49.16316" lon="6.87018">
        <ele>241</ele>
        <time>2013-05-29T09:35:57Z</time>
      </trkpt>
      <trkpt lat="49.16316" lon="6.87017">
        <ele>241.2</ele>
        <time>2013-05-29T09:36:02Z</time>
      </trkpt>
      <trkpt lat="49.16318" lon="6.87017">
        <ele>241.6</ele>
        <time>2013-05-29T09:36:07Z</time>
      </trkpt>
      <trkpt lat="49.16319" lon="6.87017">
        <ele>241.4</ele>
        <time>2013-05-29T09:36:12Z</time>
      </trkpt>
      <trkpt lat="49.1632" lon="6.87018">
        <ele>241.4</ele>
        <time>2013-05-29T09:36:17Z</time>
      </trkpt>
      <trkpt lat="49.16321" lon="6.87018">
        <ele>241.3</ele>
        <time>2013-05-29T09:36:22Z</time>
      </trkpt>
      <trkpt lat="49.16325" lon="6.87019">
        <ele>241.1</ele>
        <time>2013-05-29T09:36:27Z</time>
      </trkpt>
      <trkpt lat="49.16329" lon="6.87018">
        <ele>242.1</ele>
        <time>2013-05-29T09:36:32Z</time>
      </trkpt>
      <trkpt lat="49.16333" lon="6.87016">
        <ele>242.7</ele>
        <time>2013-05-29T09:36:37Z</time>
      </trkpt>
      <trkpt lat="49.16335" lon="6.87015">
        <ele>242.7</ele>
        <time>2013-05-29T09:36:42Z</time>
      </trkpt>
      <trkpt lat="49.16338" lon="6.87014">
        <ele>242.5</ele>
        <time>2013-05-29T09:36:47Z</time>
      </trkpt>
      <trkpt lat="49.16339" lon="6.87014">
        <ele>242.7</ele>
        <time>2013-05-29T09:36:48Z</time>
      </trkpt>
      <trkpt lat="49.16346" lon="6.87007">
        <ele>243.9</ele>
        <time>2013-05-29T09:36:57Z</time>
      </trkpt>
      <trkpt lat="49.1635" lon="6.87001">
        <ele>243.2</ele>
        <time>2013-05-29T09:37:02Z</time>
      </trkpt>
      <trkpt lat="49.16354" lon="6.86995">
        <ele>243.6</ele>
        <time>2013-05-29T09:37:07Z</time>
      </trkpt>
      <trkpt lat="49.16358" lon="6.86989">
        <ele>245</ele>
        <time>2013-05-29T09:37:12Z</time>
      </trkpt>
      <trkpt lat="49.16363" lon="6.86983">
        <ele>245.3</ele>
        <time>2013-05-29T09:37:17Z</time>
      </trkpt>
      <trkpt lat="49.16366" lon="6.86976">
        <ele>245.5</ele>
        <time>2013-05-29T09:37:22Z</time>
      </trkpt>
      <trkpt lat="49.16369" lon="6.8697">
        <ele>246.4</ele>
        <time>2013-05-29T09:37:27Z</time>
      </trkpt>
      <trkpt lat="49.16373" lon="6.86963">
        <ele>247</ele>
        <time>2013-05-29T09:37:32Z</time>
      </trkpt>
      <trkpt lat="49.16375" lon="6.86955">
        <ele>247.7</ele>
        <time>2013-05-29T09:37:37Z</time>
      </trkpt>
      <trkpt lat="49.16376" lon="6.86948">
        <ele>248.6</ele>
        <time>2013-05-29T09:37:42Z</time>
      </trkpt>
      <trkpt lat="49.16377" lon="6.8694">
        <ele>247.5</ele>
        <time>2013-05-29T09:37:47Z</time>
      </trkpt>
      <trkpt lat="49.16378" lon="6.86931">
        <ele>247.1</ele>
        <time>2013-05-29T09:37:52Z</time>
      </trkpt>
      <trkpt lat="49.16379" lon="6.86929">
        <ele>246.9</ele>
        <time>2013-05-29T09:37:53Z</time>
      </trkpt>
      <trkpt lat="49.16379" lon="6.86913">
        <ele>247.6</ele>
        <time>2013-05-29T09:38:02Z</time>
      </trkpt>
      <trkpt lat="49.1638" lon="6.86903">
        <ele>247.7</ele>
        <time>2013-05-29T09:38:07Z</time>
      </trkpt>
      <trkpt lat="49.16383" lon="6.86892">
        <ele>248.6</ele>
        <time>2013-05-29T09:38:12Z</time>
      </trkpt>
      <trkpt lat="49.16387" lon="6.86883">
        <ele>248.7</ele>
        <time>2013-05-29T09:38:17Z</time>
      </trkpt>
      <trkpt lat="49.16391" lon="6.86875">
        <ele>249</ele>
        <time>2013-05-29T09:38:22Z</time>
      </trkpt>
      <trkpt lat="49.16396" lon="6.86867">
        <ele>250.4</ele>
        <time>2013-05-29T09:38:27Z</time>
      </trkpt>
      <trkpt lat="49.16401" lon="6.86862">
        <ele>251.4</ele>
        <time>2013-05-29T09:38:32Z</time>
      </trkpt>
      <trkpt lat="49.16405" lon="6.86858">
        <ele>250.8</ele>
        <time>2013-05-29T09:38:37Z</time>
      </trkpt>
      <trkpt lat="49.16412" lon="6.86854">
        <ele>251.3</ele>
        <time>2013-05-29T09:38:42Z</time>
      </trkpt>
      <trkpt lat="49.16419" lon="6.86852">
        <ele>250.8</ele>
        <time>2013-05-29T09:38:47Z</time>
      </trkpt>
      <trkpt lat="49.16426" lon="6.86851">
        <ele>251</ele>
        <time>2013-05-29T09:38:52Z</time>
      </trkpt>
      <trkpt lat="49.16432" lon="6.86851">
        <ele>251.4</ele>
        <time>2013-05-29T09:38:57Z</time>
      </trkpt>
      <trkpt lat="49.16434" lon="6.86851">
        <ele>251.4</ele>
        <time>2013-05-29T09:38:58Z</time>
      </trkpt>
      <trkpt lat="49.16445" lon="6.86851">
        <ele>251.2</ele>
        <time>2013-05-29T09:39:07Z</time>
      </trkpt>
      <trkpt lat="49.16452" lon="6.86852">
        <ele>250.4</ele>
        <time>2013-05-29T09:39:12Z</time>
      </trkpt>
      <trkpt lat="49.16458" lon="6.86852">
        <ele>249.5</ele>
        <time>2013-05-29T09:39:17Z</time>
      </trkpt>
      <trkpt lat="49.16465" lon="6.86851">
        <ele>250.1</ele>
        <time>2013-05-29T09:39:22Z</time>
      </trkpt>
      <trkpt lat="49.16472" lon="6.86851">
        <ele>249.8</ele>
        <time>2013-05-29T09:39:27Z</time>
      </trkpt>
      <trkpt lat="49.16479" lon="6.8685">
        <ele>249.9</ele>
        <time>2013-05-29T09:39:32Z</time>
      </trkpt>
      <trkpt lat="49.16485" lon="6.86851">
        <ele>249.7</ele>
        <time>2013-05-29T09:39:37Z</time>
      </trkpt>
      <trkpt lat="49.1649" lon="6.86851">
        <ele>249.7</ele>
        <time>2013-05-29T09:39:42Z</time>
      </trkpt>
      <trkpt lat="49.16496" lon="6.86852">
        <ele>249.8</ele>
        <time>2013-05-29T09:39:47Z</time>
      </trkpt>
      <trkpt lat="49.16502" lon="6.86853">
        <ele>250</ele>
        <time>2013-05-29T09:39:52Z</time>
      </trkpt>
      <trkpt lat="49.16508" lon="6.86857">
        <ele>249.4</ele>
        <time>2013-05-29T09:39:57Z</time>
      </trkpt>
      <trkpt lat="49.16513" lon="6.86861">
        <ele>249.2</ele>
        <time>2013-05-29T09:40:02Z</time>
      </trkpt>
      <trkpt lat="49.16514" lon="6.86862">
        <ele>249.1</ele>
        <time>2013-05-29T09:40:03Z</time>
      </trkpt>
      <trkpt lat="49.16521" lon="6.86875">
        <ele>248.3</ele>
        <time>2013-05-29T09:40:12Z</time>
      </trkpt>
      <trkpt lat="49.16524" lon="6.86883">
        <ele>248</ele>
        <time>2013-05-29T09:40:17Z</time>
      </trkpt>
      <trkpt lat="49.16529" lon="6.86891">
        <ele>247.6</ele>
        <time>2013-05-29T09:40:22Z</time>
      </trkpt>
      <trkpt lat="49.16533" lon="6.86899">
        <ele>248.1</ele>
        <time>2013-05-29T09:40:27Z</time>
      </trkpt>
      <trkpt lat="49.16538" lon="6.86906">
        <ele>246.9</ele>
        <time>2013-05-29T09:40:32Z</time>
      </trkpt>
      <trkpt lat="49.16544" lon="6.86913">
        <ele>246.5</ele>
        <time>2013-05-29T09:40:37Z</time>
      </trkpt>
      <trkpt lat="49.16549" lon="6.86918">
        <ele>246.1</ele>
        <time>2013-05-29T09:40:42Z</time>
      </trkpt>
      <trkpt lat="49.16555" lon="6.86923">
        <ele>245.4</ele>
        <time>2013-05-29T09:40:47Z</time>
      </trkpt>
      <trkpt lat="49.16561" lon="6.86928">
        <ele>245.4</ele>
        <time>2013-05-29T09:40:52Z</time>
      </trkpt>
      <trkpt lat="49.16567" lon="6.86932">
        <ele>244.5</ele>
        <time>2013-05-29T09:40:57Z</time>
      </trkpt>
      <trkpt lat="49.16572" lon="6.86936">
        <ele>243.9</ele>
        <time>2013-05-29T09:41:02Z</time>
      </trkpt>
      <trkpt lat="49.16578" lon="6.86939">
        <ele>243.6</ele>
        <time>2013-05-29T09:41:07Z</time>
      </trkpt>
      <trkpt lat="49.1658" lon="6.86939">
        <ele>243.5</ele>
        <time>2013-05-29T09:41:08Z</time>
      </trkpt>
      <trkpt lat="49.16589" lon="6.86944">
        <ele>242.5</ele>
        <time>2013-05-29T09:41:17Z</time>
      </trkpt>
      <trkpt lat="49.16594" lon="6.86945">
        <ele>242</ele>
        <time>2013-05-29T09:41:22Z</time>
      </trkpt>
      <trkpt lat="49.16601" lon="6.86947">
        <ele>242.2</ele>
        <time>2013-05-29T09:41:27Z</time>
      </trkpt>
      <trkpt lat="49.16607" lon="6.86949">
        <ele>241.6</ele>
        <time>2013-05-29T09:41:32Z</time>
      </trkpt>
      <trkpt lat="49.16614" lon="6.86951">
        <ele>239.8</ele>
        <time>2013-05-29T09:41:37Z</time>
      </trkpt>
      <trkpt lat="49.16619" lon="6.86953">
        <ele>239.3</ele>
        <time>2013-05-29T09:41:42Z</time>
      </trkpt>
      <trkpt lat="49.16626" lon="6.86955">
        <ele>239</ele>
        <time>2013-05-29T09:41:47Z</time>
      </trkpt>
      <trkpt lat="49.16632" lon="6.86958">
        <ele>238.6</ele>
        <time>2013-05-29T09:41:52Z</time>
      </trkpt>
      <trkpt lat="49.16639" lon="6.8696">
        <ele>237.7</ele>
        <time>2013-05-29T09:41:57Z</time>
      </trkpt>
      <trkpt lat="49.16644" lon="6.86962">
        <ele>237.6</ele>
        <time>2013-05-29T09:42:02Z</time>
      </trkpt>
      <trkpt lat="49.16649" lon="6.86964">
        <ele>237.1</ele>
        <time>2013-05-29T09:42:07Z</time>
      </trkpt>
      <trkpt lat="49.16654" lon="6.86965">
        <ele>237.2</ele>
        <time>2013-05-29T09:42:12Z</time>
      </trkpt>
      <trkpt lat="49.16655" lon="6.86965">
        <ele>237.4</ele>
        <time>2013-05-29T09:42:13Z</time>
      </trkpt>
      <trkpt lat="49.16665" lon="6.86965">
        <ele>237.6</ele>
        <time>2013-05-29T09:42:22Z</time>
      </trkpt>
      <trkpt lat="49.1667" lon="6.86965">
        <ele>237.4</ele>
        <time>2013-05-29T09:42:27Z</time>
      </trkpt>
      <trkpt lat="49.16672" lon="6.86969">
        <ele>237.2</ele>
        <time>2013-05-29T09:42:32Z</time>
      </trkpt>
      <trkpt lat="49.16673" lon="6.86977">
        <ele>236.7</ele>
        <time>2013-05-29T09:42:37Z</time>
      </trkpt>
      <trkpt lat="49.16674" lon="6.86985">
        <ele>236.8</ele>
        <time>2013-05-29T09:42:42Z</time>
      </trkpt>
      <trkpt lat="49.16676" lon="6.86986">
        <ele>236.2</ele>
        <time>2013-05-29T09:42:47Z</time>
      </trkpt>
      <trkpt lat="49.16678" lon="6.86988">
        <ele>235.7</ele>
        <time>2013-05-29T09:42:52Z</time>
      </trkpt>
      <trkpt lat="49.16678" lon="6.86993">
        <ele>235.8</ele>
        <time>2013-05-29T09:42:57Z</time>
      </trkpt>
      <trkpt lat="49.16679" lon="6.86998">
        <ele>235.7</ele>
        <time>2013-05-29T09:43:02Z</time>
      </trkpt>
      <trkpt lat="49.1668" lon="6.86999">
        <ele>235.3</ele>
        <time>2013-05-29T09:43:07Z</time>
      </trkpt>
      <trkpt lat="49.16679" lon="6.87">
        <ele>235.6</ele>
        <time>2013-05-29T09:43:12Z</time>
      </trkpt>
      <trkpt lat="49.16678" lon="6.87">
        <ele>235.6</ele>
        <time>2013-05-29T09:43:17Z</time>
      </trkpt>
      <trkpt lat="49.16678" lon="6.87001">
        <ele>235.5</ele>
        <time>2013-05-29T09:43:18Z</time>
      </trkpt>
      <trkpt lat="49.16679" lon="6.87006">
        <ele>235.8</ele>
        <time>2013-05-29T09:43:27Z</time>
      </trkpt>
      <trkpt lat="49.1668" lon="6.87007">
        <ele>236.1</ele>
        <time>2013-05-29T09:43:32Z</time>
      </trkpt>
      <trkpt lat="49.16674" lon="6.87011">
        <ele>235.8</ele>
        <time>2013-05-29T09:43:37Z</time>
      </trkpt>
      <trkpt lat="49.16673" lon="6.87009">
        <ele>235.8</ele>
        <time>2013-05-29T09:43:42Z</time>
      </trkpt>
      <trkpt lat="49.16678" lon="6.87008">
        <ele>236.1</ele>
        <time>2013-05-29T09:43:47Z</time>
      </trkpt>
      <trkpt lat="49.16679" lon="6.87006">
        <ele>235.4</ele>
        <time>2013-05-29T09:43:52Z</time>
      </trkpt>
      <trkpt lat="49.16679" lon="6.87004">
        <ele>236.1</ele>
        <time>2013-05-29T09:43:57Z</time>
      </trkpt>
      <trkpt lat="49.16679" lon="6.87005">
        <ele>236</ele>
        <time>2013-05-29T09:44:02Z</time>
      </trkpt>
      <trkpt lat="49.16679" lon="6.87006">
        <ele>236.1</ele>
        <time>2013-05-29T09:44:07Z</time>
      </trkpt>
      <trkpt lat="49.16679" lon="6.87007">
        <ele>236.4</ele>
        <time>2013-05-29T09:44:12Z</time>
      </trkpt>
      <trkpt lat="49.16679" lon="6.87007">
        <ele>236.3</ele>
        <time>2013-05-29T09:44:17Z</time>
      </trkpt>
      <trkpt lat="49.1668" lon="6.87009">
        <ele>235.7</ele>
        <time>2013-05-29T09:44:22Z</time>
      </trkpt>
      <trkpt lat="49.1668" lon="6.87009">
        <ele>235.6</ele>
        <time>2013-05-29T09:44:23Z</time>
      </trkpt>
      <trkpt lat="49.1668" lon="6.8701">
        <ele>236.2</ele>
        <time>2013-05-29T09:44:32Z</time>
      </trkpt>
      <trkpt lat="49.16681" lon="6.87011">
        <ele>236.6</ele>
        <time>2013-05-29T09:44:37Z</time>
      </trkpt>
      <trkpt lat="49.16682" lon="6.87012">
        <ele>236.5</ele>
        <time>2013-05-29T09:44:42Z</time>
      </trkpt>
      <trkpt lat="49.16683" lon="6.87013">
        <ele>236</ele>
        <time>2013-05-29T09:44:47Z</time>
      </trkpt>
      <trkpt lat="49.16682" lon="6.87013">
        <ele>236.2</ele>
        <time>2013-05-29T09:44:52Z</time>
      </trkpt>
      <trkpt lat="49.16681" lon="6.87014">
        <ele>236.2</ele>
        <time>2013-05-29T09:44:57Z</time>
      </trkpt>
      <trkpt lat="49.1668" lon="6.87014">
        <ele>236.5</ele>
        <time>2013-05-29T09:45:02Z</time>
      </trkpt>
      <trkpt lat="49.16679" lon="6.87014">
        <ele>236.9</ele>
        <time>2013-05-29T09:45:07Z</time>
      </trkpt>
      <trkpt lat="49.16679" lon="6.87014">
        <ele>236.3</ele>
        <time>2013-05-29T09:45:12Z</time>
      </trkpt>
      <trkpt lat="49.1668" lon="6.87014">
        <ele>236.3</ele>
        <time>2013-05-29T09:45:17Z</time>
      </trkpt>
      <trkpt lat="49.16679" lon="6.87014">
        <ele>235.5</ele>
        <time>2013-05-29T09:45:22Z</time>
      </trkpt>
      <trkpt lat="49.16679" lon="6.87013">
        <ele>236.7</ele>
        <time>2013-05-29T09:45:27Z</time>
      </trkpt>
      <trkpt lat="49.16679" lon="6.87012">
        <ele>236.2</ele>
        <time>2013-05-29T09:45:28Z</time>
      </trkpt>
      <trkpt lat="49.16678" lon="6.87012">
        <ele>236.7</ele>
        <time>2013-05-29T09:45:37Z</time>
      </trkpt>
      <trkpt lat="49.16678" lon="6.87011">
        <ele>236.4</ele>
        <time>2013-05-29T09:45:42Z</time>
      </trkpt>
      <trkpt lat="49.16678" lon="6.8701">
        <ele>236.5</ele>
        <time>2013-05-29T09:45:47Z</time>
      </trkpt>
      <trkpt lat="49.16678" lon="6.8701">
        <ele>236.8</ele>
        <time>2013-05-29T09:45:52Z</time>
      </trkpt>
      <trkpt lat="49.16679" lon="6.8701">
        <ele>236.7</ele>
        <time>2013-05-29T09:45:57Z</time>
      </trkpt>
      <trkpt lat="49.1668" lon="6.8701">
        <ele>237</ele>
        <time>2013-05-29T09:46:02Z</time>
      </trkpt>
      <trkpt lat="49.16681" lon="6.8701">
        <ele>236.4</ele>
        <time>2013-05-29T09:46:07Z</time>
      </trkpt>
      <trkpt lat="49.16682" lon="6.87011">
        <ele>236.5</ele>
        <time>2013-05-29T09:46:12Z</time>
      </trkpt>
      <trkpt lat="49.16683" lon="6.87011">
        <ele>236.2</ele>
        <time>2013-05-29T09:46:17Z</time>
      </trkpt>
      <trkpt lat="49.16683" lon="6.87012">
        <ele>236.4</ele>
        <time>2013-05-29T09:46:22Z</time>
      </trkpt>
      <trkpt lat="49.16683" lon="6.87012">
        <ele>237.1</ele>
        <time>2013-05-29T09:46:27Z</time>
      </trkpt>
      <trkpt lat="49.16684" lon="6.87012">
        <ele>236.3</ele>
        <time>2013-05-29T09:46:32Z</time>
      </trkpt>
      <trkpt lat="49.16684" lon="6.87012">
        <ele>235.9</ele>
        <time>2013-05-29T09:46:33Z</time>
      </trkpt>
      <trkpt lat="49.16685" lon="6.87007">
        <ele>238</ele>
        <time>2013-05-29T09:46:42Z</time>
      </trkpt>
      <trkpt lat="49.16682" lon="6.87009">
        <ele>237.8</ele>
        <time>2013-05-29T09:46:47Z</time>
      </trkpt>
      <trkpt lat="49.16682" lon="6.87011">
        <ele>236.9</ele>
        <time>2013-05-29T09:46:52Z</time>
      </trkpt>
      <trkpt lat="49.16683" lon="6.87011">
        <ele>237.1</ele>
        <time>2013-05-29T09:46:57Z</time>
      </trkpt>
      <trkpt lat="49.16683" lon="6.8701">
        <ele>237.3</ele>
        <time>2013-05-29T09:47:02Z</time>
      </trkpt>
      <trkpt lat="49.16684" lon="6.87009">
        <ele>236.5</ele>
        <time>2013-05-29T09:47:07Z</time>
      </trkpt>
      <trkpt lat="49.16683" lon="6.87007">
        <ele>236.6</ele>
        <time>2013-05-29T09:47:12Z</time>
      </trkpt>
      <trkpt lat="49.16682" lon="6.87006">
        <ele>236.2</ele>
        <time>2013-05-29T09:47:17Z</time>
      </trkpt>
      <trkpt lat="49.1668" lon="6.87004">
        <ele>237.2</ele>
        <time>2013-05-29T09:47:22Z</time>
      </trkpt>
      <trkpt lat="49.1668" lon="6.87002">
        <ele>237.3</ele>
        <time>2013-05-29T09:47:27Z</time>
      </trkpt>
      <trkpt lat="49.16679" lon="6.87002">
        <ele>236.9</ele>
        <time>2013-05-29T09:47:32Z</time>
      </trkpt>
      <trkpt lat="49.16679" lon="6.87002">
        <ele>237.2</ele>
        <time>2013-05-29T09:47:37Z</time>
      </trkpt>
      <trkpt lat="49.16678" lon="6.87003">
        <ele>237.2</ele>
        <time>2013-05-29T09:47:38Z</time>
      </trkpt>
      <trkpt lat="49.16676" lon="6.87005">
        <ele>237.7</ele>
        <time>2013-05-29T09:47:47Z</time>
      </trkpt>
      <trkpt lat="49.16675" lon="6.87005">
        <ele>237.3</ele>
        <time>2013-05-29T09:47:52Z</time>
      </trkpt>
      <trkpt lat="49.16676" lon="6.87006">
        <ele>237.7</ele>
        <time>2013-05-29T09:47:57Z</time>
      </trkpt>
      <trkpt lat="49.16678" lon="6.87005">
        <ele>238</ele>
        <time>2013-05-29T09:48:02Z</time>
      </trkpt>
      <trkpt lat="49.16678" lon="6.87006">
        <ele>238.2</ele>
        <time>2013-05-29T09:48:06Z</time>
      </trkpt>
      <trkpt lat="49.16678" lon="6.87006">
        <ele>238.2</ele>
        <time>2013-05-29T09:48:06Z</time>
      </trkpt>
      <trkpt lat="49.16678" lon="6.87006">
        <ele>238.2</ele>
        <time>2013-05-29T09:48:06Z</time>
      </trkpt>
      <trkpt lat="49.16668" lon="6.87001">
        <ele>237.6</ele>
        <time>2013-05-29T09:50:00Z</time>
      </trkpt>
    </trkseg>
  </trk>
</gpx>